[[{"header":{"parameterUnit":"m.s-1","parameterCategory":1,"la1":30.6,"la2":28.766,"lo1":-90.7593,"lo2":-88.6598,"dy":0.0162,"dx":0.0183,"nx":116,"ny":114,"refTime":"2024-04-24T12:00:00:Z","depth":0,"parameterNumber":2,"parameterNumberName":"U-component_of_WINDS"},"data":[0.0,0.0,0.0,0.0,0.0,0.0,0.0,0.0,0.0,0.0,0.0,0.0,0.0,0.0,0.0,0.0,0.0,0.0,0.0,0.0,0.0,0.0,0.0,0.0,0.0,0.0,0.0,0.0,0.0,0.0,0.0,0.0,0.0,0.0,0.0,0.0,0.0,0.0,0.0,0.0,0.0,0.0,0.0,0.0,0.0,0.0,0.0,0.0,0.0,0.0,0.0,0.0,0.0,0.0,0.0,0.0,0.0,0.0,0.0,0.0,0.0,0.0,0.0,0.0,0.0,0.0,0.0,0.0,0.0,0.0,0.0,0.0,0.0,0.0,0.0,0.0,0.0,0.0,0.0,0.0,0.0,0.0,0.0,0.0,0.0,0.0,0.0,0.0,0.0,0.0,0.0,0.0,0.0,0.0,0.0,0.0,0.0,0.0,0.0,0.0,0.0,0.0,0.0,0.0,0.0,0.0,0.0,0.0,0.0,0.0,0.0,0.0,0.0,0.0,0.0,0.0,0.0,0.0,0.0,0.0,0.0,0.0,0.0,0.0,0.0,0.0,0.0,0.0,0.0,0.0,0.0,0.0,0.0,0.0,0.0,0.0,0.0,0.0,0.0,0.0,0.0,0.0,0.0,0.0,0.0,0.0,0.0,0.0,0.0,0.0,0.0,0.0,0.0,0.0,0.0,0.0,0.0,0.0,0.0,0.0,0.0,0.0,0.0,0.0,0.0,0.0,0.0,0.0,0.0,0.0,0.0,0.0,0.0,0.0,0.0,0.0,0.0,0.0,0.0,0.0,0.0,0.0,0.0,0.0,0.0,0.0,0.0,0.0,0.0,0.0,0.0,0.0,0.0,0.0,0.0,0.0,0.0,0.0,0.0,0.0,0.0,0.0,0.0,0.0,0.0,0.0,0.0,0.0,0.0,0.0,0.0,0.0,0.0,0.0,0.0,0.0,0.0,0.0,0.0,0.0,0.0,0.0,0.0,0.0,0.0,0.0,0.0,0.0,0.0,0.0,0.0,0.0,0.0,0.0,0.0,0.0,0.0,0.0,0.0,0.0,0.0,0.0,0.0,0.0,0.0,0.0,0.0,0.0,0.0,0.0,0.0,0.0,0.0,0.0,0.0,0.0,0.0,0.0,0.0,0.0,0.0,0.0,0.0,0.0,0.0,0.0,0.0,0.0,0.0,0.0,0.0,0.0,0.0,0.0,0.0,0.0,0.0,0.0,0.0,0.0,0.0,0.0,0.0,0.0,0.0,0.0,0.0,0.0,0.0,0.0,0.0,0.0,0.0,0.0,0.0,0.0,0.0,0.0,0.0,0.0,0.0,0.0,0.0,0.0,0.0,0.0,0.0,0.0,0.0,0.0,0.0,0.0,0.0,0.0,0.0,0.0,0.0,0.0,0.0,0.0,0.0,0.0,0.0,0.0,0.0,0.0,0.0,0.0,0.0,0.0,0.0,0.0,0.0,0.0,0.0,0.0,0.0,0.0,0.0,0.0,0.0,0.0,0.0,0.0,0.0,0.0,0.0,0.0,0.0,0.0,0.0,0.0,0.0,0.0,0.0,0.0,0.0,0.0,0.0,0.0,0.0,0.0,0.0,0.0,0.0,0.0,0.0,0.0,0.0,0.0,0.0,0.0,0.0,0.0,0.0,0.0,0.0,0.0,0.0,0.0,0.0,0.0,0.0,0.0,0.0,0.0,0.0,0.0,0.0,0.0,0.0,0.0,0.0,0.0,0.0,0.0,0.0,0.0,0.0,0.0,0.0,0.0,0.0,0.0,0.0,0.0,0.0,0.0,0.0,0.0,0.0,0.0,0.0,0.0,0.0,0.0,0.0,0.0,0.0,0.0,0.0,0.0,0.0,0.0,0.0,0.0,0.0,0.0,0.0,0.0,0.0,0.0,0.0,0.0,0.0,0.0,0.0,0.0,0.0,0.0,0.0,0.0,0.0,0.0,0.0,0.0,0.0,0.0,0.0,0.0,0.0,0.0,0.0,0.0,0.0,0.0,0.0,0.0,0.0,0.0,0.0,0.0,0.0,0.0,0.0,0.0,0.0,0.0,0.0,0.0,0.0,0.0,0.0,0.0,0.0,0.0,0.0,0.0,0.0,0.0,0.0,0.0,0.0,0.0,0.0,0.0,0.0,0.0,0.0,0.0,0.0,0.0,0.0,0.0,0.0,0.0,0.0,0.0,0.0,0.0,0.0,0.0,0.0,0.0,0.0,0.0,0.0,0.0,0.0,0.0,0.0,0.0,0.0,0.0,0.0,0.0,0.0,0.0,0.0,0.0,0.0,0.0,0.0,0.0,0.0,0.0,0.0,0.0,0.0,0.0,0.0,0.0,0.0,0.0,0.0,0.0,0.0,0.0,0.0,0.0,0.0,0.0,0.0,0.0,0.0,0.0,0.0,0.0,0.0,0.0,0.0,0.0,0.0,0.0,0.0,0.0,0.0,0.0,0.0,0.0,0.0,0.0,0.0,0.0,0.0,0.0,0.0,0.0,0.0,0.0,0.0,0.0,0.0,0.0,0.0,0.0,0.0,0.0,0.0,0.0,0.0,0.0,0.0,0.0,0.0,0.0,0.0,0.0,0.0,0.0,0.0,0.0,0.0,0.0,0.0,0.0,0.0,0.0,0.0,0.0,0.0,0.0,0.0,0.0,0.0,0.0,0.0,0.0,0.0,0.0,0.0,0.0,0.0,0.0,0.0,0.0,0.0,0.0,0.0,0.0,0.0,0.0,0.0,0.0,0.0,0.0,0.0,0.0,0.0,0.0,0.0,0.0,0.0,0.0,0.0,0.0,0.0,0.0,0.0,0.0,0.0,0.0,0.0,0.0,0.0,0.0,0.0,0.0,0.0,0.0,0.0,0.0,0.0,0.0,0.0,0.0,0.0,0.0,0.0,0.0,0.0,0.0,0.0,0.0,0.0,0.0,0.0,0.0,0.0,0.0,0.0,0.0,0.0,0.0,0.0,0.0,0.0,0.0,0.0,0.0,0.0,0.0,0.0,0.0,0.0,0.0,0.0,0.0,0.0,0.0,0.0,0.0,0.0,0.0,0.0,0.0,0.0,0.0,0.0,0.0,0.0,0.0,0.0,0.0,0.0,0.0,0.0,0.0,0.0,0.0,0.0,0.0,0.0,0.0,0.0,0.0,0.0,0.0,0.0,0.0,0.0,0.0,0.0,0.0,0.0,0.0,0.0,0.0,0.0,0.0,0.0,0.0,0.0,0.0,0.0,0.0,0.0,0.0,0.0,0.0,0.0,0.0,0.0,0.0,0.0,0.0,0.0,0.0,0.0,0.0,0.0,0.0,0.0,0.0,0.0,0.0,0.0,0.0,0.0,0.0,0.0,0.0,0.0,0.0,0.0,0.0,0.0,0.0,0.0,0.0,0.0,0.0,0.0,0.0,0.0,0.0,0.0,0.0,0.0,0.0,0.0,0.0,0.0,0.0,0.0,0.0,0.0,0.0,0.0,0.0,0.0,0.0,0.0,0.0,0.0,0.0,0.0,0.0,0.0,0.0,0.0,0.0,0.0,0.0,0.0,0.0,0.0,0.0,0.0,0.0,0.0,0.0,0.0,0.0,0.0,0.0,0.0,0.0,0.0,0.0,0.0,0.0,0.0,0.0,0.0,0.0,0.0,0.0,0.0,0.0,0.0,0.0,0.0,0.0,0.0,0.0,0.0,0.0,0.0,0.0,0.0,0.0,0.0,0.0,0.0,0.0,0.0,0.0,0.0,0.0,0.0,0.0,0.0,0.0,0.0,0.0,0.0,0.0,0.0,0.0,0.0,0.0,0.0,0.0,0.0,0.0,0.0,0.0,0.0,0.0,0.0,0.0,0.0,0.0,0.0,0.0,0.0,0.0,0.0,0.0,0.0,0.0,0.0,0.0,0.0,0.0,0.0,0.0,0.0,0.0,0.0,0.0,0.0,0.0,0.0,0.0,0.0,0.0,0.0,0.0,0.0,0.0,0.0,0.0,0.0,0.0,0.0,0.0,0.0,0.0,0.0,0.0,0.0,0.0,0.0,0.0,0.0,0.0,0.0,0.0,0.0,0.0,0.0,0.0,0.0,0.0,0.0,0.0,0.0,0.0,0.0,0.0,0.0,0.0,0.0,0.0,0.0,0.0,0.0,0.0,0.0,0.0,0.0,0.0,0.0,0.0,0.0,0.0,0.0,0.0,0.0,0.0,0.0,0.0,0.0,0.0,0.0,0.0,0.0,0.0,0.0,0.0,0.0,0.0,0.0,0.0,0.0,0.0,0.0,0.0,0.0,0.0,0.0,0.0,0.0,0.0,0.0,0.0,0.0,0.0,0.0,0.0,0.0,0.0,0.0,0.0,0.0,0.0,0.0,0.0,0.0,0.0,0.0,0.0,0.0,0.0,0.0,0.0,0.0,0.0,0.0,0.0,0.0,0.0,0.0,0.0,0.0,0.0,0.0,0.0,0.0,0.0,0.0,0.0,0.0,0.0,0.0,0.0,0.0,0.0,0.0,0.0,0.0,0.0,0.0,0.0,0.0,0.0,0.0,0.0,0.0,0.0,0.0,0.0,0.0,0.0,0.0,0.0,0.0,0.0,0.0,0.0,0.0,0.0,0.0,0.0,0.0,0.0,0.0,0.0,0.0,0.0,0.0,0.0,0.0,0.0,0.0,0.0,0.0,0.0,0.0,0.0,0.0,0.0,0.0,0.0,0.0,0.0,0.0,0.0,0.0,0.0,0.0,0.0,0.0,0.0,0.0,0.0,0.0,0.0,0.0,0.0,0.0,0.0,0.0,0.0,0.0,0.0,0.0,0.0,0.0,0.0,0.0,0.0,0.0,0.0,0.0,0.0,0.0,0.0,0.0,0.0,0.0,0.0,0.0,0.0,0.0,0.0,0.0,0.0,0.0,0.0,0.0,0.0,0.0,0.0,0.0,0.0,0.0,0.0,0.0,0.0,0.0,0.0,0.0,0.0,0.0,0.0,0.0,0.0,0.0,0.0,0.0,0.0,0.0,0.0,0.0,0.0,0.0,0.0,0.0,0.0,0.0,0.0,0.0,0.0,0.0,0.0,0.0,0.0,0.0,0.0,0.0,0.0,0.0,0.0,0.0,0.0,0.0,0.0,0.0,0.0,0.0,0.0,0.0,0.0,0.0,0.0,0.0,0.0,0.0,0.0,0.0,0.0,0.0,0.0,0.0,0.0,0.0,0.0,0.0,0.0,0.0,0.0,0.0,0.0,0.0,0.0,0.0,0.0,0.0,0.0,0.0,0.0,0.0,0.0,0.0,0.0,0.0,0.0,0.0,0.0,0.0,0.0,0.0,0.0,0.0,0.0,0.0,0.0,0.0,0.0,0.0,0.0,0.0,0.0,0.0,0.0,0.0,0.0,0.0,0.0,0.0,0.0,0.0,0.0,0.0,0.0,0.0,0.0,0.0,0.0,0.0,0.0,0.0,0.0,0.0,0.0,0.0,0.0,0.0,0.0,0.0,0.0,0.0,0.0,0.0,0.0,0.0,0.0,0.0,0.0,0.0,0.0,0.0,0.0,0.0,0.0,0.0,0.0,0.0,0.0,0.0,0.0,0.0,0.0,0.0,0.0,0.0,0.0,0.0,0.0,0.0,0.0,0.0,0.0,0.0,0.0,0.0,0.0,0.0,0.0,0.0,0.0,0.0,0.0,0.0,0.0,0.0,0.0,0.0,0.0,0.0,0.0,0.0,0.0,0.0,0.0,0.0,0.0,0.0,0.0,0.0,0.0,0.0,0.0,0.0,0.0,0.0,0.0,0.0,0.0,0.0,0.0,0.0,0.0,0.0,0.0,0.0,0.0,0.0,0.0,0.0,0.0,0.0,0.0,0.0,0.0,0.0,0.0,0.0,0.0,0.0,0.0,0.0,0.0,0.0,0.0,0.0,0.0,0.0,0.0,0.0,0.0,0.0,0.0,0.0,0.0,0.0,0.0,0.0,0.0,0.0,0.0,0.0,0.0,0.0,0.0,0.0,0.0,0.0,0.0,0.0,0.0,0.0,0.0,0.0,0.0,0.0,0.0,0.0,0.0,0.0,0.0,0.0,0.0,0.0,0.0,0.0,0.0,-2.5636,0.0,0.0,0.0,0.0,0.0,0.0,0.0,0.0,0.0,0.0,0.0,0.0,0.0,0.0,0.0,0.0,0.0,0.0,0.0,0.0,0.0,0.0,0.0,0.0,-2.2425,-2.3001,-2.4384,-2.4765,-2.525,-2.5988,-2.6336,-2.6499,-2.6499,-2.6499,-2.6499,-2.6499,-2.6499,-2.6499,-2.6499,-2.6499,-2.6499,-2.6499,-2.6499,-2.6499,-2.6499,0.0,0.0,0.0,0.0,0.0,0.0,0.0,0.0,0.0,0.0,0.0,0.0,0.0,0.0,0.0,0.0,0.0,0.0,0.0,0.0,0.0,0.0,0.0,0.0,0.0,0.0,0.0,0.0,0.0,0.0,0.0,0.0,0.0,0.0,0.0,0.0,0.0,0.0,0.0,0.0,0.0,0.0,0.0,0.0,0.0,0.0,0.0,0.0,0.0,0.0,0.0,0.0,0.0,0.0,0.0,0.0,0.0,0.0,0.0,0.0,0.0,0.0,0.0,0.0,0.0,0.0,0.0,0.0,0.0,0.0,0.0,-2.6047,0.0,0.0,0.0,0.0,0.0,0.0,0.0,0.0,0.0,0.0,0.0,0.0,0.0,0.0,0.0,0.0,0.0,0.0,0.0,0.0,0.0,-2.3028,-2.3585,-2.3778,-2.4362,-2.5665,-2.5749,-2.5984,-2.6461,-2.6499,-2.6499,-2.6499,-2.6499,-2.6499,-2.6499,-2.6499,-2.6499,-2.6499,-2.6499,-2.6499,-2.6499,-2.6499,-2.6499,-2.6499,-2.6499,0.0,0.0,0.0,0.0,0.0,0.0,0.0,0.0,0.0,0.0,0.0,0.0,0.0,0.0,0.0,0.0,0.0,0.0,0.0,0.0,0.0,0.0,0.0,0.0,0.0,0.0,0.0,0.0,0.0,0.0,0.0,0.0,0.0,0.0,0.0,0.0,0.0,0.0,0.0,0.0,0.0,0.0,0.0,0.0,0.0,0.0,0.0,0.0,0.0,0.0,0.0,0.0,0.0,0.0,0.0,0.0,0.0,0.0,0.0,0.0,0.0,0.0,0.0,-2.8109,-2.8109,-2.8109,-2.8109,-2.8109,-2.8059,-2.7178,-2.6788,-2.6788,0.0,0.0,0.0,0.0,0.0,0.0,0.0,0.0,0.0,0.0,0.0,0.0,0.0,0.0,0.0,0.0,0.0,0.0,0.0,0.0,-2.3597,-2.4154,-2.4881,-2.5611,-2.6336,-2.6386,-2.6411,-2.6487,-2.6499,-2.6499,-2.6499,-2.6499,-2.6499,-2.6499,-2.6499,-2.6499,-2.6499,-2.6499,-2.6499,-2.6499,-2.6499,-2.6499,-2.6499,-2.6499,-2.6499,-2.6499,0.0,0.0,0.0,0.0,0.0,0.0,0.0,0.0,0.0,0.0,0.0,0.0,0.0,0.0,0.0,0.0,0.0,0.0,0.0,0.0,0.0,0.0,0.0,0.0,0.0,0.0,0.0,0.0,0.0,0.0,0.0,0.0,0.0,0.0,0.0,0.0,0.0,0.0,0.0,0.0,0.0,-2.6285,-2.6285,0.0,0.0,0.0,0.0,0.0,0.0,0.0,0.0,0.0,0.0,0.0,0.0,0.0,-2.8109,-2.8109,-2.8109,-2.8109,-2.8109,-2.8109,-2.8109,-2.8109,-2.8109,-2.8109,-2.8097,-2.7946,0.0,-2.7896,-2.7896,0.0,0.0,0.0,0.0,0.0,0.0,0.0,0.0,0.0,0.0,0.0,0.0,0.0,0.0,0.0,0.0,0.0,0.0,0.0,0.0,0.0,-2.5539,-2.5971,-2.5674,-2.6164,-2.6499,-2.6499,-2.6499,-2.6499,-2.6499,-2.6499,-2.6499,-2.6499,-2.6499,-2.6499,-2.6499,-2.6499,-2.6499,-2.6499,-2.6499,-2.6499,-2.6499,-2.6499,-2.6499,-2.6499,-2.6499,0.0,0.0,0.0,0.0,0.0,0.0,0.0,0.0,0.0,0.0,0.0,0.0,0.0,0.0,0.0,0.0,0.0,0.0,0.0,0.0,0.0,0.0,0.0,0.0,0.0,0.0,0.0,0.0,0.0,0.0,0.0,0.0,0.0,0.0,0.0,0.0,0.0,0.0,0.0,-2.66,-2.6952,-2.6952,-2.7228,-2.7482,0.0,0.0,0.0,0.0,0.0,0.0,0.0,0.0,0.0,-2.8561,-2.8888,-2.9051,-2.9051,-2.9051,-2.9051,-2.9051,-2.9051,-2.9051,-2.9051,-2.9051,-2.9051,-2.9051,-2.9051,-2.9051,-2.9013,-2.836,-2.8109,-2.8109,0.0,0.0,0.0,0.0,-2.7946,-2.7745,0.0,0.0,0.0,0.0,0.0,0.0,0.0,0.0,0.0,0.0,0.0,0.0,-2.5428,-2.606,-2.6198,-2.5441,-2.606,-2.6499,-2.6499,-2.6499,-2.6499,-2.6499,-2.6499,-2.6499,-2.6499,-2.6499,-2.6499,-2.6499,-2.6637,-2.67,-2.67,-2.6559,-2.6656,-2.6914,-2.6621,-2.6507,-2.6499,-2.6499,-2.6499,-2.6499,0.0,0.0,0.0,0.0,0.0,0.0,0.0,0.0,0.0,0.0,0.0,0.0,0.0,0.0,0.0,0.0,0.0,0.0,0.0,0.0,0.0,0.0,0.0,0.0,0.0,0.0,0.0,0.0,0.0,0.0,0.0,0.0,0.0,0.0,0.0,0.0,0.0,-2.7231,-2.7494,-2.7494,-2.7858,-2.816,0.0,0.0,0.0,0.0,0.0,0.0,-2.8536,-2.8925,-2.9113,-2.9113,-2.9704,-3.0005,-3.0005,-3.0131,-3.0206,-3.0206,-3.0206,-3.0206,-3.0206,-3.0206,-3.0206,-3.0206,-3.0206,-3.0206,-3.0118,-2.9001,-2.8536,-2.8536,-2.8536,-2.8536,-2.8536,-2.8536,-2.8448,-2.831,0.0,0.0,0.0,0.0,0.0,0.0,0.0,0.0,0.0,0.0,0.0,-2.6461,-2.6418,-2.6452,-2.6487,-2.6418,-2.6452,-2.6499,-2.6499,-2.6499,-2.6499,-2.6499,-2.6499,-2.6499,-2.6499,-2.6499,-2.6499,-2.6499,-2.7014,-2.7278,-2.7256,-2.676,-2.7027,-2.7985,-2.6952,-2.6506,-2.6499,-2.6499,-2.6499,-2.6537,-2.7065,0.0,0.0,0.0,0.0,0.0,0.0,0.0,0.0,0.0,0.0,0.0,0.0,0.0,0.0,0.0,0.0,0.0,0.0,0.0,0.0,0.0,0.0,0.0,0.0,0.0,0.0,0.0,0.0,0.0,0.0,0.0,0.0,0.0,0.0,0.0,0.0,0.0,0.0,-2.8059,-2.8084,0.0,0.0,0.0,0.0,-2.9666,-2.9704,-2.9704,-2.9704,-2.9729,-2.9741,-2.9741,-3.0281,-3.057,-3.057,-3.1072,-3.1311,-3.1311,-3.1311,-3.1311,-3.1311,-3.1311,-3.1311,-3.1311,-3.1311,-3.1311,-3.1235,-3.0156,-2.9704,-2.9704,-2.9704,-2.9704,-2.9704,-2.9704,-2.9365,-2.885,0.0,0.0,0.0,0.0,0.0,-2.599,-2.599,-2.628,-2.6499,-2.6499,-2.6499,-2.6233,-2.5629,-2.6094,-2.6245,-2.5594,-2.6129,-2.6499,-2.6499,-2.6499,-2.6499,-2.6499,-2.6499,-2.6499,-2.6499,-2.6135,-2.5901,-2.5901,-2.5781,-2.5678,-2.5689,-2.5494,-2.5612,-2.5957,-2.5574,-2.5417,-2.5485,-2.6942,-2.7519,-2.7544,-2.7733,-2.7695,0.0,0.0,0.0,0.0,0.0,0.0,0.0,0.0,0.0,0.0,0.0,0.0,0.0,0.0,0.0,0.0,0.0,0.0,0.0,0.0,0.0,0.0,0.0,0.0,0.0,0.0,0.0,0.0,0.0,0.0,0.0,0.0,0.0,0.0,0.0,0.0,0.0,-2.8599,-2.8963,0.0,-2.9465,-2.9478,-2.9566,-2.9779,-2.9792,-2.9942,-3.0306,-3.0319,-3.047,-3.0809,-3.1009,-3.111,-3.111,-3.1298,-3.1386,-3.1386,-3.1386,-3.1386,-3.1386,-3.1386,-3.1386,-3.1386,-3.1386,-3.1386,-3.1361,-3.0984,-3.0821,-3.0821,-3.0821,-3.062,-3.0319,-3.0319,-2.9967,-2.9478,0.0,0.0,0.0,-2.5335,-2.606,-2.6499,-2.6499,-2.6499,-2.6499,-2.6499,-2.6499,-2.6245,-2.5594,-2.6094,-2.6245,-2.5558,-2.6129,-2.6499,-2.6499,-2.6499,-2.6499,-2.6499,-2.6499,-2.6587,-2.6763,-2.6381,-2.6275,-2.6444,-2.6273,-2.6174,-2.6174,-2.5986,-2.6117,-2.6481,-2.6067,-2.591,-2.6027,-2.7911,-2.8226,-2.7582,-2.7755,-2.7953,-2.8122,0.0,0.0,0.0,0.0,0.0,0.0,0.0,0.0,0.0,0.0,0.0,0.0,0.0,0.0,0.0,0.0,0.0,0.0,0.0,0.0,0.0,0.0,0.0,0.0,0.0,0.0,0.0,0.0,0.0,0.0,0.0,0.0,0.0,0.0,0.0,-2.9176,-2.9176,-2.9566,-2.9867,-3.0055,-3.0068,-3.0143,-3.0319,-3.0331,-3.0482,-3.0859,-3.0871,-3.1035,-3.1386,-3.1574,-3.1675,-3.1675,-3.1863,-3.1951,-3.1951,-3.1951,-3.1951,-3.1951,-3.1951,-3.1951,-3.1951,-3.1951,-3.1951,-3.1951,-3.1951,-3.1951,-3.1926,-3.1537,-3.1185,-3.0871,-3.0871,-3.0645,-3.0331,0.0,-2.4337,-2.5335,-2.6314,-2.6499,-2.6499,-2.6499,-2.6499,-2.6499,-2.6499,-2.6499,-2.6499,-2.6499,-2.6499,-2.6499,-2.6499,-2.6499,-2.6499,-2.6499,-2.6499,-2.6499,-2.6499,-2.6512,-2.6776,-2.7268,-2.7318,-2.7546,-2.8098,-2.8562,-2.8837,-2.88,-2.8304,-2.8648,-2.9663,-2.8557,-2.8056,-2.8136,-2.9236,-2.849,-2.6593,-2.7145,-2.7673,-2.8173,0.0,0.0,0.0,0.0,0.0,0.0,0.0,0.0,0.0,0.0,0.0,0.0,0.0,0.0,0.0,0.0,0.0,0.0,0.0,0.0,0.0,0.0,0.0,0.0,0.0,0.0,0.0,0.0,0.0,0.0,0.0,0.0,0.0,-2.9792,-2.9804,-2.9817,-2.9817,-2.9829,-3.0043,-3.0583,-3.0633,-3.0846,-3.1348,-3.1386,-3.1399,-3.1411,-3.1411,-3.1424,-3.1436,-3.1964,-3.224,-3.224,-3.2817,-3.3106,-3.3149,-3.3162,-3.3174,-3.3174,-3.3174,-3.3174,-3.3174,-3.3106,-3.3106,-3.3106,-3.3124,-3.3124,-3.3011,-3.1863,-3.1436,-3.1411,-3.1411,-3.1399,-3.1386,0.0,-2.4826,-2.5335,-2.6314,-2.6499,-2.6499,-2.6499,-2.6499,-2.6499,-2.6499,-2.6499,-2.6499,-2.6499,-2.6499,-2.6499,-2.6499,-2.6499,-2.6499,-2.6499,-2.6499,-2.6499,-2.6499,-2.6876,-2.7165,-2.7281,-2.7286,-2.7348,-2.7531,-2.7277,-2.7163,-2.7174,-2.7018,-2.7087,-2.7383,-2.7087,-2.6924,-2.6964,-2.7261,-2.7502,-2.7731,-2.8707,-2.8709,-2.8213,0.0,0.0,0.0,0.0,0.0,0.0,0.0,0.0,0.0,0.0,0.0,0.0,0.0,0.0,0.0,0.0,0.0,0.0,0.0,0.0,0.0,0.0,0.0,0.0,0.0,0.0,0.0,0.0,0.0,0.0,0.0,-3.0394,-3.0256,-2.9842,-3.0131,-3.0394,-3.0394,-3.0721,-3.1009,-3.116,-3.1173,-3.1235,-3.1386,-3.1386,-3.1562,-3.1964,-3.1989,-3.2177,-3.2646,-3.2767,-3.2842,-3.2842,-3.3395,-3.3671,-3.3671,-3.4073,-3.4274,-3.4274,-3.4274,-3.4274,-3.4248,-3.3847,-3.3671,-3.3646,-3.3244,-3.3124,-3.3086,-3.2729,-3.2353,-3.1989,-3.1989,-3.1738,-3.1386,0.0,-2.5335,-2.5804,-2.6383,-2.6499,-2.6499,-2.6499,-2.6499,-2.6499,-2.6499,-2.6499,-2.6499,-2.6499,-2.6499,-2.6499,-2.6499,-2.6499,-2.6499,-2.6499,-2.6499,-2.6499,-2.6499,-2.7014,-2.7394,-2.762,-2.7852,-2.8074,-2.8344,-2.8017,-2.7879,-2.7879,-2.7879,-2.7879,-2.7879,-2.7879,-2.7626,-2.7209,-2.7678,-2.7706,-2.7574,-2.9157,-2.9404,-2.8897,-2.9534,-2.9792,-2.9792,-2.9792,-2.9578,-2.9289,-2.9289,0.0,0.0,0.0,0.0,0.0,0.0,0.0,0.0,0.0,0.0,0.0,0.0,0.0,0.0,0.0,0.0,0.0,0.0,0.0,0.0,0.0,0.0,0.0,0.0,-3.0947,-3.0834,-3.0507,-3.0733,-3.0947,-3.0947,-3.121,-3.1486,-3.1712,-3.1738,-3.1838,-3.2077,-3.2102,-3.224,-3.2554,-3.2792,-3.3068,-3.3407,-3.3646,-3.3771,-3.3771,-3.4085,-3.4248,-3.4248,-3.4562,-3.468,-3.468,-3.468,-3.468,0.0,-3.4387,-3.4248,-3.4223,-3.3897,-3.3771,0.0,0.0,0.0,0.0,0.0,-3.2365,-3.2102,-2.4969,-2.5873,-2.6499,-2.6499,-2.6499,-2.6499,-2.6499,-2.6499,-2.6499,-2.6499,-2.6499,-2.6499,-2.6499,-2.6499,-2.6499,-2.6499,-2.6499,-2.6499,-2.6499,-2.6499,-2.6499,-2.6499,-2.7077,-2.7607,-2.8097,-2.8675,-2.9277,-2.9792,-2.9792,-2.9792,-2.9792,-2.9792,-2.9792,-2.9792,-2.9792,-2.9236,-2.8347,-2.9365,-2.8673,-2.7058,-2.9,-2.9702,-2.9624,-2.9753,-2.9792,-2.9792,-2.9792,-2.9792,-2.9792,-2.9792,0.0,0.0,0.0,0.0,0.0,0.0,0.0,0.0,0.0,0.0,0.0,0.0,0.0,0.0,0.0,0.0,0.0,0.0,0.0,0.0,0.0,0.0,0.0,0.0,-3.1486,-3.1499,-3.1562,-3.1587,-3.1562,-3.1486,-3.1537,-3.1775,-3.2265,-3.2303,-3.2516,-3.3043,-3.3174,-3.3212,-3.3212,0.0,0.0,0.0,0.0,-3.468,-3.468,-3.4776,-3.4768,-3.4768,-3.4876,-3.4901,-3.4901,-3.4901,-3.4901,-3.4901,-3.4839,-3.4768,-3.4768,-3.4705,-3.468,-3.4613,-3.3583,-3.3212,-3.3156,-3.3106,-3.3124,-3.3124,-2.5838,-2.6383,-2.6499,-2.6499,-2.6499,-2.6499,-2.6499,-2.6499,-2.6499,-2.6499,-2.6499,-2.6499,-2.6499,-2.6499,-2.6499,-2.6499,-2.6499,-2.6499,-2.6499,-2.6499,-2.6499,-2.6499,-2.7419,-2.7996,-2.8109,-2.9101,-2.9679,-2.9792,-2.9792,-2.9792,-2.9792,-2.9792,-2.9792,-2.9792,-2.9792,-2.9663,-2.9495,-2.9702,-2.9546,-2.9209,-2.9624,-2.9236,-2.8518,-2.9456,-2.9792,-2.9792,-2.9792,-2.9792,-2.9792,-2.9792,-2.9792,-2.9792,-2.9792,-2.9792,0.0,0.0,0.0,0.0,0.0,0.0,0.0,0.0,0.0,0.0,0.0,0.0,0.0,0.0,0.0,0.0,0.0,0.0,0.0,-3.1976,-3.2051,-3.2215,-3.2679,-3.2797,-3.2579,-3.2102,-3.2466,-3.2792,-3.2905,-3.2918,-3.2955,-3.3111,-3.3483,-3.3746,-3.3746,-3.4261,-3.4562,-3.4562,-3.4663,-3.468,-3.468,-3.5119,-3.5345,-3.5345,0.0,0.0,-3.6091,-3.6091,-3.6091,-3.6019,-3.5579,-3.5345,-3.5307,-3.4856,-3.468,-3.4663,-3.3997,-3.3746,-3.3684,-3.3244,-3.3124,-3.3124,-2.6198,-2.6499,-2.6499,-2.6499,-2.6499,-2.6499,-2.6499,-2.6499,-2.6499,-2.6499,-2.6499,-2.6499,-2.6499,-2.6499,-2.6499,-2.6499,-2.6499,-2.6499,-2.6499,-2.6499,-2.6499,-2.6499,-2.7519,-2.8109,-2.8109,-2.9214,-2.9792,-2.9792,-2.9792,-2.9792,-2.9792,-2.9792,-2.9792,-2.9792,-2.9792,-2.9482,-2.8988,-2.9585,-2.9495,-2.8988,-2.9573,-2.9456,-2.9028,-2.9573,-2.9792,-2.9792,-2.9792,-2.9792,-2.9792,-2.9792,-2.9792,-2.9792,-2.9792,-2.9792,-2.9792,0.0,0.0,0.0,0.0,0.0,0.0,0.0,0.0,0.0,0.0,0.0,0.0,0.0,0.0,-3.18,-3.18,0.0,-3.2328,-3.2604,-3.2641,-3.2754,-3.3074,-3.3124,-3.2968,-3.2679,-3.2905,-3.3224,-3.3458,-3.3483,-3.3608,-3.3884,-3.4161,-3.4311,-3.4311,-3.4793,-3.5094,-3.5094,-3.5391,-3.5542,-3.5542,-3.5818,-3.5956,-3.5956,-3.6279,-3.6405,-3.6405,-3.6405,-3.6405,-3.6392,-3.6069,-3.5956,-3.5931,-3.5655,-3.5542,-3.5491,-3.4939,-3.4562,-3.4274,-3.3997,-3.3721,-3.3483,-2.6314,-2.6499,-2.6499,-2.6499,-2.6499,-2.6499,-2.6499,-2.6499,-2.6499,-2.6499,-2.6499,-2.6499,-2.6499,-2.6499,-2.6499,-2.6499,-2.6499,-2.6499,-2.6499,-2.6499,-2.6499,-2.6499,-2.7419,-2.7996,-2.8109,-2.9101,-2.9679,-2.9792,-2.9792,-2.9792,-2.9792,-2.9792,-2.9792,-2.9792,-2.9792,-2.9275,-2.8478,-2.9404,-2.9275,-2.8505,-2.9443,-2.9792,-2.9792,-2.9792,-2.9792,-2.9792,-2.9792,-2.9792,-2.9792,-2.9792,-2.9792,-2.9792,-2.9792,-2.9792,-2.9792,-2.9792,-2.9792,0.0,0.0,0.0,0.0,0.0,0.0,0.0,0.0,-3.1549,-3.1587,-3.17,-3.2064,-3.2378,-3.2378,-3.2767,-3.3124,-3.3124,-3.3124,-3.3124,-3.3124,-3.3124,-3.3162,-3.3219,-3.3275,-3.342,-3.3859,-3.3997,-3.4248,-3.4688,-3.4781,-3.4876,-3.4876,-3.5357,-3.5658,-3.5658,-3.6132,-3.6405,-3.6405,-3.6405,-3.6405,-3.6405,-3.6405,-3.6405,-3.6405,-3.6405,-3.6405,-3.6405,-3.6405,-3.6405,-3.6405,-3.6405,-3.6405,-3.6367,-3.5868,-3.5429,-3.5014,-3.4801,-3.4449,-3.406,-2.6314,-2.6499,-2.6499,-2.6499,-2.6499,-2.6499,-2.6499,-2.6499,-2.6499,-2.6499,-2.6499,-2.6499,-2.6499,-2.6499,-2.6499,-2.6499,-2.6499,-2.6499,-2.6499,-2.6499,-2.6499,-2.6499,-2.7077,-2.7607,-2.8097,-2.8675,-2.9277,-2.9792,-2.9792,-2.9792,-2.9792,-2.9792,-2.9792,-2.9792,-2.9792,-2.9714,-2.9624,-2.9753,-2.9714,-2.9624,-2.9753,-2.9792,-2.9792,-2.9792,-2.9792,-2.9792,-2.9792,-2.9792,-2.9792,-2.9792,-2.9792,-2.9792,-2.9792,-2.9792,-2.9792,-2.9792,-2.9792,-2.9892,-3.0394,-3.0859,-3.1235,-3.1286,-3.1298,-3.1449,0.0,-3.2127,-3.2265,-3.278,-3.2943,-3.298,-3.298,-3.3031,-3.3124,-3.3124,-3.3124,-3.3124,-3.3124,-3.3124,-3.3257,-3.3746,-3.3809,-3.3834,-3.3884,-3.4349,-3.4663,-3.4713,-3.5132,-3.5408,-3.5408,-3.5981,-3.6317,-3.6317,-3.6367,-3.6405,-3.6405,-3.6405,-3.6405,-3.6405,-3.6405,-3.6405,-3.6405,-3.6405,-3.6405,-3.6405,-3.6405,-3.6405,-3.6405,-3.6405,-3.6405,-3.6405,-3.6342,-3.6279,-3.6103,-3.5077,-3.4675,-3.4625,-2.6418,-2.6499,-2.6499,-2.6499,-2.6499,-2.6499,-2.6499,-2.6499,-2.6499,-2.6499,-2.6499,-2.6499,-2.6499,-2.6499,-2.6499,-2.6499,-2.6499,-2.6499,-2.6499,-2.6499,-2.6499,-2.6499,-2.7014,-2.7544,-2.8097,-2.8612,-2.9214,-2.9792,-2.9792,-2.9792,-2.9792,-2.9792,-2.9792,-2.9792,-2.9792,-2.9443,-2.8846,-2.9534,-2.9417,-2.8858,-2.9534,-2.9792,-2.9792,-2.9792,-2.9792,-2.9792,-2.9792,-2.9792,0.0,-2.9792,-2.9792,-2.9792,-2.9792,-2.9792,-2.9854,-3.0181,-3.0269,-3.0382,-3.0922,-3.1223,-3.1461,-3.1788,-3.1863,-3.2014,-3.2591,-3.2717,-3.278,-3.3074,-3.3124,-3.3124,-3.3124,-3.3124,-3.3124,0.0,-3.3124,-3.3124,-3.3124,-3.3357,-3.3646,-3.3872,-3.4462,-3.4806,-3.4806,-3.5019,-3.5282,-3.5655,-3.5893,-3.6019,-3.6019,-3.6279,-3.6405,-3.6405,-3.6719,-3.6883,-3.6883,-3.7161,-3.7312,-3.7312,-3.7312,-3.7149,-3.6883,-3.6883,-3.6719,-3.6405,-3.6405,-3.6405,-3.6405,-3.6405,-3.6405,-3.6405,-3.6405,-3.6405,-3.6355,-3.5889,-3.5479,-3.5157,0.0,-2.6499,-2.6499,-2.6499,-2.6499,-2.6499,-2.6499,-2.6499,-2.6499,-2.6499,-2.6499,-2.6499,-2.6499,-2.6499,-2.6499,-2.6499,-2.6499,-2.6499,-2.6499,-2.6499,-2.6499,-2.6499,-2.6876,-2.7318,-2.7871,-2.8411,-2.8988,-2.9553,-2.9716,-2.9792,-2.9792,-2.9792,-2.9792,-2.9792,-2.9792,-2.9326,-2.8636,-2.9456,-2.9326,-2.8636,-2.9456,-2.9792,-2.9792,-2.9792,-2.9792,-2.9792,-2.9792,-2.9792,-2.9792,-2.9792,-2.9792,-2.9792,-2.9792,-2.9892,-3.0093,-3.0507,-3.0821,-3.1135,-3.1524,-3.1738,-3.1951,-3.2353,-3.2453,-3.2554,-3.298,-3.3124,-3.3124,-3.3124,-3.3124,-3.3124,-3.3124,-3.3124,-3.3124,-3.3124,-3.3124,-3.3174,-3.3282,-3.3646,-3.401,-3.4324,-3.5019,-3.5558,-3.5708,-3.5768,-3.5931,-3.638,-3.6405,-3.6468,-3.6631,-3.6631,-3.6707,-3.6857,-3.7199,-3.7412,-3.7412,-3.7814,-3.8002,-3.8002,-3.8002,-3.7801,-3.7412,-3.7412,-3.7111,-3.6631,-3.6631,-3.6556,-3.6405,-3.6405,-3.6405,-3.6405,-3.6405,-3.6405,-3.6405,-3.6405,-3.6107,-3.5768,0.0,0.0,-2.6499,-2.6499,-2.6499,-2.6499,-2.6499,-2.6499,-2.6499,-2.6499,-2.6499,-2.6499,-2.6499,-2.6499,-2.6499,-2.6499,-2.6499,-2.6499,-2.6499,-2.6499,-2.6499,-2.6499,-2.6512,-2.6776,-2.7293,-2.7846,-2.8398,-2.8913,-2.9515,-2.9792,-2.9792,-2.9792,-2.9792,-2.9792,-2.9792,-2.9792,-2.9753,-2.9792,-2.9792,-2.9753,-2.9792,-2.9792,-2.9792,-2.9792,-2.9792,-2.9792,-2.9792,-2.9792,-2.9792,-2.9792,-2.9792,-2.9792,-2.9792,-3.0168,-3.0595,-3.0608,-3.1348,-3.2164,-3.2177,-3.2591,-3.3074,-3.3086,-3.3056,-3.3099,-3.3124,-3.3124,-3.3124,-3.3124,-3.3124,-3.3124,-3.3124,-3.3124,-3.3124,-3.3124,-3.3124,-3.3269,-3.3796,-3.3884,-3.4299,-3.532,-3.5483,-3.5708,0.0,-3.638,-3.6392,-3.6405,-3.6405,-3.6644,-3.7123,-3.7161,-3.74,-3.7939,-3.7977,-3.799,-3.799,-3.8002,-3.8002,-3.8002,-3.8002,-3.8002,-3.799,-3.799,-3.7676,-3.7161,-3.7161,-3.6908,-3.6405,-3.6405,-3.6405,-3.6405,-3.6405,-3.6405,-3.6405,-3.6405,-3.6405,-3.638,0.0,0.0,0.0,0.0,0.0,-2.6499,-2.6499,-2.6499,-2.6499,-2.6499,-2.6499,0.0,0.0,0.0,0.0,0.0,-2.6499,-2.6499,-2.6499,-2.6499,-2.6499,-2.6499,-2.6499,-2.6751,-2.7268,-2.7821,-2.8373,-2.8888,-2.9503,-2.9792,-2.9792,-2.9792,-2.9792,-2.9792,-2.9792,-2.9792,-2.9792,-2.9792,-2.9792,-2.9792,-2.9792,-2.9792,-2.9792,-2.9792,-2.9792,-2.9792,0.0,-2.9792,-2.9792,-2.9792,-2.9792,-2.9854,-3.0218,-3.047,-3.0758,-3.1461,-3.2202,-3.278,-3.278,-3.293,-3.3124,-3.3124,-3.3124,-3.3124,-3.3124,-3.3124,-3.3124,-3.3124,-3.3124,-3.3124,-3.3124,-3.3124,-3.3124,-3.3124,-3.3124,-3.3269,-3.3822,-3.4211,-3.468,-3.5408,-3.5868,0.0,0.0,0.0,0.0,-3.6405,-3.6744,-3.6985,-3.7174,-3.7525,-3.7814,-3.8002,-3.8379,-3.858,-3.858,-3.8944,-3.9132,-3.912,-3.8755,-3.858,-3.8567,-3.8178,-3.7902,-3.7713,-3.7337,-3.7073,-3.6872,-3.6556,-3.6405,-3.6405,-3.6405,-3.6405,-3.6405,-3.6405,-3.6405,-3.6405,0.0,0.0,0.0,0.0,0.0,0.0,0.0,0.0,0.0,0.0,0.0,0.0,0.0,0.0,0.0,0.0,0.0,-2.6499,-2.6499,-2.6499,-2.6499,-2.6499,-2.6499,-2.6663,-2.7014,-2.7532,-2.7984,-2.8348,-2.9114,-2.9478,-2.949,-2.9691,-2.9792,-2.9792,-2.9792,-2.9792,-2.9792,-2.9792,-2.9792,-2.9792,-2.9792,-2.9792,-2.9792,-2.9792,-2.9792,0.0,-2.9792,-2.9792,-2.9792,-2.9792,-2.993,-3.0143,-3.0507,-3.0871,-3.1361,-3.2265,-3.278,-3.3124,-3.3124,-3.3124,-3.3124,-3.3124,-3.3124,-3.3124,-3.3124,-3.3124,-3.3124,-3.3124,-3.3124,-3.3124,-3.3124,-3.3124,-3.3124,-3.3124,-3.3244,-3.3558,-3.411,-3.4663,-3.5169,-3.5768,-3.6144,-3.6405,0.0,0.0,0.0,-3.6707,-3.6985,-3.7362,-3.7764,-3.8115,-3.8404,-3.8605,-3.8969,-3.917,-3.917,-3.9521,-3.9697,-3.9685,-3.9333,-3.917,-3.9145,-3.8781,-3.8504,-3.8291,-3.7939,-3.7563,-3.7161,-3.6857,-3.6581,-3.6405,-3.6405,-3.6405,-3.6405,-3.6405,-3.6405,-3.6405,0.0,0.0,0.0,0.0,0.0,0.0,0.0,0.0,0.0,0.0,0.0,0.0,0.0,0.0,0.0,0.0,0.0,0.0,-2.6499,-2.6499,-2.6499,-2.6499,-2.6499,-2.6499,-2.6499,-2.704,-2.7281,-2.7281,-2.836,-2.885,-2.8863,-2.9478,-2.9741,-2.9754,-2.9779,-2.9792,-2.9792,-2.9792,-2.9792,-2.9792,-2.9792,-2.9792,-2.9792,-2.9792,-2.9792,-2.9792,-2.9792,-2.9792,-2.9792,-2.9792,-3.0181,-3.0658,-3.0683,-3.1411,-3.2365,-3.2918,-3.3124,-3.3124,-3.3124,-3.3124,-3.3124,-3.3124,-3.3124,-3.3124,-3.3124,-3.3124,-3.3124,-3.3124,-3.3124,-3.3124,-3.3124,-3.3124,-3.3124,-3.3124,-3.3533,-3.4085,-3.4605,-3.5157,-3.5696,0.0,0.0,0.0,0.0,0.0,0.0,-3.7224,0.0,-3.7739,-3.8856,-3.8944,-3.9145,-3.9672,-3.9697,-3.9697,-3.9697,-3.9697,-3.9697,-3.9697,-3.9697,-3.9697,-3.9697,-3.9697,-3.9408,-3.8957,-3.8932,-3.8316,-3.7262,-3.7211,-3.6872,-3.6455,-3.6417,-3.6405,-3.6405,-3.6405,-3.6405,-3.6405,0.0,0.0,0.0,0.0,0.0,0.0,0.0,0.0,0.0,0.0,0.0,0.0,0.0,0.0,0.0,0.0,0.0,0.0,-2.6499,-2.6499,-2.6499,-2.6499,-2.6499,-2.6499,-2.6499,-2.704,-2.7281,-2.7281,-2.7971,-2.831,-2.8335,-2.8888,-2.9151,-2.9126,-2.9603,-2.9792,-2.9792,-2.9792,-2.9792,-2.9792,-2.9792,-2.9792,-2.9792,-2.9792,-2.9792,-2.9792,-2.9792,-2.9792,-2.9792,-2.9792,-3.0419,-3.1273,-3.1675,-3.229,-3.288,-3.3031,-3.3124,-3.3124,-3.3124,-3.3124,-3.3124,-3.3124,-3.3124,-3.3124,-3.3124,-3.3124,-3.3124,-3.3124,-3.3124,-3.3124,-3.3124,-3.3124,-3.3124,-3.3124,-3.3533,0.0,-3.4605,-3.5157,0.0,-3.6342,0.0,-3.6405,-3.6405,-3.6908,0.0,0.0,-3.8191,-3.8567,-3.8906,-3.9258,-3.9546,-3.9685,-3.9697,-3.9697,-3.9697,-3.9697,-3.9697,-3.9697,-3.9697,-3.9697,-3.9697,-3.9697,-3.9622,-3.9459,-3.9044,-3.8756,-3.8429,-3.7525,-3.7098,-3.6935,-3.6568,-3.6405,-3.6405,-3.6405,-3.6405,-3.6405,0.0,0.0,0.0,0.0,0.0,0.0,0.0,0.0,0.0,0.0,0.0,0.0,0.0,0.0,0.0,0.0,0.0,0.0,0.0,-2.6499,-2.6499,-2.6499,-2.6499,-2.6499,-2.6499,-2.6801,-2.6952,-2.6952,-2.7469,-2.7745,-2.7758,-2.8561,-2.8888,-2.8913,-2.9528,-2.9792,-2.9792,-2.9792,-2.9792,0.0,0.0,-2.9792,-2.9792,-2.9792,-2.9792,-2.9792,-2.9792,-2.9942,-3.0193,-3.0419,-3.1047,-3.1851,-3.2416,-3.2817,-3.3124,-3.3124,-3.3124,-3.3124,-3.3124,-3.3124,-3.3124,-3.3124,-3.3124,-3.3124,-3.3124,-3.3124,-3.3124,-3.3124,-3.3124,-3.3316,-3.4076,-3.3797,-3.3725,-3.4448,-3.4591,0.0,-3.4994,-3.5554,-3.6019,0.0,-3.6405,0.0,-3.6744,-3.7224,-3.7776,0.0,-3.8693,-3.8981,-3.922,-3.9534,-3.9697,-3.9697,-3.9697,-3.9697,-3.9697,-3.9697,-3.9697,-3.9697,-3.9697,-3.9697,-3.9697,-3.9697,-3.9697,-3.9672,0.0,-3.9094,-3.8869,-3.8191,-3.7626,-3.7149,-3.6895,-3.6619,-3.6405,-3.6405,-3.6405,-3.6405,0.0,0.0,0.0,0.0,0.0,0.0,0.0,0.0,0.0,0.0,-2.6499,-2.6499,0.0,0.0,0.0,0.0,0.0,0.0,0.0,0.0,-2.6499,-2.6499,-2.6499,-2.6499,-2.6499,-2.6499,-2.6499,-2.6499,-2.6977,-2.7168,-2.7228,-2.8235,-2.8712,-2.8813,-2.9428,-2.9729,-2.9792,-2.9792,-2.9792,-2.9792,-2.9792,-2.9792,-2.9792,0.0,-2.9792,-2.9804,-2.988,-3.0256,-3.0796,-3.1323,-3.1813,-3.2315,-3.2893,-3.3124,-3.3124,-3.3124,-3.3124,-3.3111,-3.3283,-3.3197,-3.3111,-3.3283,-3.3313,-3.3283,-3.3111,-3.3313,-3.3428,-3.3154,-3.326,-3.3854,-3.5315,-3.4857,-3.4784,-3.6472,-3.6153,-3.5759,-3.5759,-3.61,-3.6405,-3.6405,-3.6405,-3.6619,-3.7123,-3.7688,-3.8253,-3.8831,-3.8994,-3.9195,-3.9672,-3.9697,-3.9697,-3.9697,-3.9697,-3.9697,-3.9697,-3.9697,-3.9697,-3.9697,-3.9697,-3.9697,-3.9697,-3.9697,-3.9697,-3.9697,0.0,0.0,-3.8981,-3.8957,-3.8241,-3.7287,-3.7211,-3.6895,-3.6405,-3.6405,-3.6405,-3.6405,0.0,0.0,0.0,0.0,0.0,0.0,0.0,0.0,0.0,0.0,-2.6499,-2.6499,0.0,0.0,0.0,0.0,0.0,0.0,0.0,0.0,0.0,-2.6499,-2.6499,-2.6499,-2.6499,-2.6499,-2.6499,-2.6499,-2.6587,-2.6637,-2.665,-2.7268,-2.7808,-2.8273,-2.8825,-2.934,-2.9792,-2.9792,-2.9792,-2.9792,-2.9792,-2.9792,-2.9792,-2.9792,0.0,0.0,-3.0306,-3.0809,-3.1336,-3.1888,-3.2127,-3.2315,-3.2893,-3.3124,-3.3124,-3.3124,-3.3124,-3.3283,-3.4191,-3.3797,-3.3313,-3.4191,-3.4428,-3.4191,-3.3313,-3.4415,-3.5183,-3.3471,-3.417,-3.5204,-3.555,-3.5831,-3.6432,-3.7701,-3.7377,-3.6996,-3.6996,-3.6665,-3.6405,0.0,-3.6405,-3.6619,-3.7123,-3.7688,0.0,0.0,0.0,-3.9597,-3.9685,-3.9697,-3.9697,-3.9697,-3.9697,-3.9697,-3.9697,-3.9697,-3.9697,-3.9697,-3.9697,-3.9697,-3.9697,-3.9697,-3.9697,-3.9697,-3.9697,0.0,-3.9521,-3.9057,-3.8479,-3.7814,-3.7362,-3.6895,-3.6405,-3.6405,-3.6405,-3.6405,0.0,0.0,0.0,0.0,0.0,0.0,-2.6499,-2.6499,-2.6499,-2.6499,-2.6499,-2.6499,-2.6499,-2.6499,-2.6499,0.0,0.0,0.0,0.0,0.0,0.0,-2.6499,-2.6499,-2.6499,-2.6499,-2.6499,-2.6499,-2.6499,0.0,-2.6499,-2.6512,-2.7318,-2.7846,-2.8147,-2.9001,-2.9528,-2.9792,-2.9792,-2.9792,-2.9792,-2.9792,-2.9792,-2.9792,-2.9792,0.0,0.0,-3.0419,-3.0947,-3.1474,-3.2026,-3.2768,-3.3454,-3.3182,-3.3814,-3.4609,-3.4108,-3.429,-3.4843,-3.5359,-3.5116,-3.4843,-3.5359,-3.548,-3.5359,-3.4843,-3.5494,-3.6016,-3.5365,-3.5866,-3.6769,-3.8048,-3.7522,-3.7401,-3.8832,-3.7825,-3.6831,-3.6831,-3.6591,-3.6405,-3.6405,-3.6405,-3.6732,0.0,-3.7852,0.0,0.0,0.0,-3.9697,-3.9697,-3.9697,-3.9697,-3.9697,-3.9697,-3.9697,-3.9697,-3.9697,-3.9697,-3.9697,-3.9697,-3.9697,-3.9697,-3.9697,-3.9697,-3.9697,-3.9697,0.0,-3.9672,-3.9408,-3.8969,-3.8391,-3.7826,-3.7274,-3.6807,-3.6518,-3.6405,-3.6405,0.0,0.0,0.0,0.0,0.0,0.0,-2.6499,-2.6499,-2.6499,-2.6499,-2.6499,-2.6499,-2.6499,-2.6499,-2.6499,0.0,0.0,0.0,0.0,0.0,0.0,0.0,-2.6499,-2.6499,-2.6499,0.0,0.0,-2.6499,-2.6499,0.0,0.0,0.0,0.0,0.0,-2.9164,-2.9679,-2.9792,-2.9792,-2.9792,0.0,0.0,-2.9792,-2.9792,0.0,0.0,0.0,0.0,-3.1271,-3.1993,-3.2565,-3.3925,-3.5183,-3.4108,-3.4884,-3.6053,-3.5238,-3.5588,-3.6237,-3.6487,-3.6369,-3.6251,-3.6487,-3.6526,-3.6487,-3.6237,-3.6663,-3.7097,-3.7175,-3.7602,-3.8522,-4.0438,-3.9396,-3.8744,-4.0377,-3.8649,-3.7163,-3.7163,-3.6722,-3.6405,-3.6405,-3.6405,0.0,-3.7902,0.0,0.0,0.0,0.0,0.0,-3.9697,-3.9697,-3.9697,-3.9697,-3.9697,-3.9697,-3.9697,-3.9697,-3.9697,-3.9697,-3.9697,-3.9697,-3.9697,-3.9697,-3.9697,-3.9697,-3.9697,0.0,0.0,-3.9697,-3.9371,-3.8856,-3.8228,-3.7663,-3.7123,-3.6619,-3.6405,-3.6405,0.0,0.0,0.0,0.0,0.0,0.0,-2.6499,-2.6499,-2.6499,-2.6499,-2.6499,-2.6499,-2.6499,-2.6499,-2.6499,0.0,0.0,0.0,0.0,0.0,0.0,0.0,0.0,0.0,0.0,0.0,0.0,-2.6499,-2.6499,0.0,0.0,0.0,0.0,0.0,0.0,-2.9302,-2.9792,-2.9792,0.0,0.0,0.0,0.0,0.0,0.0,0.0,0.0,0.0,-3.2278,-3.3659,-3.4263,-3.5854,-3.7319,-3.6251,-3.6053,-3.6158,-3.6093,-3.6132,-3.6408,-3.7381,-3.693,-3.6448,-3.742,-3.7663,-3.7381,-3.6408,-3.817,-3.9463,-3.758,-3.8855,-4.0385,-4.0758,-4.1029,-4.1612,-4.2805,-4.1057,-3.9593,-3.9593,-3.7736,-3.6405,-3.6405,0.0,0.0,-3.7902,0.0,0.0,0.0,0.0,0.0,-3.9697,-3.9697,-3.9697,-3.9697,-3.9697,-3.9697,-3.9697,-3.9697,-3.9697,-3.9697,-3.9697,-3.9697,-3.9697,-3.9697,-3.9697,-3.9697,-3.9697,0.0,0.0,-3.9697,-3.9371,-3.8856,-3.8228,-3.7663,-3.7123,-3.6619,-3.6405,-3.6405,0.0,0.0,0.0,0.0,0.0,0.0,-2.6499,-2.6499,-2.6499,-2.6499,-2.6499,-2.6499,-2.6499,-2.6499,-2.6499,-2.6499,-2.6499,0.0,0.0,0.0,0.0,0.0,0.0,0.0,0.0,0.0,-2.6499,-2.6499,-2.6499,0.0,0.0,0.0,0.0,0.0,0.0,0.0,-2.9792,-2.9792,0.0,0.0,0.0,0.0,0.0,0.0,0.0,0.0,0.0,0.0,-3.3111,-3.4996,-3.6146,-3.6891,-3.7098,-3.761,-3.8003,-3.7343,-3.761,-3.8219,-3.8671,-3.8457,-3.8219,-3.8671,-3.8745,-3.876,-3.8737,-3.9601,-4.0382,-4.0324,-4.1067,-4.1789,-4.2227,-4.1896,-4.1504,-4.1309,-4.0504,-3.9417,-3.7997,-3.7599,-3.715,-3.6499,-3.6405,0.0,0.0,0.0,0.0,0.0,0.0,0.0,-3.9697,-3.9697,-3.9697,-3.9697,-3.9697,-3.9697,-3.9697,-3.9697,-3.9697,-3.9697,-3.9697,-3.9697,-3.9697,-3.9697,-3.9697,-3.9697,-3.9697,0.0,0.0,-3.9697,-3.9559,-3.932,-3.8743,-3.8178,-3.7613,-3.7061,-3.6694,-3.6405,0.0,0.0,0.0,0.0,0.0,-2.6499,-2.6499,-2.6499,-2.6499,-2.6499,-2.6499,-2.6499,-2.6499,-2.6499,-2.6499,-2.6499,-2.6499,0.0,0.0,0.0,0.0,0.0,0.0,0.0,0.0,-2.6499,-2.6575,-2.6738,-2.6738,-2.7014,0.0,0.0,0.0,0.0,0.0,0.0,0.0,0.0,0.0,0.0,0.0,0.0,0.0,0.0,0.0,0.0,0.0,0.0,0.0,0.0,0.0,-3.6408,-3.7472,-3.8308,-3.8819,-3.8383,-3.8819,-3.9388,-3.9388,-3.9388,-3.9388,-3.9388,-3.9574,-3.9828,-4.0292,-4.0711,-4.125,-4.2216,-4.2545,-4.2791,-4.32,-4.2644,-4.1726,-4.0575,-4.0116,-3.9197,-3.7196,-3.7276,-3.7276,-3.6499,0.0,0.0,0.0,0.0,0.0,0.0,0.0,0.0,0.0,-3.9697,-3.9697,-3.9697,-3.9697,-3.9697,-3.9697,-3.9697,-3.9697,-3.9697,-3.9697,-3.9697,-3.9697,-3.9697,-3.9697,-3.9697,0.0,0.0,0.0,-3.9697,-3.9697,-3.9634,-3.9082,-3.8517,-3.7939,-3.7387,-3.6835,-3.6405,0.0,0.0,0.0,0.0,0.0,-2.6499,-2.6499,-2.6499,-2.6499,-2.6499,-2.6499,-2.6499,-2.6499,-2.6499,-2.6499,-2.6499,-2.6499,0.0,0.0,0.0,0.0,-2.6499,-2.6499,-2.6499,-2.6499,-2.6499,-2.6763,-2.7268,-2.7268,-2.7557,-2.8109,-2.8624,-2.8888,-2.8913,0.0,0.0,0.0,0.0,-2.9792,0.0,0.0,0.0,-2.9854,0.0,0.0,0.0,0.0,0.0,0.0,0.0,0.0,0.0,0.0,-3.7791,-3.8032,-3.9068,-3.9388,-3.9388,-3.9388,-3.9388,-3.9388,-3.9388,-3.9903,-4.0382,-4.0397,-4.1452,-4.2381,-4.2396,-4.2865,-4.329,-4.329,-4.329,-4.29,-4.1767,-4.0618,-3.9448,-3.8243,-3.7103,-3.6405,0.0,0.0,0.0,0.0,0.0,0.0,0.0,0.0,0.0,0.0,-3.9697,-3.9697,-3.9697,-3.9697,-3.9697,-3.9697,-3.9697,-3.9697,-3.9697,-3.9697,-3.9697,-3.9697,-3.9697,-3.9697,0.0,0.0,0.0,0.0,-3.9697,-3.9697,-3.9634,-3.9082,-3.8517,-3.7939,-3.7387,-3.6835,-3.6405,0.0,0.0,0.0,0.0,0.0,0.0,-2.5581,-2.5476,-2.5476,-2.5476,-2.5476,-2.5734,-2.6418,-2.6499,-2.6499,-2.6499,-2.6499,0.0,0.0,0.0,-2.6499,-2.6499,-2.6499,-2.6499,-2.6499,-2.6864,-2.714,-2.7281,-2.7657,-2.8134,-2.8637,-2.8813,-2.9139,-2.9528,-2.9716,-2.9792,0.0,-2.9792,-2.9792,0.0,0.0,-3.0018,-3.0382,0.0,0.0,0.0,0.0,0.0,0.0,0.0,0.0,0.0,0.0,0.0,0.0,-3.842,-3.8819,-3.9388,-3.9388,-3.9388,-3.9493,-3.9978,-4.0247,-4.0636,-4.1572,-4.2111,-4.253,-4.294,-4.3155,-4.329,-4.329,-4.2684,-4.2029,-4.167,-4.0661,-3.9492,-3.8289,-3.7802,0.0,-3.6499,-3.7186,0.0,0.0,0.0,0.0,0.0,0.0,0.0,0.0,-3.9697,-3.9697,-3.9697,-3.9697,-3.9697,-3.9697,-3.9697,-3.9697,-3.9697,-3.9697,-3.9697,-3.9697,-3.9697,0.0,0.0,0.0,0.0,0.0,-3.9697,-3.9697,-3.9672,-3.9496,-3.8843,-3.799,-3.7814,-3.7161,-3.6405,0.0,0.0,0.0,0.0,0.0,0.0,-2.4528,-2.4743,-2.5004,-2.5004,-2.5335,-2.5804,-2.6418,-2.6499,-2.6499,-2.6499,-2.6499,0.0,0.0,-2.6499,-2.6499,-2.6499,-2.6688,-2.6801,-2.6801,-2.7341,-2.7695,-2.7896,-2.8247,-2.8699,-2.9252,-2.9252,-2.9453,-2.9792,-2.9792,-2.9792,0.0,-2.9792,-2.9792,-2.9817,-3.0018,-3.0306,-3.0658,0.0,0.0,0.0,0.0,0.0,0.0,0.0,0.0,0.0,0.0,0.0,0.0,0.0,-3.8546,-3.9388,-3.9388,-3.9388,-3.9574,-4.0232,-4.0591,-4.1055,-4.2156,-4.259,-4.2851,-4.32,-4.329,-4.329,-4.329,-4.2725,-4.2111,-4.167,-4.1,-3.9958,-3.8334,-3.8107,0.0,-3.7114,0.0,0.0,0.0,0.0,0.0,0.0,0.0,0.0,0.0,-3.9697,-3.9697,-3.9697,-3.9697,-3.9697,-3.9697,-3.9697,-3.9697,-3.9697,-3.9697,-3.9697,-3.9697,-3.9697,0.0,0.0,0.0,0.0,0.0,-3.9697,-3.9697,-3.9697,-3.9697,-3.9007,-3.8002,-3.8002,-3.7312,-3.6405,0.0,0.0,0.0,0.0,0.0,0.0,0.0,-2.4301,-2.4933,-2.4981,-2.5804,-2.6418,-2.6499,-2.6499,-2.6499,-2.6499,-2.6499,0.0,-2.6549,-2.6512,-2.6512,-2.6549,-2.704,-2.7341,-2.7379,-2.7883,-2.8411,-2.8888,-2.8938,-2.9264,-2.9792,-2.9792,-2.9792,-2.9792,-2.9792,-2.9792,-2.9792,-2.9792,-2.9817,-2.9892,-3.0407,-3.0658,0.0,0.0,0.0,0.0,0.0,0.0,0.0,0.0,0.0,0.0,0.0,0.0,0.0,0.0,0.0,0.0,0.0,-3.9412,-3.9649,-4.0307,-4.0965,-4.1662,-4.2321,-4.2895,0.0,-4.329,-4.329,-4.329,-4.329,-4.325,-4.282,-4.1767,-4.1545,-4.0675,-3.8411,-3.8017,0.0,0.0,0.0,0.0,0.0,0.0,0.0,0.0,0.0,0.0,0.0,-3.9697,-3.9697,-3.9697,-3.9697,-3.9697,-3.9697,-3.9697,-3.9697,-3.9697,-3.9697,-3.9697,-3.9697,-3.9697,0.0,0.0,0.0,0.0,0.0,-3.9697,-3.9697,-3.9697,-3.9697,-3.9007,-3.8002,-3.8002,-3.7312,-3.6405,0.0,0.0,0.0,0.0,0.0,0.0,0.0,0.0,0.0,0.0,-2.5194,-2.5664,-2.6418,-2.6499,-2.6499,0.0,0.0,-2.6675,-2.7102,-2.6725,-2.6688,-2.7102,-2.7218,-2.7482,-2.7896,-2.8448,-2.8762,-2.8888,-2.9365,-2.9666,-2.9792,-2.9792,-2.9792,-2.9792,-2.9792,-2.9792,-2.9792,-2.9792,-3.0043,-3.0432,-3.057,-3.111,0.0,0.0,0.0,0.0,-3.3074,-3.3124,0.0,0.0,0.0,0.0,0.0,0.0,0.0,0.0,-3.7343,-3.8298,-3.8815,0.0,-4.0337,-4.0995,-4.1692,-4.2351,0.0,-4.3185,-4.329,-4.329,-4.329,-4.329,-4.329,-4.2589,-4.1891,-4.1629,-4.0873,-3.9784,-3.8289,0.0,0.0,0.0,0.0,0.0,0.0,0.0,0.0,0.0,0.0,0.0,0.0,-3.9697,-3.9697,-3.9697,-3.9697,-3.9697,-3.9697,-3.9697,-3.9697,-3.9697,-3.9697,-3.9697,-3.9697,-3.9697,0.0,0.0,0.0,0.0,-3.9697,-3.9697,-3.9697,-3.9697,-3.9697,-3.9007,-3.8002,-3.8002,-3.7312,-3.6405,0.0,0.0,0.0,0.0,0.0,0.0,0.0,0.0,0.0,0.0,-2.5406,-2.5908,-2.6452,-2.6499,-2.6499,0.0,0.0,-2.7002,-2.7268,-2.7278,-2.7344,-2.7645,-2.7896,-2.8185,-2.8473,-2.9038,-2.9327,-2.9327,-2.9641,-2.9792,-2.9792,-2.9792,-2.9792,-2.9792,-2.9792,-2.993,-3.0168,-3.0168,-3.0482,-3.0997,-3.1248,0.0,0.0,0.0,0.0,0.0,-3.3124,-3.3124,0.0,-3.3124,-3.3797,-3.4622,0.0,0.0,0.0,0.0,-3.6814,-3.766,-3.8523,-3.9551,-4.0621,-4.1632,-4.2141,-4.2575,-4.314,-4.329,-4.329,-4.329,-4.329,-4.329,-4.329,-4.2371,-4.1767,-4.229,-4.0958,-3.9492,0.0,0.0,0.0,0.0,0.0,0.0,0.0,0.0,0.0,0.0,0.0,0.0,0.0,-3.9697,-3.9697,-3.9697,-3.9697,-3.9697,-3.9697,-3.9697,-3.9697,-3.9697,-3.9697,-3.9697,-3.9697,-3.9697,-3.9697,0.0,0.0,0.0,-3.9697,-3.9697,-3.9697,-3.9697,-3.9697,-3.9007,-3.8002,-3.8002,-3.7312,-3.6405,0.0,0.0,0.0,0.0,0.0,0.0,0.0,0.0,0.0,0.0,0.0,0.0,0.0,0.0,0.0,0.0,-2.7128,-2.7444,-2.7532,-2.7971,-2.8273,-2.836,-2.8725,-2.8938,-2.9026,-2.9541,-2.9792,-2.9792,-2.9792,-2.9792,-2.9792,-2.9792,-2.9792,-2.9792,-2.988,-3.0181,-3.062,-3.0708,-3.1035,-3.1549,-3.2026,0.0,0.0,0.0,0.0,0.0,0.0,0.0,0.0,-3.3124,-3.3713,-3.4304,-3.3598,0.0,0.0,0.0,0.0,0.0,-3.8192,-3.93,-4.0482,-4.1787,-4.2339,-4.2656,-4.317,-4.329,-4.329,-4.329,-4.329,-4.329,-4.329,-4.2508,-4.2111,-4.29,-4.1141,0.0,-3.8243,0.0,0.0,0.0,0.0,0.0,0.0,0.0,0.0,0.0,0.0,0.0,0.0,-3.9697,-3.9697,-3.9697,-3.9697,-3.9697,-3.9697,-3.9697,-3.9697,-3.9697,-3.9697,-3.9697,-3.9697,-3.9697,-3.9697,0.0,0.0,0.0,-3.9697,-3.9697,-3.9697,-3.9697,-3.9697,-3.9007,-3.8002,-3.8002,-3.7312,-3.6405,0.0,0.0,0.0,0.0,0.0,0.0,0.0,0.0,0.0,0.0,0.0,0.0,0.0,0.0,0.0,0.0,-2.7657,-2.8185,-2.8612,-2.8712,-2.9026,-2.9515,-2.9151,-2.9126,-2.9641,-2.9741,-2.9792,-2.9792,-2.9792,-2.9792,-2.9792,-2.9792,-2.9792,-2.9817,-3.0281,-3.0532,-3.0645,-3.1085,-3.1587,-3.2089,-3.2177,0.0,0.0,0.0,0.0,0.0,0.0,0.0,0.0,-3.3124,-3.3197,-3.3471,-3.4233,0.0,0.0,0.0,0.0,0.0,-3.7173,-3.8288,-3.9395,-4.0593,-4.2044,-4.317,-4.3275,-4.329,-4.329,-4.329,-4.329,-4.329,-4.329,-4.3155,-4.2765,-4.1988,0.0,-3.8289,0.0,0.0,0.0,0.0,0.0,0.0,0.0,0.0,0.0,0.0,0.0,0.0,0.0,-3.9697,-3.9697,-3.9697,-3.9697,-3.9697,-3.9697,-3.9697,-3.9697,-3.9697,-3.9697,-3.9697,-3.9697,-3.9697,-3.9697,-3.9697,0.0,-3.9697,-3.9697,-3.9697,-3.9697,-3.9697,-3.9697,-3.9007,-3.8002,-3.8002,-3.7312,-3.6405,0.0,0.0,0.0,0.0,0.0,0.0,0.0,0.0,0.0,0.0,0.0,0.0,0.0,0.0,0.0,0.0,-2.8235,-2.8624,-2.8875,-2.9227,-2.9515,-2.9779,-2.9528,-2.9515,-2.9779,-2.9792,-2.9792,-2.9792,-2.9792,-2.9792,-2.9804,-3.0093,-3.0231,-3.0269,-3.0796,-3.1198,-3.1486,-3.1738,-3.2164,-3.2679,0.0,0.0,0.0,0.0,0.0,0.0,0.0,0.0,0.0,0.0,-3.3124,-3.3197,-3.367,0.0,0.0,0.0,0.0,0.0,-3.6883,-3.7816,-3.8573,-3.9127,-4.035,-4.1796,-4.3036,-4.2805,-4.2548,-4.3155,-4.329,-4.3115,-4.2508,-4.1864,-4.0873,-3.9067,0.0,0.0,0.0,0.0,0.0,0.0,0.0,0.0,0.0,0.0,0.0,0.0,0.0,0.0,0.0,0.0,-3.9697,-3.9697,-3.9697,-3.9697,-3.9697,-3.9697,-3.9697,-3.9697,-3.9697,-3.9697,-3.9697,-3.9697,-3.9697,-3.9697,0.0,-3.9697,-3.9697,-3.9697,-3.9697,-3.9697,-3.9697,-3.9007,-3.7939,-3.7337,-3.6845,-3.6405,0.0,0.0,0.0,0.0,0.0,0.0,0.0,0.0,0.0,0.0,0.0,0.0,0.0,0.0,0.0,0.0,-2.8775,-2.9126,-2.9126,-2.9541,-2.9792,-2.9792,-2.9792,-2.9792,-2.9792,-2.9792,-2.9792,-2.9792,-2.9792,-2.9854,-2.9993,-3.0545,-3.0796,-3.0821,-3.1348,-3.1813,-3.2227,-3.2353,-3.2667,-3.3124,0.0,0.0,0.0,0.0,0.0,0.0,0.0,0.0,0.0,0.0,0.0,0.0,0.0,0.0,0.0,-3.524,-3.5513,-3.5693,-3.6683,-3.7293,-3.7756,-3.8017,-3.9214,-4.0717,-4.2167,-4.2029,-4.1767,-4.2386,-4.2508,-4.2345,-4.1726,-4.0873,0.0,-3.7196,-3.754,0.0,0.0,0.0,0.0,0.0,0.0,0.0,0.0,0.0,0.0,0.0,0.0,0.0,0.0,0.0,-3.9697,-3.9697,-3.9697,-3.9697,-3.9697,-3.9697,-3.9697,-3.9697,-3.9697,-3.9697,-3.9697,-3.9697,-3.9697,-3.9697,-3.9697,-3.9697,-3.9697,-3.9697,-3.9697,-3.9697,-3.9697,-3.9007,-3.7877,-3.682,-3.6405,-3.6405,0.0,0.0,0.0,0.0,0.0,0.0,0.0,0.0,0.0,0.0,0.0,0.0,0.0,0.0,-2.7801,-2.875,-2.9402,-2.9729,-2.9729,-2.9767,-2.9792,-2.9792,-2.9792,-2.9792,-2.9792,-2.9792,-2.9792,-2.9792,-2.9792,-3.0055,-3.057,-3.1085,-3.1336,-3.1361,-3.1901,-3.2177,-3.2252,-3.278,-3.3043,-3.3124,-3.3124,0.0,0.0,0.0,0.0,0.0,0.0,0.0,0.0,0.0,0.0,0.0,0.0,0.0,-3.4763,-3.5311,-3.5525,-3.5655,-3.6298,-3.6508,-3.6803,-3.7848,-3.98,-4.1253,-4.0375,-4.0916,-4.1337,-4.0375,-4.0159,-4.0447,-4.142,-4.1545,-4.0718,-3.8366,-3.8062,0.0,0.0,0.0,0.0,0.0,0.0,0.0,0.0,0.0,0.0,0.0,0.0,0.0,0.0,0.0,0.0,-3.9697,-3.9697,-3.9697,-3.9697,-3.9697,-3.9697,-3.9697,-3.9697,-3.9697,-3.9697,-3.9697,-3.9697,-3.9697,-3.9697,-3.9697,-3.9697,-3.9697,-3.9697,-3.9697,-3.9697,-3.9007,-3.7877,-3.682,-3.6405,-3.6405,0.0,0.0,0.0,0.0,0.0,0.0,0.0,0.0,0.0,0.0,0.0,-2.4602,-2.6368,0.0,-2.8307,-2.9376,-2.9666,-2.9792,-2.9792,-2.9792,-2.9792,-2.9792,-2.9792,-2.9792,-2.9792,-2.9792,-2.9955,-3.0306,-3.0633,-3.0896,-3.111,-3.165,-3.1901,-3.1926,-3.2491,-3.2754,-3.2767,-3.298,-3.3124,-3.3124,-3.3124,-3.3124,0.0,0.0,0.0,0.0,0.0,0.0,0.0,0.0,-3.3721,-3.396,-3.4299,-3.4788,-3.5232,-3.5445,-3.5793,-3.6094,-3.6355,-3.6405,-3.6499,-3.693,-3.8243,-3.9508,-3.9855,-3.9653,-3.9508,-3.9842,-3.9899,-4.0029,-4.0447,-3.9346,-3.8334,-3.8107,0.0,0.0,0.0,0.0,0.0,0.0,0.0,0.0,0.0,0.0,0.0,0.0,0.0,0.0,0.0,0.0,0.0,-3.9697,-3.9697,-3.9697,-3.9697,-3.9697,-3.9697,-3.9697,-3.9697,-3.9697,-3.9697,-3.9697,-3.9697,-3.9697,-3.9697,-3.9697,-3.9697,-3.9697,-3.9697,-3.9622,-3.8919,-3.8178,-3.74,-3.6681,-3.6405,-3.6405,0.0,0.0,0.0,0.0,0.0,0.0,0.0,0.0,-2.3442,0.0,0.0,0.0,0.0,-2.8261,-2.8937,0.0,-2.9792,-2.9792,-2.9792,-2.9792,-2.9792,-2.9792,-2.9955,-3.0055,-3.0055,-3.0218,-3.0394,-3.062,-3.1311,-3.165,-3.1662,-3.2215,-3.2491,-3.2503,-3.2905,-3.3124,-3.3124,-3.3124,-3.3124,-3.3124,-3.3124,-3.3124,0.0,0.0,0.0,0.0,0.0,0.0,0.0,0.0,-3.4274,-3.4487,-3.4818,-3.5366,-3.5805,-3.5805,-3.6069,-3.6405,-3.6405,-3.6405,-3.6405,-3.6405,-3.6977,-3.7769,-3.8617,-3.8424,-3.8243,-3.8707,-3.9108,-3.9227,-3.8841,-3.7769,0.0,0.0,0.0,0.0,0.0,0.0,0.0,0.0,0.0,0.0,0.0,0.0,0.0,0.0,0.0,0.0,0.0,0.0,0.0,0.0,-3.9697,-3.9697,-3.9697,-3.9697,-3.9697,-3.9697,-3.9697,-3.9697,-3.9697,-3.9697,-3.9697,-3.9697,-3.9697,-3.9697,-3.9697,-3.9697,-3.9597,-3.932,-3.8191,-3.7513,-3.7123,-3.6619,-3.6405,-3.6405,0.0,0.0,0.0,0.0,0.0,0.0,0.0,0.0,-2.5952,-2.6457,-2.7441,0.0,0.0,0.0,0.0,0.0,-2.9792,-2.9792,-2.9792,-2.9792,-2.9792,-2.9804,-3.0331,-3.062,-3.062,-3.1135,-3.1148,-3.0633,-3.17,-3.2227,-3.2227,-3.2805,-3.3124,-3.3124,-3.3124,-3.3124,-3.3124,-3.3124,-3.3124,-3.3124,-3.3124,-3.3124,-3.3124,0.0,0.0,0.0,0.0,0.0,0.0,0.0,-3.5044,-3.5495,-3.5508,-3.5931,-3.6405,-3.6405,-3.6405,-3.6405,-3.6405,-3.6405,-3.6405,-3.6405,-3.6405,-3.6405,-3.6405,-3.7276,-3.7756,-3.6628,-3.7276,-3.7756,-3.6628,-3.7335,0.0,0.0,0.0,0.0,0.0,0.0,0.0,0.0,0.0,0.0,0.0,0.0,0.0,0.0,0.0,0.0,0.0,0.0,0.0,0.0,-3.9697,-3.9697,-3.9697,-3.9697,-3.9697,-3.9697,-3.9697,-3.9697,-3.9697,-3.9697,-3.9697,-3.9697,-3.9697,-3.9697,-3.9697,-3.9685,-3.9358,-3.8793,-3.7626,-3.7186,-3.7111,-3.6606,-3.6405,-3.6405,0.0,0.0,0.0,0.0,0.0,0.0,0.0,0.0,-2.6345,-2.6502,-2.7441,0.0,0.0,0.0,0.0,0.0,0.0,-2.9792,-2.9792,-2.9792,-2.9967,-3.0357,-3.0532,-3.0783,-3.1148,-3.1687,-3.1888,-3.1738,-3.2466,-3.2817,-3.283,-3.3006,-3.3124,-3.3124,-3.3124,-3.3124,-3.3124,-3.3124,-3.3124,-3.3124,-3.3124,-3.3124,-3.3162,0.0,0.0,0.0,0.0,0.0,0.0,0.0,0.0,0.0,-3.5994,-3.6279,-3.6405,-3.6405,-3.6405,-3.6405,-3.6405,-3.6405,-3.6405,-3.6405,-3.6405,-3.6405,-3.6405,-3.6675,-3.6803,-3.6452,-3.6675,-3.707,-3.7494,-3.7518,0.0,0.0,0.0,0.0,0.0,0.0,0.0,0.0,0.0,0.0,0.0,0.0,0.0,0.0,0.0,0.0,0.0,-3.9697,-3.9697,-3.9697,-3.9697,-3.9697,-3.9697,-3.9697,-3.9697,-3.9697,-3.9697,-3.9697,-3.9697,-3.9697,-3.9697,-3.9697,-3.9697,-3.9697,-3.9659,-3.927,-3.8542,-3.7651,-3.7312,-3.6996,-3.6631,-3.6468,-3.6405,-3.6405,0.0,0.0,0.0,0.0,0.0,0.0,-2.6232,-2.7075,-2.7799,-2.7799,-2.8359,-2.9028,0.0,0.0,0.0,-2.9792,-2.9792,-2.988,-3.0105,-3.0118,-3.0357,-3.0896,-3.1135,-3.1499,-3.2051,-3.239,-3.2554,-3.2554,-3.2905,-3.3124,-3.3124,-3.3124,-3.3124,-3.3124,-3.3124,-3.3124,-3.3124,-3.3124,-3.3124,-3.3136,-3.3319,-3.3407,-3.347,0.0,0.0,0.0,0.0,0.0,0.0,0.0,0.0,0.0,-3.6304,-3.6405,-3.6405,-3.6405,-3.6405,-3.6405,-3.6405,-3.6405,-3.6405,-3.6405,-3.6405,-3.6405,-3.6405,-3.6405,-3.6405,-3.6405,-3.6405,-3.6691,-3.7573,-3.7448,0.0,0.0,0.0,0.0,0.0,0.0,0.0,0.0,0.0,0.0,0.0,0.0,0.0,0.0,0.0,0.0,0.0,-3.9697,-3.9697,-3.9697,-3.9697,-3.9697,-3.9697,-3.9697,-3.9697,-3.9697,-3.9697,-3.9697,-3.9697,-3.9697,-3.9697,-3.9685,-3.9459,-3.9371,-3.9308,-3.8517,-3.7801,-3.7161,-3.6996,-3.6707,-3.6405,-3.6405,-3.6405,-3.6405,0.0,0.0,-2.542,-2.6472,0.0,0.0,-2.8136,-2.8976,-2.9663,-2.9663,-2.9663,-2.9663,0.0,0.0,0.0,-2.9867,-2.9917,-3.0143,-3.0658,-3.0683,-3.0922,-3.1436,-3.1989,-3.2541,-3.3111,-3.3124,-3.3124,-3.3124,-3.3124,-3.3124,-3.3124,-3.3124,-3.3124,-3.3124,-3.3124,-3.3124,-3.3124,-3.3124,-3.3106,-3.3237,-3.3696,-3.3935,-3.4035,-3.4587,0.0,0.0,0.0,0.0,0.0,0.0,0.0,0.0,-3.6405,-3.6405,-3.6405,-3.6405,-3.6405,-3.6405,-3.6405,-3.6405,-3.6405,-3.6405,-3.6405,-3.6417,-3.6468,-3.648,-3.648,-3.648,-3.648,-3.6656,-3.7161,-3.7299,0.0,0.0,0.0,0.0,0.0,0.0,0.0,0.0,0.0,0.0,0.0,0.0,0.0,0.0,0.0,0.0,0.0,-3.9697,-3.9697,-3.9697,-3.9697,-3.9697,-3.9697,-3.9697,-3.9697,-3.9697,-3.9697,-3.9697,-3.9697,-3.9697,-3.9672,-3.9584,-3.9082,-3.8856,-3.868,-3.7613,-3.7149,-3.7061,-3.6606,-3.6405,-3.6405,-3.6405,-3.6405,-3.6405,0.0,0.0,-2.747,-2.7723,0.0,0.0,-2.8255,-2.8307,-2.8466,-2.8466,-2.8466,-2.8806,-2.9702,-3.0181,0.0,-3.0432,-3.0809,-3.1097,-3.1223,-3.1223,-3.1474,-3.2014,-3.2591,-3.2955,-3.3124,-3.3124,-3.3124,-3.3124,-3.3124,-3.3124,-3.3124,-3.3124,-3.3124,-3.3124,-3.3124,-3.3124,-3.3124,-3.3124,-3.3319,-3.3734,-3.3847,-3.4161,-3.4613,-3.5107,-3.532,0.0,0.0,0.0,0.0,0.0,0.0,0.0,-3.6405,-3.6405,-3.6405,-3.6405,-3.6405,-3.6405,-3.6405,-3.6405,-3.6405,-3.6405,-3.6405,-3.6518,-3.6958,-3.7059,-3.7059,-3.7059,-3.7059,-3.7174,-3.7726,0.0,0.0,0.0,0.0,0.0,0.0,0.0,0.0,0.0,0.0,0.0,0.0,0.0,0.0,0.0,0.0,0.0,-3.9697,-3.9697,-3.9697,-3.9697,-3.9697,-3.9697,-3.9697,-3.9697,-3.9697,0.0,-3.9697,-3.9697,-3.9697,-3.9697,-3.9459,-3.9095,-3.8969,-3.8416,-3.7525,-3.7287,-3.6923,-3.6568,-3.6455,-3.6405,-3.6405,-3.6405,-3.6405,-3.6405,0.0,0.0,0.0,0.0,0.0,0.0,0.0,0.0,-2.8307,-2.8858,-2.9117,-2.9539,-3.0102,-3.067,0.0,0.0,-3.1235,-3.1499,-3.1763,-3.1788,-3.2039,-3.2604,-3.2918,-3.3124,-3.3124,-3.3124,-3.3124,-3.3124,-3.3124,-3.3124,-3.3124,-3.3124,-3.3124,-3.3124,-3.3124,-3.3219,-3.347,-3.347,-3.3796,-3.4324,-3.4575,-3.4818,-3.5132,-3.573,-3.5931,-3.5968,-3.6304,0.0,0.0,0.0,0.0,0.0,0.0,0.0,-3.6405,-3.6405,-3.6405,-3.6405,-3.6405,-3.6405,-3.6468,-3.6732,-3.7008,-3.7224,-3.7513,-3.7575,-3.7651,-3.7927,-3.7764,-3.7751,0.0,0.0,0.0,0.0,0.0,0.0,0.0,0.0,0.0,0.0,0.0,0.0,0.0,0.0,0.0,0.0,0.0,-3.9697,-3.9697,-3.9697,-3.9697,-3.9697,-3.9697,-3.9697,-3.9697,-3.9697,-3.9697,-3.9697,-3.9697,-3.9559,-3.9295,-3.9295,-3.9145,-3.8894,-3.8291,-3.7726,-3.7161,-3.6945,-3.6669,-3.6405,-3.6405,-3.6405,-3.6405,-3.6405,-3.6405,-3.6405,0.0,0.0,0.0,0.0,0.0,0.0,0.0,0.0,0.0,-2.9925,-3.0298,-3.0545,-3.0706,-3.1223,-3.1537,0.0,0.0,0.0,-3.234,-3.2365,-3.2579,-3.3056,-3.3124,-3.3124,-3.3124,-3.3124,-3.3124,-3.3124,-3.3124,-3.3124,-3.3124,-3.3124,-3.3124,-3.3081,-3.3224,-3.347,-3.3909,-3.3997,-3.4361,-3.4856,-3.532,-3.5558,-3.5683,-3.6194,-3.6405,-3.6405,-3.6405,-3.6405,-3.6405,-3.6405,0.0,0.0,0.0,0.0,-3.6556,-3.6556,-3.6619,-3.6694,-3.6694,-3.6694,-3.6807,-3.7211,-3.7663,-3.804,-3.814,-3.8153,-3.8316,-3.8944,-3.8555,0.0,0.0,0.0,0.0,0.0,0.0,0.0,0.0,0.0,0.0,0.0,0.0,0.0,0.0,0.0,0.0,0.0,0.0,-3.9697,-3.9697,-3.9697,-3.9697,-3.9697,-3.9697,-3.9697,-3.9697,-3.9697,-3.9697,-3.9697,-3.9597,-3.932,-3.8906,-3.8718,-3.863,-3.858,-3.7588,-3.7123,-3.7059,-3.6593,-3.6405,-3.6405,-3.6405,-3.6405,-3.6405,-3.6405,-3.6405,-3.6405,0.0,0.0,0.0,0.0,0.0,0.0,0.0,0.0,0.0,0.0,-3.0433,-3.0262,-3.1204,-3.1775,-3.2102,-3.2102,-3.2566,-3.288,-3.2998,0.0,0.0,-3.3124,-3.3124,-3.3124,-3.3124,-3.3124,-3.3124,-3.3124,-3.3124,-3.3124,-3.3124,-3.3124,-3.3124,-3.3106,-3.3583,-3.3834,-3.3935,-3.4412,-3.4881,-3.5395,-3.547,-3.583,-3.6304,-3.638,-3.6405,-3.6405,-3.6405,-3.6405,-3.6405,-3.6405,-3.6405,0.0,0.0,0.0,-3.7073,-3.7073,-3.7412,-3.7789,-3.7789,-3.7789,-3.7801,-3.7877,-3.7952,-3.814,-3.8642,-3.8755,-3.8919,0.0,-3.9145,0.0,0.0,0.0,0.0,0.0,0.0,0.0,0.0,0.0,0.0,0.0,0.0,0.0,0.0,0.0,0.0,0.0,-3.9697,-3.9697,-3.9697,-3.9697,-3.9697,-3.9697,-3.9697,-3.9697,-3.9697,-3.9697,-3.9697,-3.9685,-3.9207,-3.8994,-3.8894,-3.7864,-3.7412,-3.74,-3.7249,-3.6958,-3.6518,-3.6443,-3.6405,-3.6405,-3.6405,-3.6405,-3.6405,-3.6405,-3.6405,-3.6405,0.0,0.0,0.0,0.0,0.0,0.0,0.0,0.0,0.0,0.0,0.0,-3.1326,-3.1809,-3.2353,-3.2692,-3.2692,-3.293,-3.3124,-3.3124,-3.3124,-3.3124,-3.3124,-3.3124,-3.3124,-3.3124,-3.3124,-3.3124,-3.3124,-3.3124,-3.3124,-3.3124,-3.3395,-3.3533,-3.3545,-3.3796,-3.4248,-3.4793,-3.5044,-3.5504,-3.5994,-3.5994,-3.6144,-3.6405,-3.6405,-3.6405,-3.6455,-3.6757,-3.687,-3.6872,-3.7174,-3.7287,-3.7287,-3.7287,0.0,0.0,0.0,-3.7814,-3.8002,-3.8002,-3.8241,-3.8492,-3.8492,-3.8718,-3.9019,-3.927,-3.9333,-3.9396,-3.9647,0.0,0.0,0.0,0.0,0.0,0.0,0.0,0.0,0.0,0.0,0.0,0.0,0.0,0.0,0.0,0.0,0.0,0.0,-3.9697,-3.9697,-3.9697,-3.9697,-3.9697,-3.9697,-3.9697,-3.9697,-3.9697,-3.9697,-3.9534,-3.922,-3.8655,-3.8228,-3.7914,-3.7412,-3.7186,-3.7161,-3.6908,-3.6631,-3.6405,-3.6405,-3.6405,-3.6405,-3.6405,-3.6405,-3.6405,-3.6405,-3.6405,-3.6405,0.0,0.0,0.0,0.0,0.0,0.0,0.0,0.0,0.0,0.0,0.0,-3.2428,-3.2428,0.0,0.0,0.0,-3.3124,-3.3124,-3.3124,-3.3124,-3.3124,-3.3124,-3.3124,-3.3124,-3.3124,-3.3124,-3.3124,-3.3124,-3.3262,-3.3282,-3.3307,-3.3847,-3.4186,-3.4324,-3.4324,-3.4731,-3.5508,-3.5646,-3.5994,-3.6405,-3.6405,-3.6405,-3.6405,-3.6405,-3.6493,-3.6669,-3.7036,-3.7274,-3.745,-3.7864,-3.8002,-3.8002,-3.8002,-3.8115,0.0,0.0,0.0,-3.8429,-3.8429,-3.8743,-3.9082,-3.9082,-3.9383,-3.9697,-3.9697,0.0,-3.9697,0.0,0.0,0.0,0.0,0.0,0.0,0.0,0.0,0.0,0.0,0.0,0.0,0.0,0.0,0.0,0.0,0.0,0.0,0.0,-3.9697,-3.9697,-3.9697,-3.9697,-3.9697,-3.9697,-3.9697,-3.9622,-3.9484,-3.9333,-3.9057,-3.8642,-3.8078,-3.7575,-3.7174,-3.7036,-3.6973,-3.6948,-3.6581,-3.6405,-3.6405,-3.6405,-3.6405,-3.6405,-3.6405,-3.6405,-3.6405,-3.6405,-3.6405,-3.6405,0.0,0.0,0.0,0.0,0.0,0.0,0.0,0.0,0.0,0.0,0.0,-3.3031,-3.3031,-3.3056,-3.3124,-3.3124,-3.3124,-3.3124,-3.3124,-3.3124,-3.3124,-3.3124,-3.3124,0.0,-3.3124,-3.3124,-3.3124,-3.3124,-3.3608,-3.3859,-3.3872,-3.4424,-3.4919,-3.542,-3.542,-3.5445,-3.5533,-3.6094,-3.638,-3.6405,-3.6405,-3.6405,-3.6405,-3.6405,-3.6732,-3.7149,-3.7174,-3.7525,-3.7965,-3.8002,-3.8002,-3.8002,-3.8002,-3.8379,-3.8831,0.0,0.0,0.0,-3.9609,-3.9622,-3.9647,-3.9647,-3.9672,-3.9697,-3.9697,0.0,0.0,0.0,0.0,0.0,0.0,0.0,0.0,0.0,0.0,0.0,0.0,0.0,0.0,0.0,0.0,0.0,0.0,0.0,0.0,0.0,-3.9697,-3.9697,-3.9697,-3.9697,-3.9697,-3.9697,-3.9697,-3.9446,-3.8969,-3.8366,-3.8078,-3.804,-3.7487,-3.7211,-3.7161,-3.6681,-3.6455,-3.6455,-3.6417,-3.6405,-3.6405,-3.6405,-3.6405,-3.6405,-3.6405,-3.6405,-3.6405,-3.6405,-3.6405,-3.6405,0.0,0.0,0.0,0.0,0.0,0.0,0.0,0.0,0.0,0.0,0.0,0.0,0.0,-3.3124,-3.3124,-3.3124,-3.3124,-3.3124,-3.3124,-3.3124,-3.3124,-3.3124,-3.3124,-3.3124,-3.3124,-3.3124,-3.3257,-3.3608,-3.3809,-3.4085,-3.4449,-3.4944,-3.5307,-3.5495,-3.5495,-3.5696,-3.6081,-3.6329,-3.6405,-3.6405,-3.6405,-3.6619,-3.6885,-3.6885,-3.7236,-3.7764,-3.8128,-3.8391,-3.8617,-3.8969,-3.9082,-3.9082,-3.9082,-3.9233,-3.9396,-3.9396,-3.9534,-3.9697,-3.9697,-3.9697,-3.9697,-3.9697,-3.9697,-3.9697,-3.9697,-3.9697,-3.9697,0.0,0.0,0.0,0.0,0.0,0.0,0.0,0.0,0.0,0.0,0.0,0.0,0.0,0.0,0.0,0.0,0.0,0.0,0.0,0.0,-3.9697,-3.9697,-3.9697,-3.9697,-3.9697,-3.9346,-3.8894,-3.8316,-3.7764,-3.7475,-3.7475,-3.6923,-3.6707,-3.6694,-3.6505,-3.6405,-3.6405,-3.6405,-3.6405,-3.6405,-3.6405,-3.6405,-3.6405,-3.6405,-3.6405,-3.6405,-3.6405,-3.6405,-3.6405,0.0,0.0,0.0,-3.2503,0.0,-3.3124,-3.3124,-3.3124,-3.3124,-3.3124,0.0,0.0,0.0,0.0,-3.3124,-3.3124,-3.3124,-3.3124,-3.3124,-3.3124,-3.3124,-3.3124,-3.3124,-3.3169,-3.3345,-3.3357,-3.3621,-3.4173,-3.4361,-3.4638,-3.4969,-3.5567,-3.5818,-3.5818,-3.5818,-3.6019,-3.6417,-3.6606,-3.6681,-3.6707,-3.6835,-3.7136,-3.7462,-3.7462,-3.7814,-3.8341,-3.8781,0.0,-3.9195,-3.9572,-3.9697,-3.9697,-3.9697,-3.9697,-3.9697,-3.9697,-3.9697,-3.9697,-3.9697,-3.9697,-3.9697,-3.9697,-3.9697,-3.9697,-3.9697,0.0,0.0,0.0,0.0,0.0,0.0,0.0,0.0,0.0,0.0,0.0,0.0,0.0,0.0,0.0,0.0,0.0,0.0,0.0,0.0,0.0,0.0,0.0,-3.9697,-3.9697,-3.9609,-3.9421,-3.8693,-3.8115,-3.7739,-3.7186,-3.6958,-3.6958,-3.6581,-3.6405,-3.6405,-3.6405,-3.6405,-3.6405,-3.6405,-3.6405,-3.6405,-3.6405,-3.6405,-3.6405,-3.6405,-3.6405,-3.6405,-3.6405,-3.6405,-3.6405,-3.3124,-3.3124,-3.3124,-3.3124,-3.3124,-3.3124,-3.3124,-3.3124,-3.3124,-3.3124,0.0,0.0,0.0,0.0,0.0,-3.3124,-3.3093,-3.3106,-3.3106,-3.3162,-3.3174,-3.3174,-3.3174,-3.337,-3.3909,-3.3922,-3.4198,-3.4705,-3.5232,-3.5508,-3.5533,-3.6119,-3.6417,-3.643,-3.643,-3.6443,-3.6493,-3.7008,-3.7199,-3.7262,-3.7789,-3.8015,-3.804,-3.804,-3.8391,-3.8944,-3.8944,-3.9245,0.0,-3.9697,0.0,0.0,-3.9697,-3.9697,-3.9697,-3.9697,-3.9697,-3.9697,0.0,0.0,0.0,-3.9697,-3.9697,-3.9697,-3.9697,0.0,0.0,0.0,0.0,0.0,0.0,0.0,0.0,0.0,0.0,0.0,0.0,0.0,0.0,0.0,0.0,0.0,0.0,0.0,0.0,0.0,-3.9697,-3.9697,-3.9697,-3.9672,-3.9421,-3.8906,-3.7764,-3.7174,-3.7161,-3.6681,-3.6405,-3.6405,-3.6405,-3.6405,-3.6405,-3.6405,-3.6405,-3.6405,-3.6405,-3.6405,-3.6405,-3.6405,-3.6405,-3.6405,-3.6405,-3.6405,-3.6405,-3.6405,-3.6405,-3.6405,-3.3124,-3.3124,-3.3124,-3.3124,-3.3124,-3.3124,-3.3124,-3.3124,-3.3124,0.0,0.0,0.0,-3.3124,-3.3124,-3.3124,-3.3124,-3.3432,-3.3671,-3.3671,-3.4048,-3.4274,-3.4274,-3.4274,-3.4336,-3.45,-3.45,-3.4718,-3.527,-3.542,-3.5696,-3.6132,-3.6329,-3.6619,-3.7008,-3.7008,-3.7174,-3.7538,-3.7287,-3.7412,-3.7789,-3.7952,-3.8253,-3.863,-3.863,-3.8981,-3.9471,0.0,-3.9559,-3.9697,0.0,-3.9697,-3.9697,-3.9697,-3.9697,-3.9697,-3.9697,-3.9697,-3.9697,-3.9697,0.0,0.0,0.0,0.0,0.0,-3.9697,-3.9697,-3.9697,0.0,0.0,0.0,0.0,0.0,0.0,0.0,0.0,0.0,0.0,0.0,0.0,0.0,0.0,0.0,0.0,0.0,0.0,0.0,-3.9697,-3.9697,-3.9697,-3.932,-3.8831,-3.8266,-3.7563,-3.6998,-3.6644,-3.648,-3.6405,-3.6405,-3.6405,-3.6405,-3.6405,-3.6405,-3.6405,-3.6405,-3.6405,-3.6405,-3.6405,-3.6405,-3.6405,-3.6405,-3.6405,-3.6405,-3.6405,-3.6405,-3.6405,-3.6405,-3.3124,-3.3124,-3.3124,-3.3124,-3.3124,-3.3124,-3.3124,-3.3124,-3.3124,0.0,0.0,0.0,-3.3395,-3.342,-3.3508,-3.3746,-3.406,-3.4248,-3.4248,-3.455,-3.468,-3.468,-3.468,-3.4781,-3.5019,-3.5019,-3.5282,-3.5893,-3.5893,-3.6056,-3.6417,-3.6644,-3.6872,-3.7199,-3.7425,-3.7839,-3.8341,-3.8027,-3.8078,-3.8391,-3.8617,-3.8919,-3.922,-3.922,-3.9421,-3.9697,0.0,0.0,-3.9697,-3.9697,-3.9697,-3.9697,-3.9697,-3.9697,-3.9697,-3.9697,-3.9697,-3.9697,-3.9697,-3.9697,-3.9697,-3.9697,0.0,0.0,-3.9697,-3.9697,-3.9697,0.0,0.0,0.0,0.0,0.0,0.0,0.0,0.0,0.0,0.0,0.0,0.0,0.0,0.0,0.0,0.0,-3.9697,-3.9697,-3.9697,-3.9697,-3.9697,-3.9697,-3.8944,-3.8354,-3.8015,-3.7249,-3.6732,-3.6405,-3.6405,-3.6405,-3.6405,-3.6405,-3.6405,-3.6405,-3.6405,-3.6405,-3.6405,-3.6405,-3.6405,-3.6405,-3.6405,-3.6405,-3.6405,-3.6405,-3.6405,-3.6405,-3.6405,-3.6405,-3.6405,0.0,-3.3124,-3.3124,-3.3124,-3.3124,-3.3124,-3.3124,-3.3124,-3.3124,0.0,-3.3174,-3.3382,-3.3935,-3.3985,-3.4186,-3.4675,-3.4731,-3.4768,-3.4768,-3.4864,-3.4901,-3.4901,-3.4901,-3.5082,-3.5583,-3.5596,-3.5868,-3.6405,-3.6405,-3.6443,-3.6505,-3.7008,-3.7249,-3.74,-3.7889,-3.8417,-3.9007,-3.9007,-3.9007,-3.9057,-3.9496,-3.9697,-3.9697,-3.9697,-3.9697,-3.9697,-3.9697,-3.9697,-3.9697,-3.9697,-3.9697,-3.9697,-3.9697,-3.9697,-3.9697,0.0,-3.9697,-3.9697,-3.9697,-3.9697,-3.9697,-3.9697,-3.9697,0.0,-3.9697,-3.9697,-3.9697,0.0,0.0,0.0,0.0,0.0,0.0,0.0,0.0,0.0,0.0,0.0,0.0,0.0,0.0,0.0,-3.9697,-3.9697,-3.9697,-3.9697,-3.9697,-3.9697,-3.9697,-3.8617,-3.8002,-3.8002,-3.6935,-3.6405,-3.6405,-3.6405,-3.6405,-3.6405,-3.6405,-3.6405,-3.6405,-3.6405,-3.6405,-3.6405,-3.6405,-3.6405,-3.6405,-3.6405,-3.6405,-3.6405,-3.6405,-3.6405,-3.6405,-3.6405,-3.6405,-3.6405,-3.3124,-3.3124,-3.3124,-3.3124,-3.3124,-3.3124,-3.3124,-3.3124,-3.3124,-3.3124,-3.347,-3.3947,-3.45,-3.4562,-3.4613,-3.4668,-3.5082,-3.5332,-3.5332,-3.5793,-3.6091,-3.6091,-3.6091,-3.6141,-3.6194,-3.6194,-3.6304,-3.6405,-3.6405,-3.6631,-3.7023,-3.7136,-3.7676,-3.8542,-3.8655,-3.9019,-3.9534,-3.9534,-3.9534,-3.9546,-3.9647,-3.9697,-3.9697,-3.9697,-3.9697,-3.9697,-3.9697,-3.9697,-3.9697,-3.9697,-3.9697,-3.9697,-3.9697,0.0,0.0,-3.9697,0.0,0.0,0.0,0.0,0.0,0.0,0.0,0.0,-3.9697,-3.9697,-3.9697,0.0,0.0,0.0,0.0,0.0,0.0,0.0,0.0,0.0,0.0,0.0,0.0,0.0,0.0,0.0,-3.9697,-3.9697,-3.9697,-3.9697,-3.9697,-3.9697,-3.9697,-3.8617,-3.8002,-3.8002,-3.6935,-3.6405,-3.6405,-3.6405,-3.6405,-3.6405,-3.6405,-3.6405,-3.6405,-3.6405,-3.6405,-3.6405,-3.6405,-3.6405,-3.6405,-3.6405,-3.6405,-3.6405,-3.6405,-3.6405,-3.6405,-3.6405,-3.6405,-3.6405,-3.3124,-3.3124,-3.3124,-3.3124,-3.3124,-3.3212,-3.3445,-3.3483,-3.3583,-3.3859,-3.4135,-3.4512,-3.5031,-3.5094,-3.524,-3.5516,-3.5793,-3.5956,-3.5956,-3.6207,-3.6405,-3.6405,-3.6405,-3.6405,-3.6405,-3.6681,-3.682,-3.682,-3.7048,-3.7324,-3.76,-3.7889,-3.8329,-3.8932,-3.9157,-3.9433,-3.9697,-3.9697,-3.9697,-3.9697,-3.9697,-3.9697,-3.9697,-3.9697,-3.9697,-3.9697,-3.9697,-3.9697,-3.9697,-3.9697,-3.9697,0.0,0.0,-3.9697,-3.9697,0.0,-3.9697,-3.9697,0.0,0.0,0.0,-3.9697,0.0,0.0,0.0,-3.9697,-3.9697,0.0,0.0,0.0,0.0,0.0,0.0,0.0,0.0,0.0,0.0,0.0,0.0,0.0,0.0,0.0,-3.9697,-3.9697,-3.9697,-3.9697,-3.9697,-3.9697,-3.9697,-3.8617,-3.8002,-3.8002,-3.6935,-3.6405,-3.6405,-3.6405,-3.6405,-3.6405,-3.6405,-3.6405,-3.6405,-3.6405,-3.6405,-3.6405,-3.6405,-3.6405,-3.6405,-3.6405,-3.6405,-3.6405,-3.6405,-3.6405,-3.6405,-3.6405,-3.6405,-3.6405,-3.3162,-3.3156,-3.3232,-3.3232,-3.3319,-3.3545,-3.3985,-3.406,-3.4261,-3.4756,-3.4831,-3.5044,-3.5596,-3.5658,-3.5881,-3.6367,-3.6405,-3.6455,-3.6556,-3.6568,-3.6619,-3.6719,-3.6732,-3.6732,-3.6732,-3.7111,-3.7337,-3.7337,-3.7789,-3.8065,-3.8178,-3.8655,-3.8982,-3.9044,-3.9496,-3.9697,-3.9697,-3.9697,-3.9697,-3.9697,-3.9697,-3.9697,-3.9697,-3.9697,-3.9697,-3.9697,-3.9697,-3.9697,-3.9697,-3.9697,-3.9697,-3.9697,-3.9697,-3.9697,0.0,0.0,0.0,0.0,0.0,0.0,0.0,0.0,0.0,-3.9697,0.0,0.0,0.0,0.0,0.0,0.0,0.0,0.0,0.0,0.0,0.0,0.0,0.0,0.0,0.0,0.0,0.0,0.0,0.0,-3.9697,-3.9697,-3.9697,-3.9697,-3.9697,-3.9697,-3.8617,-3.8002,-3.8002,-3.6935,-3.6405,-3.6405,-3.6405,-3.6405,-3.6405,-3.6405,-3.6405,-3.6405,-3.6405,-3.6405,-3.6405,-3.6405,-3.6405,-3.6405,-3.6405,-3.6405,-3.6405,-3.6405,-3.6405,-3.6405,-3.6405,-3.6405,-3.6405,-3.3269,-3.347,-3.3809,-3.3809,-3.4211,-3.4562,-3.4613,-3.4625,-3.4781,-3.5332,-3.5408,-3.5667,-3.6207,-3.6317,-3.6342,-3.6405,-3.6405,-3.6619,-3.7061,-3.7098,-3.7312,-3.7801,-3.7814,-3.7814,-3.7814,-3.7889,-3.7914,-3.7914,-3.7977,-3.8266,-3.8781,-3.8894,-3.9132,-3.9597,-3.9672,-3.9697,-3.9697,-3.9697,-3.9697,-3.9697,-3.9697,-3.9697,0.0,-3.9697,-3.9697,-3.9697,-3.9697,-3.9697,-3.9697,0.0,-3.9697,-3.9697,0.0,-3.9697,-3.9697,0.0,0.0,0.0,0.0,0.0,0.0,0.0,-3.9697,0.0,0.0,0.0,0.0,0.0,0.0,0.0,0.0,0.0,0.0,0.0,0.0,0.0,0.0,0.0,0.0,0.0,0.0,0.0,0.0,-3.9697,-3.9697,-3.9697,-3.9697,-3.9697,-3.9697,-3.8617,-3.8002,-3.8002,-3.6935,-3.6405,-3.6405,-3.6405,-3.6405,-3.6405,-3.6405,-3.6405,-3.6405,-3.6405,-3.6405,-3.6405,-3.6405,-3.6405,-3.6405,-3.6405,-3.6405,-3.6405,-3.6405,-3.6405,-3.6405,-3.6405,-3.6405,-3.6405,-3.4123,-3.4223,-3.4374,-3.4374,-3.4562,-3.4781,-3.5107,-3.5466,-3.5755,-3.5994,-3.6019,-3.6107,-3.638,-3.6694,-3.6757,-3.643,0.0,-3.7274,0.0,0.0,-3.7764,-3.8002,-3.8002,-3.8002,-3.8002,-3.8329,-3.8504,-3.8504,-3.8831,-3.9107,-3.9346,-3.9346,-3.9471,-3.9697,-3.9697,-3.9697,-3.9697,-3.9697,-3.9697,-3.9697,0.0,-3.9697,0.0,-3.9697,-3.9697,-3.9697,-3.9697,-3.9697,-3.9697,0.0,-3.9697,0.0,0.0,0.0,0.0,0.0,0.0,0.0,0.0,0.0,0.0,0.0,0.0,0.0,0.0,0.0,-3.9697,0.0,0.0,0.0,0.0,0.0,0.0,0.0,-3.9546,0.0,0.0,0.0,0.0,0.0,0.0,0.0,0.0,0.0,0.0,0.0,-3.9697,-3.9697,-3.9697,-3.8944,-3.8354,-3.8015,-3.7249,-3.6732,-3.6405,-3.6405,-3.6405,-3.6405,-3.6405,-3.6405,-3.6405,-3.6405,-3.6405,-3.6405,-3.6405,-3.6405,-3.6405,-3.6405,-3.6405,-3.6405,-3.6405,-3.6405,-3.6405,-3.6405,-3.6405,-3.6405,-3.5177,-3.5052,-3.4906,-3.4906,-3.5077,-3.5303,-3.5705,-3.6107,-3.6405,-3.6405,-3.6543,-3.6631,-3.6631,-3.7073,-3.7249,-3.6895,-3.755,-3.7902,0.0,0.0,-3.8316,-3.8467,-3.8467,0.0,-3.8467,-3.8881,-3.9094,-3.9094,-3.9496,-3.9697,-3.9697,-3.9697,-3.9697,-3.9697,-3.9697,-3.9697,-3.9697,-3.9697,-3.9697,-3.9697,-3.9697,-3.9697,-3.9697,-3.9697,-3.9697,-3.9697,-3.9697,-3.9697,-3.9697,-3.9697,-3.9697,0.0,-3.9697,0.0,0.0,0.0,0.0,0.0,-3.9697,0.0,0.0,0.0,0.0,0.0,0.0,0.0,0.0,0.0,0.0,0.0,0.0,0.0,0.0,-3.9496,0.0,-3.9647,0.0,0.0,0.0,0.0,0.0,0.0,0.0,0.0,0.0,0.0,0.0,-3.9697,-3.9697,-3.917,-3.8605,-3.8027,-3.7475,-3.6923,-3.6417,-3.6405,-3.6405,-3.6405,-3.6405,-3.6405,-3.6405,-3.6405,-3.6405,-3.6405,-3.6405,-3.6405,-3.6405,-3.6405,-3.6405,-3.6405,-3.6405,-3.6405,-3.6405,-3.6405,-3.6405,-3.6405,-3.6355,-3.5881,-3.547,-3.547,-3.5956,-3.6367,-3.638,-3.6405,-3.6405,-3.6405,-3.6822,-3.7161,0.0,0.0,0.0,0.0,0.0,-3.8241,-3.8831,0.0,-3.9082,0.0,0.0,-3.9647,0.0,-3.9659,-3.9672,-3.9672,-3.9685,-3.9697,-3.9697,-3.9697,-3.9697,-3.9697,-3.9697,-3.9697,-3.9697,-3.9697,-3.9697,-3.9697,-3.9697,-3.9697,-3.9697,0.0,-3.9697,-3.9697,-3.9697,0.0,0.0,-3.9697,-3.9697,0.0,0.0,0.0,0.0,0.0,0.0,0.0,0.0,0.0,0.0,-3.9697,0.0,0.0,0.0,0.0,-3.9697,0.0,0.0,0.0,0.0,0.0,-3.9521,-3.8981,-3.9346,0.0,0.0,0.0,0.0,0.0,0.0,0.0,0.0,0.0,0.0,0.0,0.0,0.0,-3.9697,-3.917,-3.8605,-3.8027,-3.7475,-3.6923,-3.6417,-3.6405,-3.6405,-3.6405,-3.6405,-3.6405,-3.6405,-3.6405,-3.6405,-3.6405,-3.6405,-3.6405,-3.6405,-3.6405,-3.6405,-3.6405,-3.6405,-3.6405,-3.6405,-3.6405,-3.6405,-3.6405,-3.6405,-3.6267,-3.6094,-3.6094,-3.6279,-3.6405,-3.6405,-3.6719,-3.6958,0.0,-3.7387,0.0,0.0,-3.8241,-3.8417,0.0,0.0,-3.9044,-3.8932,-3.922,0.0,0.0,0.0,-3.9697,0.0,0.0,-3.9697,-3.9697,-3.9697,-3.9697,-3.9697,-3.9697,-3.9697,-3.9697,-3.9697,-3.9697,-3.9697,-3.9697,0.0,0.0,0.0,-3.991,-4.0199,0.0,0.0,-3.9697,-3.9697,-3.9697,0.0,-3.9697,-3.9697,-3.9697,-3.9697,-3.9697,-3.9697,-3.9697,-3.9697,0.0,0.0,0.0,-3.9697,-3.9697,0.0,0.0,0.0,0.0,0.0,0.0,0.0,0.0,0.0,0.0,-3.9634,-3.9446,-3.9572,-3.9634,0.0,0.0,0.0,0.0,0.0,0.0,0.0,0.0,0.0,0.0,-3.9697,0.0,0.0,-3.9521,-3.9157,-3.8592,-3.8027,-3.7462,-3.691,-3.6593,-3.6405,-3.6405,-3.6405,-3.6405,-3.6405,-3.6405,-3.6405,-3.6405,-3.6405,-3.6405,-3.6405,-3.6405,-3.6405,-3.6405,-3.6405,-3.6405,-3.6405,-3.6405,-3.6405,-3.6405,-3.6405,-3.6568,-3.6631,-3.6443,-3.6568,-3.6707,-3.6707,-3.7123,-3.7475,0.0,-3.7965,0.0,-3.8316,0.0,-3.9019,0.0,-3.927,-3.9546,-3.9182,-3.9496,0.0,-3.9697,-3.9697,0.0,0.0,0.0,0.0,0.0,-3.9697,-3.9697,-3.9697,-3.9697,-3.9798,-3.9986,-3.9986,-3.9986,-3.9998,-4.0199,-4.0162,0.0,0.0,-4.0488,0.0,0.0,-4.0275,-4.0249,0.0,-3.9986,-3.9961,-3.976,-3.9697,-3.9697,-3.9697,-3.9697,-3.9697,-3.9697,-3.9697,-3.9697,-3.9697,-3.9697,0.0,-3.9697,-3.9697,0.0,-3.9697,0.0,0.0,0.0,0.0,0.0,0.0,0.0,-3.9697,-3.9697,-3.9697,-3.9697,0.0,-3.9697,0.0,0.0,0.0,0.0,0.0,0.0,0.0,-3.9697,-3.9697,0.0,0.0,0.0,-3.9433,-3.8944,-3.8504,-3.7952,-3.7199,-3.6883,-3.6606,-3.6405,-3.6405,-3.6405,-3.6405,-3.6405,-3.6405,-3.6405,-3.6405,-3.6405,-3.6405,-3.6405,-3.6405,-3.6405,-3.6405,-3.6405,-3.6405,-3.6405,-3.6405,-3.6405,-3.6493,-3.6908,-3.7061,-3.6581,-3.6872,-3.7224,-3.7224,0.0,-3.8052,0.0,-3.8555,-3.8957,-3.8957,-3.9383,-3.9697,-3.9697,-3.9697,-3.9697,-3.9697,-3.9697,0.0,0.0,-3.9697,-3.9697,-3.9697,0.0,0.0,0.0,0.0,-3.9697,-3.9697,-3.9722,-4.0011,-4.0513,-4.0538,-4.0563,-4.0588,-4.1062,-4.0987,-4.0601,-4.1075,-4.13,-4.1326,-4.1326,-4.1351,-4.1288,-4.0764,-4.0563,-4.0475,-3.9948,-3.9772,-3.9772,-3.9747,-3.9735,-3.9722,-3.9697,-3.9697,-3.9697,-3.9697,-3.9697,-3.9697,-3.9697,0.0,0.0,0.0,0.0,-3.9697,0.0,0.0,0.0,0.0,0.0,0.0,-3.9697,-3.9697,-3.9697,-3.9697,0.0,0.0,0.0,0.0,0.0,0.0,0.0,-3.9697,-3.9697,-3.9697,-3.9697,0.0,0.0,-3.9459,-3.8982,-3.8881,-3.8354,-3.7274,-3.7211,-3.6923,-3.6455,-3.6417,-3.6405,-3.6405,-3.6405,-3.6405,-3.6405,-3.6405,-3.6405,-3.6405,-3.6405,-3.6405,-3.6405,-3.6405,-3.6405,-3.6405,-3.6405,-3.6405,-3.6405,-3.7588,-3.7701,-3.7751,-3.7613,-3.7701,-3.7789,-3.7789,0.0,0.0,0.0,-3.9132,-3.9484,-3.9484,-3.9609,-3.9697,-3.9697,-3.9697,0.0,0.0,0.0,0.0,-3.9697,-3.9697,-3.9697,-3.9697,-3.9697,0.0,-3.9697,0.0,-3.9697,-3.9697,-4.0111,-4.0388,-4.0538,-4.094,-4.1075,-4.1075,-4.1225,-4.12,-4.1087,-4.1225,-4.158,0.0,0.0,-4.2208,-4.2434,-4.1467,-4.1075,-4.105,-4.0965,-4.0862,-4.0852,-4.0438,-4.03,-4.0224,-3.9823,-3.9697,-3.9697,-3.9697,-3.9697,-3.9697,-3.9697,-3.9697,-3.9697,0.0,0.0,0.0,0.0,0.0,0.0,0.0,0.0,0.0,-3.9697,-3.9697,-3.9697,0.0,0.0,0.0,-3.9697,0.0,0.0,0.0,0.0,-3.9697,-3.9697,-3.9697,-3.9697,-3.9697,0.0,0.0,-3.9484,-3.9082,-3.8781,-3.8492,-3.76,-3.7111,-3.6973,-3.6606,-3.6405,-3.6405,-3.6405,-3.6405,-3.6405,-3.6405,-3.6405,-3.6405,-3.6405,-3.6405,-3.6405,-3.6405,-3.6405,-3.6405,-3.6405,-3.6405,-3.6405,-3.8002,-3.8216,-3.8467,-3.8705,-3.8743,-3.8668,-3.8417,-3.8868,0.0,-3.9233,-3.9496,0.0,-3.9697,-3.9697,-3.9697,-3.9697,-3.9697,0.0,-3.9697,0.0,0.0,-3.9697,-3.9697,-3.9697,-3.9697,-3.9697,0.0,-3.9697,0.0,-4.0061,-4.0061,-4.0614,-4.1003,-4.1254,-4.1555,-4.1693,-4.1693,-4.1693,-4.1831,-4.2057,-4.2057,-4.2233,0.0,-4.2577,-4.2766,-4.2898,-4.2283,-4.1894,-4.1656,-4.1363,-4.1288,-4.1225,-4.0924,-4.0714,-4.0463,-4.0149,-3.9885,-3.9697,-3.9697,-3.9697,-3.9697,-3.9697,-3.9697,-3.9697,-3.9697,-3.9697,-3.9697,0.0,0.0,0.0,0.0,0.0,0.0,0.0,0.0,0.0,0.0,0.0,0.0,0.0,0.0,0.0,0.0,-3.9697,-3.9697,-3.9697,-3.9697,-3.9697,0.0,0.0,0.0,-3.9697,-3.9396,-3.912,-3.8919,-3.8241,-3.7789,-3.7538,-3.6985,-3.6769,-3.6757,-3.6518,-3.6543,-3.6769,-3.6769,-3.6908,-3.7073,-3.7073,-3.7073,-3.7073,-3.7073,-3.6935,-3.6769,-3.6769,-3.6619,-3.6405,-3.8228,-3.863,-3.9132,-3.9609,-3.9697,0.0,0.0,-3.9383,0.0,-3.9697,0.0,-3.9697,-3.9697,-3.9697,-3.9697,-3.9697,0.0,-3.9697,-3.9697,-3.9697,-3.9697,-3.9697,-3.9697,-3.9697,-3.9697,-3.9697,0.0,0.0,0.0,-4.0551,-4.0639,-4.1137,-4.1706,-4.2213,-4.2288,-4.2313,-4.2313,-4.2313,-4.259,-4.2974,-4.2974,-4.2974,-4.2974,-4.2974,-4.2974,-4.2974,-4.2974,-4.2728,-4.2238,-4.1718,-4.1501,-4.1489,-4.1413,-4.1116,-4.0714,-4.0639,-4.0237,-3.9798,-3.9798,-3.9747,-3.9697,-3.9697,-3.9697,-3.9697,-3.9697,-3.9697,-3.9697,-3.9697,-3.9697,-3.9697,0.0,0.0,0.0,0.0,0.0,0.0,0.0,0.0,0.0,0.0,0.0,0.0,0.0,0.0,-3.9697,-3.9697,-3.9697,-3.9697,0.0,0.0,0.0,-3.9697,-3.9697,-3.9471,-3.8981,0.0,-3.8617,-3.8115,-3.7563,-3.7249,-3.7174,-3.6807,-3.6845,-3.7186,-3.7262,-3.7563,-3.8002,-3.8002,-3.8002,-3.8002,-3.8002,-3.7713,-3.7287,-3.7287,-3.6996,-3.6505,-3.9396,-3.9484,0.0,0.0,0.0,-3.9659,-3.9559,-3.9634,-3.9697,-3.9697,-3.9697,-3.9697,-3.9697,-3.9697,-3.9697,-3.9697,-3.9697,0.0,0.0,0.0,0.0,-3.9697,-3.9697,-3.9697,-3.9697,-3.9697,-3.9923,0.0,0.0,-4.0752,-4.115,-4.1756,-4.2125,-4.2225,-4.269,-4.2891,-4.2891,-4.2891,0.0,-4.2974,-4.2974,-4.2974,-4.2974,-4.2974,-4.2974,-4.2974,-4.2974,-4.2911,-4.2823,-4.2723,-4.2685,-4.261,-4.2158,-4.1999,-4.1781,-4.1329,-4.0802,-4.0375,-4.0375,-4.0036,-3.9697,-3.9697,-3.9697,-3.9697,-3.9697,-3.9697,-3.9697,-3.9697,-3.9697,-3.9697,-3.9697,0.0,0.0,0.0,0.0,0.0,0.0,0.0,0.0,0.0,0.0,0.0,0.0,0.0,0.0,0.0,0.0,0.0,0.0,0.0,0.0,0.0,-3.9697,0.0,0.0,0.0,-3.8869,-3.8718,-3.814,-3.7626,-3.7199,-3.755,-3.7525,-3.7211,-3.7663,-3.7914,-3.8002,-3.8002,-3.8002,-3.8002,-3.8002,-3.7952,-3.7864,-3.7864,-3.7513,-3.6973,-3.9697,-3.9697,0.0,0.0,0.0,0.0,0.0,-3.9697,0.0,-3.9697,-3.9697,-3.9697,-3.9697,-3.9697,-3.9697,-3.9697,-3.9697,-3.9697,-3.9697,-3.9697,-3.9697,-3.9697,-3.9697,0.0,-3.9697,-3.9973,-4.0249,-4.0513,0.0,-4.1505,-4.1769,-4.2321,-4.264,-4.2652,-4.2861,-4.2974,-4.2974,0.0,0.0,-4.2974,-4.2974,-4.2974,-4.2974,-4.2974,-4.2974,-4.2974,-4.2974,-4.2974,-4.2974,-4.2974,-4.2974,-4.2924,-4.2728,-4.2439,-4.215,-4.1844,-4.1379,-4.0824,-4.0588,-4.0325,-4.0061,-3.9772,-3.9697,-3.9697,-3.9697,-3.9697,-3.9697,-3.9697,-3.9697,-3.9697,-3.9697,-3.9697,0.0,0.0,0.0,0.0,0.0,0.0,0.0,0.0,0.0,0.0,0.0,0.0,0.0,0.0,0.0,0.0,0.0,0.0,0.0,0.0,0.0,0.0,0.0,0.0,0.0,-3.9295,-3.873,-3.8316,-3.8065,-3.8015,-3.8027,-3.8078,-3.8341,-3.8617,-3.8881,-3.8881,-3.8881,-3.8881,-3.8881,-3.8705,-3.8454,-3.8454,-3.809,-3.7525,-3.9697,-3.9697,0.0,0.0,-3.9697,0.0,-3.9697,-3.9798,-3.9823,-3.971,-3.9798,-3.9873,-3.9873,-3.9973,-4.0049,-4.0049,-4.0049,-4.0049,-4.0049,-4.0049,-3.9986,-3.9873,-3.9986,-3.9986,-3.9873,-4.0413,-4.0752,0.0,0.0,0.0,-4.2213,-4.2778,-4.2974,-4.2974,-4.2974,0.0,0.0,0.0,-4.2974,-4.2974,-4.2974,-4.2974,-4.2974,-4.2974,-4.2974,-4.2974,-4.2974,-4.2974,-4.2974,-4.2974,-4.2974,-4.2974,-4.2974,-4.274,-4.2389,-4.2389,-4.1944,-4.1417,-4.099,-4.0689,-4.0413,-3.9973,-3.9785,-3.9697,-3.9697,-3.9697,-3.9697,-3.9697,-3.9697,-3.9697,-3.9697,-3.9697,0.0,0.0,0.0,0.0,0.0,0.0,0.0,0.0,0.0,0.0,0.0,0.0,0.0,0.0,0.0,-3.9697,-3.9697,-3.9697,-3.9697,0.0,0.0,-3.9697,-3.9697,0.0,-3.9697,-3.9685,-3.9245,-3.8981,-3.8906,-3.8517,-3.8555,-3.8932,-3.9045,-3.9295,-3.9697,-3.9697,-3.9697,-3.9697,-3.9697,-3.9433,-3.9095,-3.9095,-3.868,-3.8128,0.0,0.0,0.0,0.0,0.0,0.0,-3.9697,-4.0124,-4.0262,-3.976,-4.0124,-4.0438,-4.0438,-4.0837,-4.1125,-4.1125,-4.1125,-4.1125,-4.1125,-4.1125,-4.0912,-4.0463,-4.0862,-4.0899,-4.045,-4.0924,-4.1505,0.0,0.0,0.0,0.0,-4.2778,-4.2974,0.0,0.0,0.0,0.0,-4.2974,-4.2974,-4.2974,-4.2974,-4.2974,-4.2974,-4.2974,-4.2974,-4.2974,-4.2974,-4.2974,-4.2974,-4.2974,-4.2974,-4.2974,-4.2974,-4.2949,-4.2898,-4.2898,-4.2564,-4.2125,-4.2074,-4.1279,-4.0501,-4.045,-4.0061,-3.9697,-3.9697,-3.9697,-3.9697,-3.9697,-3.9697,-3.9697,-3.9697,-3.9697,-3.9697,0.0,0.0,0.0,0.0,0.0,0.0,0.0,0.0,0.0,0.0,0.0,0.0,0.0,0.0,-3.9697,-3.9697,-3.9697,-3.9697,-3.9697,0.0,-3.9697,-3.9697,-3.9697,-3.9697,-3.9697,-3.9647,-3.9358,-3.8881,-3.9333,-3.9295,-3.8944,-3.9396,-3.9647,-3.9697,-3.9697,-3.9697,-3.9697,-3.9697,-3.9659,-3.9622,-3.9622,-3.927,-3.8831,0.0,0.0,0.0,0.0,0.0,0.0,0.0,-4.0811,-4.0874,-4.0714,-4.0877,-4.0962,-4.0962,-4.115,-4.1288,-4.1288,-4.1288,-4.1288,-4.1288,-4.1288,-4.1188,-4.0962,-4.1175,-4.1175,-4.0962,-4.1555,-4.1932,0.0,0.0,0.0,0.0,0.0,0.0,0.0,0.0,-4.2974,-4.2974,-4.2974,-4.2974,-4.2974,-4.2974,-4.2974,-4.2974,-4.2974,-4.2974,-4.2974,-4.2974,-4.2974,-4.2974,-4.2974,-4.2974,-4.2974,-4.2974,-4.2974,-4.2974,-4.2974,-4.2879,-4.2627,-4.2301,-4.1886,-4.1342,-4.0676,-4.035,-4.0099,-3.9772,-3.9697,-3.9697,-3.9697,-3.9697,-3.9697,-3.9697,-3.9697,-3.9697,0.0,0.0,0.0,0.0,0.0,0.0,0.0,0.0,0.0,0.0,0.0,0.0,0.0,0.0,0.0,-3.9697,-3.9697,-3.9697,-3.9697,0.0,-3.9697,-3.9697,-3.9697,-3.9697,-3.9697,-3.9697,-3.9584,-3.9371,-3.9597,-3.9572,-3.9383,-3.9597,-3.9697,-3.9697,-3.9697,-3.9697,-3.9697,-3.9697,-3.9697,-3.9697,-3.9697,-3.9546,-3.9371,-3.991,0.0,-4.0111,0.0,-4.0764,-4.0837,-4.1225,-4.148,-4.158,-4.158,-4.1718,-4.1756,-4.1593,-4.1731,-4.1819,-4.1819,-4.1819,-4.1819,-4.1819,-4.1819,-4.1743,-4.158,-4.1731,0.0,-4.158,-4.212,-4.2451,-4.2451,-4.2785,0.0,0.0,0.0,0.0,0.0,-4.2974,-4.2974,-4.2974,-4.2974,-4.2974,-4.2974,-4.2974,-4.2974,-4.2974,-4.2974,-4.2974,-4.2974,-4.2974,-4.2974,-4.2974,-4.2974,-4.2974,-4.2974,-4.2974,-4.2974,-4.2974,-4.2974,-4.2974,-4.2898,-4.2552,-4.2338,-4.2024,-4.1191,-4.0752,-4.0413,-4.0023,-3.981,-3.9697,-3.9697,-3.9697,-3.9697,-3.9697,-3.9697,-3.9697,-3.9697,0.0,0.0,0.0,0.0,0.0,0.0,0.0,-3.9697,-3.9697,0.0,0.0,0.0,0.0,0.0,-3.9697,-3.9697,0.0,0.0,0.0,0.0,0.0,-3.9697,-3.9697,-3.9697,-3.9697,-3.9697,-3.9697,-3.9697,-3.9697,-3.9697,-3.9697,-3.9697,-3.9697,-3.9697,-3.9697,-3.9697,-3.9697,-3.9697,-3.9697,-3.9697,-3.9697,-3.9697,-4.04,-4.0513,-4.0676,-4.1175,-4.1275,-4.1275,-4.1288,-4.1806,-4.22,-4.22,-4.2678,-4.2803,-4.2263,-4.269,-4.2961,-4.2961,-4.2961,-4.2961,-4.2961,-4.2961,-4.271,0.0,0.0,-4.2698,-4.2213,-4.274,-4.2974,-4.2974,0.0,0.0,-4.2213,0.0,-4.2514,-4.2974,-4.2974,-4.2974,-4.2974,-4.2974,-4.2974,-4.2974,-4.2974,-4.2974,-4.2974,-4.2974,-4.2974,-4.2974,-4.2974,-4.2974,-4.2974,-4.2974,-4.2974,-4.2974,-4.2974,-4.2974,-4.2974,-4.2974,-4.2974,-4.2974,-4.2974,-4.2627,-4.2213,-4.2187,-4.1317,-4.0513,-4.0513,-4.0086,-3.9697,-3.9697,-3.9697,-3.9697,-3.9697,-3.9697,-3.9697,-3.9697,0.0,0.0,0.0,0.0,0.0,0.0,-3.9697,-3.9697,-3.9697,0.0,0.0,0.0,0.0,0.0,0.0,0.0,0.0,-3.9697,-3.9697,0.0,-3.9697,-3.9697,-3.9697,-3.9697,-3.9697,-3.9697,-3.9697,-3.9697,-3.9697,-3.9697,-3.9697,-3.9697,-3.9697,-3.9697,-3.9697,-3.9697,-3.9697,-3.9697,-3.9697,-3.9697,-3.9697,-3.9697,-4.0987,-4.1025,-4.1254,-4.1794,-4.1894,-4.202,-4.2396,-4.261,-4.2778,-4.2778,-4.32,-4.3476,-4.33,-4.3099,-4.2974,0.0,-4.2974,-4.2974,0.0,-4.2974,-4.2898,-4.2778,-4.2886,-4.2898,-4.2778,-4.2886,-4.2974,-4.2974,0.0,0.0,0.0,-4.2778,-4.2811,-4.2974,-4.2974,-4.2974,-4.2974,-4.2974,-4.2974,-4.2974,-4.2974,-4.2974,-4.2974,-4.2974,-4.2974,-4.2974,-4.2974,-4.2974,-4.2974,-4.2974,-4.2974,-4.2974,-4.2974,-4.2974,-4.2974,-4.2974,-4.2974,-4.2974,-4.2974,-4.2904,-4.2678,-4.2301,-4.1618,-4.0924,-4.0601,-4.0086,-3.9697,-3.9697,-3.9697,-3.9697,-3.9697,-3.9697,-3.9697,-3.9697,-3.9697,0.0,0.0,0.0,0.0,0.0,-3.9697,-3.9697,0.0,-3.9697,0.0,0.0,0.0,0.0,0.0,0.0,0.0,0.0,-3.9697,0.0,-3.9697,-3.9697,-3.9697,-3.9697,-3.9697,-3.9697,-3.9697,-3.9697,-3.9697,-3.9697,-3.9697,-3.9697,-3.9697,-3.9697,-3.9697,-3.9697,-3.9697,-3.9697,-3.9697,-3.9697,-3.9697,-3.9697,-4.1605,-4.1643,-4.1819,-4.2426,-4.2527,-4.2703,-4.32,-4.3288,-4.3363,-4.3564,-4.3903,-4.4116,-4.4116,-4.3802,0.0,-4.3589,-4.3413,-4.3288,-4.3288,-4.3087,-4.2974,-4.2974,-4.2974,-4.2974,-4.2974,-4.2974,0.0,-4.2974,-4.2974,-4.2974,-4.2974,-4.2974,-4.2974,-4.2974,-4.2974,-4.2974,-4.2974,-4.2974,-4.2974,-4.2974,-4.2974,-4.2974,-4.2974,-4.2974,-4.2974,-4.2974,-4.2974,-4.2974,-4.2974,-4.2974,-4.2974,-4.2974,-4.2974,-4.2974,-4.2974,-4.2974,-4.2974,-4.2974,-4.2974,-4.2974,-4.2898,-4.2602,-4.2057,-4.1442,-4.0689,-4.0086,-3.9697,-3.9697,-3.9697,-3.9697,-3.9697,-3.9697,-3.9697,-3.9697,-3.9697,-3.9697,-3.9697,0.0,0.0,0.0,0.0,0.0,0.0,-3.9697,-3.9697,0.0,0.0,0.0,0.0,0.0,0.0,-3.9697,-3.9697,0.0,-3.9697,-3.9697,-3.9697,-3.9697,-3.9697,-3.9697,-3.9697,-3.9697,-3.9697,-3.9697,-3.9697,-3.9697,-3.9697,-3.9697,-3.9697,-3.9697,-3.9697,-3.9697,-3.9697,-3.9697,-3.9697,-3.9697,-4.2175,-4.2263,-4.2439,0.0,-4.3037,0.0,-4.3777,-4.3865,-4.4041,-4.4556,-4.4656,-4.4681,-4.4681,-4.4719,-4.4744,-4.4744,0.0,0.0,0.0,-4.3338,-4.3037,-4.3037,-4.2999,-4.2974,-4.2974,-4.2974,-4.2974,-4.2974,-4.2974,-4.2974,-4.2974,-4.2974,-4.2974,-4.2974,-4.2974,-4.2974,-4.2974,-4.2974,-4.2974,-4.2974,-4.2974,-4.2974,-4.2974,-4.2974,-4.2974,-4.2974,-4.2974,-4.2974,-4.2974,-4.2974,-4.2974,-4.2974,-4.2974,-4.2974,-4.2974,-4.2974,-4.2974,-4.2974,-4.2974,-4.2974,-4.2974,-4.2974,-4.2627,-4.1923,-4.0764,-4.0124,-3.9735,-3.9697,-3.9697,-3.9697,-3.9697,-3.9697,-3.9697,-3.9697,-3.9697,-3.9697,-3.9697,0.0,0.0,0.0,0.0,0.0,0.0,-3.9697,-3.9697,0.0,0.0,0.0,0.0,0.0,-3.9697,-3.9697,-3.9697,-3.9697,-3.9697,-3.9697,-3.9697,-3.9697,-3.9697,-3.9697,-3.9697,-3.9697,-3.9697,-3.9697,-3.9697,-3.9697,-3.9697,-3.9697,-3.9697,-3.9697,-3.9697,-3.9697,-3.9697,-3.9697,-3.9697,-3.9697,0.0,0.0,-4.2949,-4.3514,-4.3601,-4.379,-4.4342,-4.443,-4.448,-4.4606,-4.5008,-4.5284,-4.5284,-4.566,-4.5912,-4.5912,-4.5008,-4.443,-4.443,-4.3915,-4.3601,-4.3601,-4.32,-4.2974,-4.2974,-4.2974,-4.2974,-4.2974,-4.2974,-4.2974,-4.2974,-4.2974,-4.2974,-4.2974,-4.2974,-4.2974,-4.2974,-4.2974,-4.2974,-4.2974,-4.2974,-4.2974,-4.2974,-4.2974,-4.2974,-4.2974,-4.2974,-4.2974,-4.2974,-4.2974,-4.2974,-4.2974,-4.2974,-4.2974,-4.2974,-4.2974,-4.2974,-4.2974,-4.2974,-4.2974,-4.2974,-4.2974,-4.2627,-4.1923,-4.0764,-4.0413,-4.0199,-3.9785,-3.9697,-3.9697,-3.9697,-3.9697,-3.9697,-3.9697,-3.9697,-3.9697,-3.9697,-3.9697,0.0,0.0,-3.9697,-3.9697,-3.9697,-3.9697,-3.9697,0.0,0.0,0.0,0.0,-3.9697,-3.9697,-3.9697,-3.9697,-3.9697,-3.9697,-3.9697,-3.9697,-3.9697,-3.9697,-3.9697,-3.9697,-3.9697,-3.9697,-3.9697,-3.9697,-3.9697,-3.9697,-3.9697,-3.9697,-3.9697,-3.9697,-3.9697,-3.9697,-3.9697,-3.9697,-3.9697,-4.3363,-4.3551,-4.3827,-4.4116,-4.4179,-4.4367,-4.4932,-4.502,-4.5108,-4.5359,-4.5673,-4.5861,-4.5861,-4.6137,-4.6313,-4.6313,-4.5522,-4.502,-4.502,-4.4493,-4.4179,-4.4179,-4.3639,-4.3363,-4.3363,-4.3112,-4.2974,-4.2974,-4.2974,-4.2974,-4.2974,-4.2974,-4.2974,-4.2974,-4.2974,-4.2974,-4.2974,-4.2974,-4.2974,-4.2974,-4.2974,-4.2974,-4.2974,-4.2974,-4.2974,-4.2974,-4.2974,-4.2974,-4.2974,-4.2974,-4.2974,-4.2974,-4.2974,-4.2974,-4.2974,-4.2974,-4.2974,-4.2974,-4.2974,-4.2974,-4.2974,-4.2974,-4.2627,-4.2049,-4.1404,-4.0877,-4.0438,-4.0136,-3.9873,-3.9697,-3.9697,-3.9697,-3.9697,-3.9697,-3.9697,-3.9697,-3.9697,-3.9697,0.0,-3.9697,-3.9697,-3.9697,-3.9697,-3.9697,-3.9697,-3.9697,0.0,0.0,-3.9697,-3.9697,-3.9697,-3.9697,-3.9697,-3.9697,-3.9697,-3.9697,-3.9697,-3.9697,-3.9697,-3.9697,-3.9697,-3.9697,-3.9697,-3.9697,-3.9697,-3.9697,-3.9697,-3.9697,-3.9697,-3.9697,-3.9697,-3.9697,-3.9697,-3.9697,-3.9697,-3.9697,-4.3928,-4.4305,-4.4656,-4.4731,-4.4756,-4.4945,-4.5522,-4.561,-4.5786,-4.625,-4.6313,-4.6313,-4.6313,-4.6313,-4.6313,-4.6313,-4.5886,-4.561,-4.561,-4.507,-4.4756,-4.4756,-4.4217,-4.3928,-4.3928,-4.3463,-4.3187,-4.3099,-4.3099,-4.3062,-4.2974,-4.2974,-4.2974,-4.2974,-4.2974,-4.2974,-4.2974,-4.2974,-4.2974,-4.2974,-4.2974,-4.2974,-4.2974,-4.2974,-4.2974,-4.2974,-4.2974,-4.2974,-4.2974,-4.2974,-4.2974,-4.2974,-4.2974,-4.2974,-4.2974,-4.2974,-4.2974,-4.2974,-4.2974,-4.2974,-4.2974,-4.2974,-4.2678,-4.2313,-4.2225,-4.143,-4.0714,-4.0551,-4.0149,-3.9798,-3.971,-3.9697,-3.9697,-3.9697,-3.9697,-3.9697,-3.9697,0.0,-3.9697,-3.9697,-3.9697,-3.9697,-3.9697,-3.9697,-3.9697,-3.9697,-3.9697,-3.9697,-3.9697,-3.9697,-3.9697,-3.9697,-3.9697,-3.9697,-3.9697,-3.9697,-3.9697,-3.9697,-3.9697,-3.9697,-3.9697,-3.9697,-3.9697,-3.9697,-3.9697,-3.9697,-3.9697,-3.9697,-3.9697,-3.9697,-3.9697,-3.9697,-3.9697,-3.9697,-3.9697,-3.9697,-4.4493,-4.4568,-4.4782,-4.5271,-4.5347,-4.5535,-4.61,-4.6188,-4.6213,-4.6301,-4.6313,-4.6313,-4.6313,-4.6313,-4.6313,-4.6313,-4.6225,-4.6188,-4.6188,-4.566,-4.5347,-4.5347,-4.4794,-4.4493,-4.4493,-4.4405,-4.4141,-4.3677,-4.3677,-4.3426,-4.2974,-4.2974,-4.2974,-4.2974,-4.2974,-4.2974,-4.2974,-4.2974,-4.2974,-4.2974,-4.2974,-4.2974,-4.2974,-4.2974,-4.2974,-4.2974,-4.2974,-4.2974,-4.2974,-4.2974,-4.2974,-4.2974,-4.2974,-4.2974,-4.2974,-4.2974,-4.2974,-4.2974,-4.2974,-4.2974,-4.2974,-4.2974,-4.2911,-4.2791,-4.2313,-4.2074,-4.163,-4.0701,-4.045,-4.0249,-3.9772,-3.9697,-3.9697,-3.9697,-3.9697,-3.9697,-3.9697,0.0,-3.9697,-3.9697,-3.9697,-3.9697,-3.9697,-3.9697,-3.9697,-3.9697,-3.9697,-3.9697,-3.9697,-3.9697,-3.9697,-3.9697,-3.9697,-3.9697,-3.9697,-3.9697,-3.9697,-3.9697,-3.9697,-3.9697,-3.9697,-3.9697,-3.9697,-3.9697,-3.9697,-3.9697,-3.9697,-3.9697,-3.9697,-3.9697,-3.9697,-3.9697,-3.9697,-3.9697,-3.9697,-3.9697,-4.5083,-4.5334,-4.561,-4.5886,-4.5937,-4.6012,-4.6276,-4.6313,-4.6313,-4.6313,-4.6313,-4.6313,-4.6313,-4.6313,-4.6313,-4.6313,-4.6313,-4.6313,-4.6313,-4.6075,-4.5937,-4.5937,-4.5397,-4.4945,-4.4631,-4.4618,-4.4505,-4.4242,-4.4242,-4.4116,-4.3865,-4.3865,-4.3865,-4.3865,-4.3865,-4.3865,-4.384,-4.3539,-4.3426,-4.3401,-4.3099,-4.2974,-4.2974,-4.2974,-4.2974,-4.2974,-4.2974,-4.2974,-4.2974,-4.2974,-4.2974,-4.2974,-4.2974,-4.2974,-4.2974,-4.2974,-4.2974,-4.2974,-4.2974,-4.2974,-4.2974,-4.2974,-4.2974,-4.2911,-4.2715,-4.2426,-4.2062,-4.1505,-4.0927,-4.0438,-4.0187,-3.9223,-3.8804,-3.9581,-3.9025,0.0,0.0,-3.9697,-3.9697,-3.9697,-3.9697,-3.9697,-3.9697,-3.9697,-3.9697,-3.9697,-3.9697,-3.9697,-3.9697,-3.9697,-3.9697,-3.9697,-3.9697,-3.9697,-3.9697,-3.9697,-3.9697,-3.9697,-3.9697,-3.9697,-3.9697,-3.9697,-3.9697,-3.9697,-3.9697,-3.9697,-3.9697,-3.9697,-3.9697,-3.9697,-3.9697,-3.9697,-3.9697,-3.9697,-3.9697,-3.9697,-4.5686,-4.6024,-4.6313,-4.6313,-4.6313,-4.6313,-4.6313,-4.6313,-4.6313,-4.6313,-4.6313,-4.6313,-4.6313,-4.6313,-4.6313,-4.6313,-4.6313,-4.6313,-4.6313,-4.6313,-4.6313,-4.6313,-4.5912,-4.5472,-4.5033,-4.502,-4.4957,-4.4819,-4.4819,-4.4756,-4.4618,-4.4618,-4.4618,-4.4618,-4.4618,-4.4618,-4.4593,-4.4166,-4.3991,-4.3953,-4.3526,-4.3363,-4.3363,-4.3363,-4.3275,-4.3175,-4.3175,-4.3087,-4.2974,-4.2974,-4.2974,-4.2974,-4.2974,-4.2974,-4.2974,-4.2974,-4.2974,-4.2974,-4.2974,-4.2974,-4.2974,-4.2974,-4.2974,-4.2974,-4.2974,-4.2703,-4.2363,-4.2238,-4.148,-4.0814,-4.0563,-3.9271,-3.8559,-3.9542,0.0,0.0,0.0,-3.9697,-3.9697,-3.9697,-3.9697,-3.9697,-3.9697,-3.9697,-3.9697,-3.9697,-3.9697,-3.9697,-3.9697,-3.9697,-3.9697,-3.9697,-3.9697,-3.9697,-3.9697,-3.9697,-3.9697,-3.9697,-3.9697,-3.9697,-3.9697,-3.9697,-3.9697,-3.9697,-3.9697,-3.9697,-3.9697,-3.9697,-3.9697,-3.9697,-3.9697,-3.9697,-3.9697,-3.9697,-3.9697,-3.9697,-4.625,-4.6288,-4.6313,-4.6313,-4.6313,-4.6313,-4.6313,-4.6313,-4.6313,-4.6313,-4.6313,-4.6313,-4.6313,-4.6313,-4.6313,-4.6313,-4.6313,-4.6313,-4.6313,-4.6313,-4.6313,-4.6313,-4.6276,-4.6225,-4.6188,-4.6188,-4.5937,-4.5422,-4.5422,-4.5146,-4.4618,-4.4618,-4.4618,-4.4618,-4.4618,-4.4618,-4.4618,-4.4581,-4.4568,-4.4556,-4.4518,-4.4505,-4.4505,-4.4505,-4.4179,-4.374,-4.374,-4.3413,-4.2974,-4.2974,-4.2974,-4.2974,-4.2974,-4.2974,-4.2974,-4.2974,-4.2974,-4.2974,-4.2974,-4.2974,-4.2974,-4.2974,-4.2974,-4.2974,-4.2974,-4.2949,-4.2828,-4.2313,-4.215,-4.1773,-4.0701,-4.037,-4.017,-3.9772,0.0,0.0,-3.9685,-3.9697,-3.9697,-3.9697,-3.9697,-3.9697,-3.9697,-3.9697,-3.9697,-3.9697,-3.9697,-3.9697,-3.9697,-3.9697,-3.9697,-3.9697,-3.9697,-3.9697,-3.9697,-3.9697,-3.9697,-3.9697,-3.9697,-3.9697,-3.9697,-3.9697,-3.9697,-3.9697,-3.9697,-3.9697,-3.9697,-3.9697,-3.9697,-3.9697,-3.9697,-3.9697,-3.9697,-3.9697,-3.9697,-3.9697,-4.6313,-4.6313,-4.6313,-4.6313,-4.6313,-4.6313,-4.6313,-4.6313,-4.6313,-4.6313,-4.6313,-4.6313,-4.6313,-4.6313,-4.6313,-4.6313,-4.6313,-4.6313,-4.6313,-4.6313,-4.6313,-4.6313,-4.6313,-4.6313,-4.6313,-4.6313,-4.6213,-4.5999,-4.5999,-4.5886,-4.5673,-4.5673,-4.5673,-4.5673,-4.5673,-4.5673,-4.5648,-4.5309,-4.5158,-4.5133,-4.4769,-4.4618,-4.4618,-4.4618,-4.4493,-4.4317,-4.4317,-4.4179,-4.3953,-4.3601,-4.3489,-4.3426,-4.3087,-4.2974,-4.2974,-4.2974,-4.2974,-4.2974,-4.2974,-4.2974,-4.2974,-4.2974,-4.2974,-4.2974,-4.2974,-4.2206,-4.1428,-4.1233,-4.0918,-4.0566,-4.0165,-3.9813,-3.9761,-4.0117,0.0,-3.9014,-3.9631,-3.8908,-3.8687,-3.9581,-3.8908,-3.8687,-3.9633,-3.9697,-3.9697,-3.9697,-3.9697,-3.9697,-3.9697,-3.9697,-3.9697,-3.9697,-3.9697,-3.9697,-3.9697,-3.9697,-3.9697,-3.9697,-3.9697,-3.9697,-3.9697,-3.9697,-3.9697,-3.9697,-3.9697,-3.9697,-3.9697,-3.9697,-3.9697,-3.9697,-3.9697,-3.9697,-3.9697,-3.9697,-3.9697,-3.9697,-4.6313,-4.6313,-4.6313,-4.6313,-4.6313,-4.6313,-4.6313,-4.6313,-4.6313,-4.6313,-4.6313,-4.6313,-4.6313,-4.6313,-4.6313,-4.6313,-4.6313,-4.6313,-4.6313,-4.6313,-4.6313,-4.6313,-4.6313,-4.6313,-4.6313,-4.6313,-4.6313,-4.6313,-4.6313,-4.6313,-4.6313,-4.6313,-4.6313,-4.6313,-4.6313,-4.6313,-4.6288,-4.5912,-4.5748,-4.5711,-4.5309,-4.5158,-4.5158,-4.5158,-4.5045,-4.4895,-4.4895,-4.4782,-4.4568,-4.4192,-4.4053,-4.3966,-4.3413,-4.3124,-4.2974,-4.2974,-4.2974,-4.2974,-4.2974,-4.2974,-4.2974,-4.2974,-4.2974,-4.2974,-4.2974,-4.2137,-4.1191,-4.0719,-4.0307,-4.0009,-3.9843,-3.9522,-3.9616,-4.0586,-3.9779,-3.9201,-3.9842,-3.8967,-3.8582,-3.9581,-3.8804,-3.8582,-3.9581,-3.9697,-3.9697,-3.9697,-3.9697,-3.9697,-3.9697,-3.9697,-3.9697,-3.9697,-3.9697,-3.9697,-3.9697,-3.9697,-3.9697,-3.9697,-3.9697,-3.9697,-3.9685,-3.9245,-3.9245,-3.9697,-3.9193,-3.9245,-3.9697,-3.9697,-3.9697,-3.9697,-3.9697,-3.9697,-3.9697,-3.9697,-3.9697,-3.9697,-4.6313,-4.6313,-4.6313,-4.6313,-4.6313,-4.6313,-4.6313,-4.6313,-4.6313,-4.6313,-4.6313,-4.6313,-4.6313,-4.6313,-4.6313,-4.6313,-4.6313,-4.6313,-4.6313,-4.6313,-4.6313,-4.6313,-4.6313,-4.6313,-4.6313,-4.6313,-4.6313,-4.6313,-4.6313,-4.6313,-4.6313,-4.6313,-4.6313,-4.6313,-4.6313,-4.6313,-4.6313,-4.6313,-4.6313,-4.6313,-4.6313,-4.6313,-4.6313,-4.6313,-4.5974,-4.5497,-4.5497,-4.5121,-4.4631,-4.4631,-4.4631,-4.4531,-4.3978,-4.3426,-4.2986,-4.2986,-4.2974,-4.2974,-4.2974,-4.2974,-4.2974,-4.2974,-4.2974,-4.2974,-4.2974,-4.2974,-4.2557,-4.0949,-4.0592,-4.0437,-3.9914,-3.9819,-4.0114,-4.1093,-4.0837,-4.0473,-4.046,-4.0049,-3.9697,-3.9697,-3.9697,-3.9697,-3.9697,-3.9697,-3.9697,-3.9697,-3.9697,-3.9697,-3.9697,-3.9697,-3.9697,-3.9697,-3.9697,-3.9685,-3.9685,-3.9685,-3.9697,-3.9697,-3.9697,-3.9697,-3.9633,-3.8178,-3.8295,-3.9581,-3.8137,-3.836,-3.9685,-3.9697,-3.9697,-3.9697,-3.9697,-3.9697,-3.9697,-3.9697,-3.9697,-3.9697,-4.6313,-4.6313,-4.6313,-4.6313,-4.6313,-4.6313,-4.6313,-4.6313,-4.6313,-4.6313,-4.6313,-4.6313,-4.6313,-4.6313,-4.6313,-4.6313,-4.6313,-4.6313,-4.6313,-4.6313,-4.6313,-4.6313,-4.6313,-4.6313,-4.6313,-4.6313,-4.6313,-4.6313,-4.6313,-4.6313,-4.6313,-4.6313,-4.6313,-4.6313,-4.6313,-4.6313,-4.6313,-4.6313,-4.6313,-4.6313,-4.6313,-4.6313,-4.6313,-4.6313,-4.6213,-4.6062,-4.6062,-4.5949,-4.5748,-4.5359,-4.5234,-4.5133,-4.4556,-4.4003,-4.3551,-4.3551,-4.3275,-4.2974,-4.2974,-4.2974,-4.2974,-4.2974,-4.2974,-4.2974,-4.2974,-4.2137,-4.1191,-4.0719,-4.0592,-4.0186,-3.8905,-3.9593,-3.9959,-3.8745,-3.9406,-3.9726,-3.8912,-3.8778,-3.8945,-3.9631,-3.8804,-3.8582,-3.9581,-3.9697,-3.9697,-3.9697,-3.9697,-3.9697,-3.9697,-3.9697,-3.9697,-3.9697,-3.8687,-3.819,-3.819,-3.9193,-3.9697,-3.9697,-3.9697,-3.9697,-3.9697,-3.9245,-3.8739,-3.819,-3.8804,-3.8687,-3.8243,-3.9245,-3.9697,-3.9697,-3.9697,-3.9697,-3.9697,-3.9697,-3.9697,-3.9697,-4.6313,-4.6313,-4.6313,-4.6313,-4.6313,-4.6313,-4.6313,-4.6313,-4.6313,-4.6313,-4.6313,-4.6313,-4.6313,-4.6313,-4.6313,-4.6313,-4.6313,-4.6313,-4.6313,-4.6313,-4.6313,-4.6313,-4.6313,-4.6313,-4.6313,-4.6313,-4.6313,-4.6313,-4.6313,-4.6313,-4.6313,-4.6313,-4.6313,-4.6313,-4.6313,-4.6313,-4.6313,-4.6313,-4.6313,-4.6313,-4.6313,-4.6313,-4.6313,-4.6313,-4.6313,-4.6313,-4.6313,-4.6313,-4.6263,-4.5924,-4.5673,-4.5434,-4.507,-4.4581,-4.4129,-4.4129,-4.374,-4.3313,-4.3313,-4.3137,-4.2974,-4.2974,-4.2974,-4.2974,-4.2974,-4.2263,-4.1374,-4.0719,-4.0592,-4.0291,-3.9347,-3.9943,-4.0197,-3.8885,-3.9311,-3.9537,-3.8884,-3.8114,-3.8029,-3.9014,-3.8333,-3.8023,-3.8764,-3.9362,-3.9697,-3.9697,-3.9697,-3.9697,-3.9697,-3.9697,-3.9697,-3.9697,-3.8243,-3.7518,-3.7518,-3.836,-3.8856,-3.8856,-3.9413,-3.9697,-3.9685,-3.9077,-3.8348,-3.7518,-3.782,-3.7423,-3.6703,-3.7595,-3.7991,-3.8031,-3.8582,-3.8856,-3.8908,-3.9465,-3.9697,-3.9697,-4.6313,-4.6313,-4.6313,-4.6313,-4.6313,-4.6313,-4.6313,-4.6313,-4.6313,-4.6313,-4.6313,-4.6313,-4.6313,-4.6313,-4.6313,-4.6313,-4.6313,-4.6313,-4.6313,-4.6313,-4.6313,-4.6313,-4.6313,-4.6313,-4.6313,-4.6313,-4.6313,-4.6313,-4.6313,-4.6313,-4.6313,-4.6313,-4.6313,-4.6313,-4.6313,-4.6313,-4.6313,-4.6313,-4.6313,-4.6313,-4.6313,-4.6313,-4.6313,-4.6313,-4.6313,-4.6313,-4.6313,-4.6313,-4.6313,-4.6313,-4.5974,-4.556,-4.556,-4.5171,-4.4706,-4.4706,-4.4305,-4.3878,-4.3878,-4.3501,-4.3112,-4.3062,-4.3049,-4.3037,-4.2986,-4.2974,-4.2557,-4.1133,-4.0834,-4.0777,-4.065,-4.0592,-4.0534,-4.0419,-4.0073,-3.9867,-3.9819,-3.825,-3.7484,-3.8435,-3.8352,-3.8053,-3.7869,-3.8939,-3.9615,-3.9615,-3.9461,-3.9436,-3.954,-3.949,-3.9581,-3.9697,-3.8243,-3.7412,-3.7305,-3.7305,-3.7358,-3.7518,-3.8856,-3.9581,-3.9633,-3.819,-3.7412,-3.7252,-3.5999,-3.5343,-3.5123,-3.5245,-3.5288,-3.5453,-3.6757,-3.7358,-3.769,-3.9025,-3.9581,-3.9697,-4.6313,-4.6313,-4.6313,-4.6313,-4.6313,-4.6313,-4.6313,-4.6313,-4.6313,-4.6313,-4.6313,-4.6313,-4.6313,-4.6313,-4.6313,-4.6313,-4.6313,-4.6313,-4.6313,-4.6313,-4.6313,-4.6313,-4.6313,-4.6313,-4.6313,-4.6313,-4.6313,-4.6313,-4.6313,-4.6313,-4.6313,-4.6313,-4.6313,-4.6313,-4.6313,-4.6313,-4.6313,-4.6313,-4.6313,-4.6313,-4.6313,-4.6313,-4.6313,-4.6313,-4.6313,-4.6313,-4.6313,-4.6313,-4.6313,-4.6313,-4.6225,-4.6137,-4.6137,-4.5748,-4.5296,-4.5296,-4.4895,-4.4443,-4.4443,-4.4355,-4.4166,-4.3727,-4.3627,-4.3514,-4.3074,-4.2974,-4.2918,-4.2557,-4.25,-4.2081,-4.0834,-4.0592,-4.0175,-3.8935,-3.9674,-4.0283,-3.9867,-4.0478,-4.0899,-4.0707,-3.9528,-3.9194,-4.0364,-3.9654,-3.9073,-3.9073,-3.7629,-3.7243,-3.8395,-3.813,-3.8518,-3.9633,-3.8243,-3.6972,-3.5781,-3.5781,-3.6379,-3.7518,-3.7796,-3.857,-3.9633,-3.819,-3.6865,-3.5836,-3.6649,-3.5715,-3.3687,-3.4847,-3.5288,-3.5354,-3.5672,-3.6487,-3.7518,-3.7861,-3.8687,-3.9697,-4.6313,-4.6313,-4.6313,-4.6313,-4.6313,-4.6313,-4.6313,-4.6313,-4.6313,-4.6313,-4.6313,-4.6313,-4.6313,-4.6313,-4.6313,-4.6313,-4.6313,-4.6313,-4.6313,-4.6313,-4.6313,-4.6313,-4.6313,-4.6313,-4.6313,-4.6313,-4.6313,-4.6313,-4.6313,-4.6313,-4.6313,-4.6313,-4.6313,-4.6313,-4.6313,-4.6313,-4.6313,-4.6313,-4.6313,-4.6313,-4.6313,-4.6313,-4.6313,-4.6313,-4.6313,-4.6313,-4.6313,-4.6313,-4.6313,-4.6313,-4.6313,-4.6313,-4.6313,-4.6112,-4.5886,-4.5886,-4.5485,-4.5033,-4.5033,-4.4832,-4.4556,-4.4267,-4.4192,-4.3978,-4.3162,-4.2974,-4.2974,-4.2974,-4.2974,-4.2737,-4.1899,-4.1728,-4.1248,-3.9581,-4.0059,-4.0497,-4.0223,-4.0245,-4.0406,-4.0648,-3.9874,-3.9876,-4.1193,-4.0523,-4.005,-4.005,-3.906,-3.8508,-3.8485,-3.829,-3.8202,-3.8226,-3.7492,-3.6752,-3.5983,-3.6708,-3.7095,-3.7084,-3.6653,-3.6876,-3.7595,-3.753,-3.6314,-3.4348,-3.5836,-3.4792,-3.2092,-3.2871,-3.3212,-3.3258,-3.3968,-3.4725,-3.5497,-3.6205,-3.737,-3.8739,-4.6313,-4.6313,-4.6313,-4.6313,-4.6313,-4.6313,-4.6313,-4.6313,-4.6313,-4.6313,-4.6313,-4.6313,-4.6313,-4.6313,-4.6313,-4.6313,-4.6313,-4.6313,-4.6313,-4.6313,-4.6313,-4.6313,-4.6313,-4.6313,-4.6313,-4.6313,-4.6313,-4.6313,-4.6313,-4.6313,-4.6313,-4.6313,-4.6313,-4.6313,-4.6313,-4.6313,-4.6313,-4.6313,-4.6313,-4.6313,-4.6313,-4.6313,-4.6313,-4.6313,-4.6313,-4.6313,-4.6313,-4.6313,-4.6313,-4.6313,-4.6313,-4.6313,-4.6313,-4.6313,-4.6313,-4.6313,-4.5987,-4.5635,-4.5635,-4.5284,-4.4882,-4.4794,-4.4769,-4.4505,-4.3489,-4.3187,-4.3124,-4.3124,-4.3037,-4.2974,-4.2974,-4.2974,-4.2557,-4.1248,-4.1007,-4.1007,-4.1007,-3.9884,-3.9372,-4.0362,-4.0427,-4.0539,-4.1141,-4.1159,-4.1159,-4.1159,-4.0842,-4.0208,-3.9086,-3.8712,-3.8038,-3.7042,-3.6802,-3.6573,-3.6285,-3.7881,-3.7881,-3.6321,-3.5534,-3.528,-3.5412,-3.636,-3.5431,-3.318,-3.4403,-3.3371,-3.0889,-3.0889,-3.0889,-3.0995,-3.2264,-3.2861,-3.3293,-3.5068,-3.6433,-3.769,-4.6313,-4.6313,-4.6313,-4.6313,-4.6313,-4.6313,-4.6313,-4.6313,-4.6313,-4.6313,-4.6313,-4.6313,-4.6313,-4.6313,-4.6313,-4.6313,-4.6313,-4.6313,-4.6313,-4.6313,-4.6313,-4.6313,-4.6313,-4.6313,-4.6313,-4.6313,-4.6313,-4.6313,-4.6313,-4.6313,-4.6313,-4.6313,-4.6313,-4.6313,-4.6313,-4.6313,-4.6313,-4.6313,-4.6313,-4.6313,-4.6313,-4.6313,-4.6313,-4.6313,-4.6313,-4.6313,-4.6313,-4.6313,-4.6313,-4.6313,-4.6313,-4.6313,-4.6313,-4.6313,-4.6313,-4.6313,-4.6263,-4.62,-4.62,-4.6137,-4.5974,-4.5485,-4.5372,-4.5196,-4.4556,-4.4028,-4.3689,-4.3689,-4.3313,-4.2974,-4.2974,-4.2974,-4.2918,-4.2737,-4.2681,-4.2681,-4.2681,-4.25,-4.2419,-4.2582,-4.2569,-4.2058,-4.0803,-4.0676,-4.0676,-4.0676,-3.9104,-3.8562,-3.9587,-3.7941,-3.7474,-3.8554,-3.7315,-3.5997,-3.4736,-3.6228,-3.6274,-3.4774,-3.4646,-3.5006,-3.5781,-3.4365,-3.3462,-3.3134,-3.3293,-3.2426,-3.0889,-3.0889,-3.0889,-3.0889,-3.1112,-3.1988,-3.3406,-3.6205,-3.7358,-3.769,-4.6313,-4.6313,-4.6313,-4.6313,-4.6313,-4.6313,-4.6313,-4.6313,-4.6313,-4.6313,-4.6313,-4.6313,-4.6313,-4.6313,-4.6313,-4.6313,-4.6313,-4.6313,-4.6313,-4.6313,-4.6313,-4.6313,-4.6313,-4.6313,-4.6313,-4.6313,-4.6313,-4.6313,-4.6313,-4.6313,-4.6313,-4.6313,-4.6313,-4.6313,-4.6313,-4.6313,-4.6313,-4.6313,-4.6313,-4.6313,-4.6313,-4.6313,-4.6313,-4.6313,-4.6313,-4.6313,-4.6313,-4.6313,-4.6313,-4.6313,-4.6313,-4.6313,-4.6313,-4.6313,-4.6313,-4.6313,-4.6313,-4.6313,-4.6313,-4.6313,-4.625,-4.6012,-4.5949,-4.5886,-4.5623,-4.5133,-4.4644,-4.433,-4.4066,-4.3592,-4.269,-4.226,-4.211,-4.1983,-4.1797,-4.1968,-4.2862,-4.2974,-4.2974,-4.2974,-4.2974,-4.2737,-4.2024,-4.1955,-4.1955,-4.1955,-4.11,-4.05,-4.0247,-3.9381,-3.8366,-3.7188,-3.7387,-3.675,-3.5208,-3.6739,-3.6739,-3.5257,-3.5887,-3.586,-3.5093,-3.4217,-3.3399,-3.2609,-3.3447,-3.3011,-3.1601,-3.1601,-3.1465,-3.124,-3.124,-3.1484,-3.215,-3.4292,-3.5046,-3.5277]},{"header":{"parameterUnit":"m.s-1","parameterCategory":1,"la1":30.6,"la2":28.766,"lo1":-90.7593,"lo2":-88.6598,"dy":0.0162,"dx":0.0183,"nx":116,"ny":114,"refTime":"2024-04-24T12:00:00:Z","depth":0,"parameterNumber":3,"parameterNumberName":"V-component_of_WINDS"},"data":[0.0,0.0,0.0,0.0,0.0,0.0,0.0,0.0,0.0,0.0,0.0,0.0,0.0,0.0,0.0,0.0,0.0,0.0,0.0,0.0,0.0,0.0,0.0,0.0,0.0,0.0,0.0,0.0,0.0,0.0,0.0,0.0,0.0,0.0,0.0,0.0,0.0,0.0,0.0,0.0,0.0,0.0,0.0,0.0,0.0,0.0,0.0,0.0,0.0,0.0,0.0,0.0,0.0,0.0,0.0,0.0,0.0,0.0,0.0,0.0,0.0,0.0,0.0,0.0,0.0,0.0,0.0,0.0,0.0,0.0,0.0,0.0,0.0,0.0,0.0,0.0,0.0,0.0,0.0,0.0,0.0,0.0,0.0,0.0,0.0,0.0,0.0,0.0,0.0,0.0,0.0,0.0,0.0,0.0,0.0,0.0,0.0,0.0,0.0,0.0,0.0,0.0,0.0,0.0,0.0,0.0,0.0,0.0,0.0,0.0,0.0,0.0,0.0,0.0,0.0,0.0,0.0,0.0,0.0,0.0,0.0,0.0,0.0,0.0,0.0,0.0,0.0,0.0,0.0,0.0,0.0,0.0,0.0,0.0,0.0,0.0,0.0,0.0,0.0,0.0,0.0,0.0,0.0,0.0,0.0,0.0,0.0,0.0,0.0,0.0,0.0,0.0,0.0,0.0,0.0,0.0,0.0,0.0,0.0,0.0,0.0,0.0,0.0,0.0,0.0,0.0,0.0,0.0,0.0,0.0,0.0,0.0,0.0,0.0,0.0,0.0,0.0,0.0,0.0,0.0,0.0,0.0,0.0,0.0,0.0,0.0,0.0,0.0,0.0,0.0,0.0,0.0,0.0,0.0,0.0,0.0,0.0,0.0,0.0,0.0,0.0,0.0,0.0,0.0,0.0,0.0,0.0,0.0,0.0,0.0,0.0,0.0,0.0,0.0,0.0,0.0,0.0,0.0,0.0,0.0,0.0,0.0,0.0,0.0,0.0,0.0,0.0,0.0,0.0,0.0,0.0,0.0,0.0,0.0,0.0,0.0,0.0,0.0,0.0,0.0,0.0,0.0,0.0,0.0,0.0,0.0,0.0,0.0,0.0,0.0,0.0,0.0,0.0,0.0,0.0,0.0,0.0,0.0,0.0,0.0,0.0,0.0,0.0,0.0,0.0,0.0,0.0,0.0,0.0,0.0,0.0,0.0,0.0,0.0,0.0,0.0,0.0,0.0,0.0,0.0,0.0,0.0,0.0,0.0,0.0,0.0,0.0,0.0,0.0,0.0,0.0,0.0,0.0,0.0,0.0,0.0,0.0,0.0,0.0,0.0,0.0,0.0,0.0,0.0,0.0,0.0,0.0,0.0,0.0,0.0,0.0,0.0,0.0,0.0,0.0,0.0,0.0,0.0,0.0,0.0,0.0,0.0,0.0,0.0,0.0,0.0,0.0,0.0,0.0,0.0,0.0,0.0,0.0,0.0,0.0,0.0,0.0,0.0,0.0,0.0,0.0,0.0,0.0,0.0,0.0,0.0,0.0,0.0,0.0,0.0,0.0,0.0,0.0,0.0,0.0,0.0,0.0,0.0,0.0,0.0,0.0,0.0,0.0,0.0,0.0,0.0,0.0,0.0,0.0,0.0,0.0,0.0,0.0,0.0,0.0,0.0,0.0,0.0,0.0,0.0,0.0,0.0,0.0,0.0,0.0,0.0,0.0,0.0,0.0,0.0,0.0,0.0,0.0,0.0,0.0,0.0,0.0,0.0,0.0,0.0,0.0,0.0,0.0,0.0,0.0,0.0,0.0,0.0,0.0,0.0,0.0,0.0,0.0,0.0,0.0,0.0,0.0,0.0,0.0,0.0,0.0,0.0,0.0,0.0,0.0,0.0,0.0,0.0,0.0,0.0,0.0,0.0,0.0,0.0,0.0,0.0,0.0,0.0,0.0,0.0,0.0,0.0,0.0,0.0,0.0,0.0,0.0,0.0,0.0,0.0,0.0,0.0,0.0,0.0,0.0,0.0,0.0,0.0,0.0,0.0,0.0,0.0,0.0,0.0,0.0,0.0,0.0,0.0,0.0,0.0,0.0,0.0,0.0,0.0,0.0,0.0,0.0,0.0,0.0,0.0,0.0,0.0,0.0,0.0,0.0,0.0,0.0,0.0,0.0,0.0,0.0,0.0,0.0,0.0,0.0,0.0,0.0,0.0,0.0,0.0,0.0,0.0,0.0,0.0,0.0,0.0,0.0,0.0,0.0,0.0,0.0,0.0,0.0,0.0,0.0,0.0,0.0,0.0,0.0,0.0,0.0,0.0,0.0,0.0,0.0,0.0,0.0,0.0,0.0,0.0,0.0,0.0,0.0,0.0,0.0,0.0,0.0,0.0,0.0,0.0,0.0,0.0,0.0,0.0,0.0,0.0,0.0,0.0,0.0,0.0,0.0,0.0,0.0,0.0,0.0,0.0,0.0,0.0,0.0,0.0,0.0,0.0,0.0,0.0,0.0,0.0,0.0,0.0,0.0,0.0,0.0,0.0,0.0,0.0,0.0,0.0,0.0,0.0,0.0,0.0,0.0,0.0,0.0,0.0,0.0,0.0,0.0,0.0,0.0,0.0,0.0,0.0,0.0,0.0,0.0,0.0,0.0,0.0,0.0,0.0,0.0,0.0,0.0,0.0,0.0,0.0,0.0,0.0,0.0,0.0,0.0,0.0,0.0,0.0,0.0,0.0,0.0,0.0,0.0,0.0,0.0,0.0,0.0,0.0,0.0,0.0,0.0,0.0,0.0,0.0,0.0,0.0,0.0,0.0,0.0,0.0,0.0,0.0,0.0,0.0,0.0,0.0,0.0,0.0,0.0,0.0,0.0,0.0,0.0,0.0,0.0,0.0,0.0,0.0,0.0,0.0,0.0,0.0,0.0,0.0,0.0,0.0,0.0,0.0,0.0,0.0,0.0,0.0,0.0,0.0,0.0,0.0,0.0,0.0,0.0,0.0,0.0,0.0,0.0,0.0,0.0,0.0,0.0,0.0,0.0,0.0,0.0,0.0,0.0,0.0,0.0,0.0,0.0,0.0,0.0,0.0,0.0,0.0,0.0,0.0,0.0,0.0,0.0,0.0,0.0,0.0,0.0,0.0,0.0,0.0,0.0,0.0,0.0,0.0,0.0,0.0,0.0,0.0,0.0,0.0,0.0,0.0,0.0,0.0,0.0,0.0,0.0,0.0,0.0,0.0,0.0,0.0,0.0,0.0,0.0,0.0,0.0,0.0,0.0,0.0,0.0,0.0,0.0,0.0,0.0,0.0,0.0,0.0,0.0,0.0,0.0,0.0,0.0,0.0,0.0,0.0,0.0,0.0,0.0,0.0,0.0,0.0,0.0,0.0,0.0,0.0,0.0,0.0,0.0,0.0,0.0,0.0,0.0,0.0,0.0,0.0,0.0,0.0,0.0,0.0,0.0,0.0,0.0,0.0,0.0,0.0,0.0,0.0,0.0,0.0,0.0,0.0,0.0,0.0,0.0,0.0,0.0,0.0,0.0,0.0,0.0,0.0,0.0,0.0,0.0,0.0,0.0,0.0,0.0,0.0,0.0,0.0,0.0,0.0,0.0,0.0,0.0,0.0,0.0,0.0,0.0,0.0,0.0,0.0,0.0,0.0,0.0,0.0,0.0,0.0,0.0,0.0,0.0,0.0,0.0,0.0,0.0,0.0,0.0,0.0,0.0,0.0,0.0,0.0,0.0,0.0,0.0,0.0,0.0,0.0,0.0,0.0,0.0,0.0,0.0,0.0,0.0,0.0,0.0,0.0,0.0,0.0,0.0,0.0,0.0,0.0,0.0,0.0,0.0,0.0,0.0,0.0,0.0,0.0,0.0,0.0,0.0,0.0,0.0,0.0,0.0,0.0,0.0,0.0,0.0,0.0,0.0,0.0,0.0,0.0,0.0,0.0,0.0,0.0,0.0,0.0,0.0,0.0,0.0,0.0,0.0,0.0,0.0,0.0,0.0,0.0,0.0,0.0,0.0,0.0,0.0,0.0,0.0,0.0,0.0,0.0,0.0,0.0,0.0,0.0,0.0,0.0,0.0,0.0,0.0,0.0,0.0,0.0,0.0,0.0,0.0,0.0,0.0,0.0,0.0,0.0,0.0,0.0,0.0,0.0,0.0,0.0,0.0,0.0,0.0,0.0,0.0,0.0,0.0,0.0,0.0,0.0,0.0,0.0,0.0,0.0,0.0,0.0,0.0,0.0,0.0,0.0,0.0,0.0,0.0,0.0,0.0,0.0,0.0,0.0,0.0,0.0,0.0,0.0,0.0,0.0,0.0,0.0,0.0,0.0,0.0,0.0,0.0,0.0,0.0,0.0,0.0,0.0,0.0,0.0,0.0,0.0,0.0,0.0,0.0,0.0,0.0,0.0,0.0,0.0,0.0,0.0,0.0,0.0,0.0,0.0,0.0,0.0,0.0,0.0,0.0,0.0,0.0,0.0,0.0,0.0,0.0,0.0,0.0,0.0,0.0,0.0,0.0,0.0,0.0,0.0,0.0,0.0,0.0,0.0,0.0,0.0,0.0,0.0,0.0,0.0,0.0,0.0,0.0,0.0,0.0,0.0,0.0,0.0,0.0,0.0,0.0,0.0,0.0,0.0,0.0,0.0,0.0,0.0,0.0,0.0,0.0,0.0,0.0,0.0,0.0,0.0,0.0,0.0,0.0,0.0,0.0,0.0,0.0,0.0,0.0,0.0,0.0,0.0,0.0,0.0,0.0,0.0,0.0,0.0,0.0,0.0,0.0,0.0,0.0,0.0,0.0,0.0,0.0,0.0,0.0,0.0,0.0,0.0,0.0,0.0,0.0,0.0,0.0,0.0,0.0,0.0,0.0,0.0,0.0,0.0,0.0,0.0,0.0,0.0,0.0,0.0,0.0,0.0,0.0,0.0,0.0,0.0,0.0,0.0,0.0,0.0,0.0,0.0,0.0,0.0,0.0,0.0,0.0,0.0,0.0,0.0,0.0,0.0,0.0,0.0,0.0,0.0,0.0,0.0,0.0,0.0,0.0,0.0,0.0,0.0,0.0,0.0,0.0,0.0,0.0,0.0,0.0,0.0,0.0,0.0,0.0,0.0,0.0,0.0,0.0,0.0,0.0,0.0,0.0,0.0,0.0,0.0,0.0,0.0,0.0,0.0,0.0,0.0,0.0,0.0,0.0,0.0,0.0,0.0,0.0,0.0,0.0,0.0,0.0,0.0,0.0,0.0,0.0,0.0,0.0,0.0,0.0,0.0,0.0,0.0,0.0,0.0,0.0,0.0,0.0,0.0,0.0,0.0,0.0,0.0,0.0,0.0,0.0,0.0,0.0,0.0,0.0,0.0,0.0,0.0,0.0,0.0,0.0,0.0,0.0,0.0,0.0,0.0,0.0,0.0,0.0,0.0,0.0,0.0,0.0,0.0,0.0,0.0,0.0,0.0,0.0,0.0,0.0,0.0,0.0,0.0,0.0,0.0,0.0,0.0,0.0,0.0,0.0,0.0,0.0,0.0,0.0,0.0,0.0,0.0,0.0,0.0,0.0,0.0,0.0,0.0,0.0,0.0,0.0,0.0,0.0,0.0,0.0,0.0,0.0,0.0,0.0,0.0,0.0,0.0,0.0,0.0,0.0,0.0,0.0,0.0,0.0,0.0,0.0,0.0,0.0,0.0,0.0,0.0,0.0,0.0,0.0,0.0,0.0,0.0,0.0,0.0,0.0,0.0,0.0,0.0,0.0,0.0,0.0,0.0,0.0,0.0,0.0,0.0,0.0,0.0,0.0,0.0,0.0,0.0,0.0,0.0,0.0,0.0,0.0,0.0,0.0,0.0,0.0,0.0,0.0,0.0,0.0,0.0,0.0,0.0,0.0,0.0,0.0,0.0,0.0,0.0,0.0,0.0,0.0,0.0,0.0,0.0,0.0,0.0,0.0,0.0,0.0,0.0,0.0,0.0,0.0,0.0,0.0,0.0,0.0,0.0,0.0,0.0,0.0,0.0,0.0,0.0,0.0,0.0,0.0,0.0,0.0,0.0,0.0,0.0,0.0,0.0,0.0,0.0,0.0,0.0,0.0,0.0,3.0552,0.0,0.0,0.0,0.0,0.0,0.0,0.0,0.0,0.0,0.0,0.0,0.0,0.0,0.0,0.0,0.0,0.0,0.0,0.0,0.0,0.0,0.0,0.0,0.0,3.0445,3.0454,3.0517,3.0788,3.0973,3.0971,3.1316,3.1511,3.1511,3.1511,3.1511,3.1511,3.1511,3.1511,3.1511,3.1511,3.1511,3.1511,3.1511,3.1511,3.1511,0.0,0.0,0.0,0.0,0.0,0.0,0.0,0.0,0.0,0.0,0.0,0.0,0.0,0.0,0.0,0.0,0.0,0.0,0.0,0.0,0.0,0.0,0.0,0.0,0.0,0.0,0.0,0.0,0.0,0.0,0.0,0.0,0.0,0.0,0.0,0.0,0.0,0.0,0.0,0.0,0.0,0.0,0.0,0.0,0.0,0.0,0.0,0.0,0.0,0.0,0.0,0.0,0.0,0.0,0.0,0.0,0.0,0.0,0.0,0.0,0.0,0.0,0.0,0.0,0.0,0.0,0.0,0.0,0.0,0.0,0.0,3.0972,0.0,0.0,0.0,0.0,0.0,0.0,0.0,0.0,0.0,0.0,0.0,0.0,0.0,0.0,0.0,0.0,0.0,0.0,0.0,0.0,0.0,2.9943,3.0598,3.0572,3.0559,3.0655,3.0687,3.0898,3.1466,3.1511,3.1511,3.1511,3.1511,3.1511,3.1511,3.1511,3.1511,3.1511,3.1511,3.1511,3.1511,3.1511,3.1511,3.1511,3.1511,0.0,0.0,0.0,0.0,0.0,0.0,0.0,0.0,0.0,0.0,0.0,0.0,0.0,0.0,0.0,0.0,0.0,0.0,0.0,0.0,0.0,0.0,0.0,0.0,0.0,0.0,0.0,0.0,0.0,0.0,0.0,0.0,0.0,0.0,0.0,0.0,0.0,0.0,0.0,0.0,0.0,0.0,0.0,0.0,0.0,0.0,0.0,0.0,0.0,0.0,0.0,0.0,0.0,0.0,0.0,0.0,0.0,0.0,0.0,0.0,0.0,0.0,0.0,3.3499,3.3499,3.3499,3.3499,3.3499,3.344,3.2318,3.1854,3.1854,0.0,0.0,0.0,0.0,0.0,0.0,0.0,0.0,0.0,0.0,0.0,0.0,0.0,0.0,0.0,0.0,0.0,0.0,0.0,0.0,3.0613,3.1195,3.0794,3.0726,3.1316,3.1376,3.1406,3.1496,3.1511,3.1511,3.1511,3.1511,3.1511,3.1511,3.1511,3.1511,3.1511,3.1511,3.1511,3.1511,3.1511,3.1511,3.1511,3.1511,3.1511,3.1511,0.0,0.0,0.0,0.0,0.0,0.0,0.0,0.0,0.0,0.0,0.0,0.0,0.0,0.0,0.0,0.0,0.0,0.0,0.0,0.0,0.0,0.0,0.0,0.0,0.0,0.0,0.0,0.0,0.0,0.0,0.0,0.0,0.0,0.0,0.0,0.0,0.0,0.0,0.0,0.0,0.0,3.1256,3.1256,0.0,0.0,0.0,0.0,0.0,0.0,0.0,0.0,0.0,0.0,0.0,0.0,0.0,3.3499,3.3499,3.3499,3.3499,3.3499,3.3499,3.3499,3.3499,3.3499,3.3499,3.3484,3.3305,0.0,3.3245,3.3245,0.0,0.0,0.0,0.0,0.0,0.0,0.0,0.0,0.0,0.0,0.0,0.0,0.0,0.0,0.0,0.0,0.0,0.0,0.0,0.0,0.0,3.1468,3.1366,3.2061,3.1739,3.1511,3.1511,3.1511,3.1511,3.1511,3.1511,3.1511,3.1511,3.1511,3.1511,3.1511,3.1511,3.1511,3.1511,3.1511,3.1511,3.1511,3.1511,3.1511,3.1511,3.1511,0.0,0.0,0.0,0.0,0.0,0.0,0.0,0.0,0.0,0.0,0.0,0.0,0.0,0.0,0.0,0.0,0.0,0.0,0.0,0.0,0.0,0.0,0.0,0.0,0.0,0.0,0.0,0.0,0.0,0.0,0.0,0.0,0.0,0.0,0.0,0.0,0.0,0.0,0.0,3.163,3.2049,3.2049,3.2378,3.2751,0.0,0.0,0.0,0.0,0.0,0.0,0.0,0.0,0.0,3.4038,3.4427,3.4622,3.4622,3.4622,3.4622,3.4622,3.4622,3.4622,3.4622,3.4622,3.4622,3.4622,3.4622,3.4622,3.4577,3.3799,3.3499,3.3499,0.0,0.0,0.0,0.0,3.3305,3.3066,0.0,0.0,0.0,0.0,0.0,0.0,0.0,0.0,0.0,0.0,0.0,0.0,3.2182,3.1824,3.171,3.2272,3.1824,3.1511,3.1511,3.1511,3.1511,3.1511,3.1511,3.1511,3.1511,3.1511,3.1511,3.1511,3.1675,3.175,3.175,3.2147,3.2193,3.2004,3.2222,3.2013,3.1511,3.1511,3.1511,3.1511,0.0,0.0,0.0,0.0,0.0,0.0,0.0,0.0,0.0,0.0,0.0,0.0,0.0,0.0,0.0,0.0,0.0,0.0,0.0,0.0,0.0,0.0,0.0,0.0,0.0,0.0,0.0,0.0,0.0,0.0,0.0,0.0,0.0,0.0,0.0,0.0,0.0,3.2452,3.2766,3.2766,3.32,3.3559,0.0,0.0,0.0,0.0,0.0,0.0,3.4008,3.4472,3.4773,3.4773,3.54,3.5759,3.5759,3.5908,3.5998,3.5998,3.5998,3.5998,3.5998,3.5998,3.5998,3.5998,3.5998,3.5998,3.5893,3.4562,3.4008,3.4008,3.4008,3.4008,3.4008,3.4008,3.3903,3.3739,0.0,0.0,0.0,0.0,0.0,0.0,0.0,0.0,0.0,0.0,0.0,3.1466,3.1553,3.1524,3.1496,3.1553,3.1524,3.1511,3.1511,3.1511,3.1511,3.1511,3.1511,3.1511,3.1511,3.1511,3.1511,3.1511,3.2123,3.2437,3.2482,3.3868,3.413,3.3425,3.4189,3.3397,3.1511,3.1511,3.1511,3.1555,3.2183,0.0,0.0,0.0,0.0,0.0,0.0,0.0,0.0,0.0,0.0,0.0,0.0,0.0,0.0,0.0,0.0,0.0,0.0,0.0,0.0,0.0,0.0,0.0,0.0,0.0,0.0,0.0,0.0,0.0,0.0,0.0,0.0,0.0,0.0,0.0,0.0,0.0,0.0,3.344,3.3469,0.0,0.0,0.0,0.0,3.5355,3.54,3.54,3.54,3.5429,3.5444,3.5444,3.6088,3.6432,3.6432,3.703,3.7315,3.7315,3.7315,3.7315,3.7315,3.7315,3.7315,3.7315,3.7315,3.7315,3.7225,3.5938,3.54,3.54,3.54,3.54,3.54,3.54,3.4996,3.4459,0.0,0.0,0.0,0.0,0.0,3.1881,3.1881,3.1668,3.1511,3.1511,3.1511,3.1682,3.2148,3.1796,3.1697,3.2176,3.1768,3.1511,3.1511,3.1511,3.1511,3.1511,3.1511,3.1511,3.1511,3.2418,3.2929,3.2929,3.4057,3.4623,3.4638,3.5169,3.5252,3.4999,3.528,3.4984,3.4206,3.3197,3.2796,3.2826,3.3051,3.3006,0.0,0.0,0.0,0.0,0.0,0.0,0.0,0.0,0.0,0.0,0.0,0.0,0.0,0.0,0.0,0.0,0.0,0.0,0.0,0.0,0.0,0.0,0.0,0.0,0.0,0.0,0.0,0.0,0.0,0.0,0.0,0.0,0.0,0.0,0.0,0.0,0.0,3.4159,3.4517,0.0,3.5115,3.513,3.5235,3.5489,3.5504,3.5684,3.6118,3.6133,3.6312,3.6716,3.6956,3.7075,3.7075,3.73,3.7404,3.7404,3.7404,3.7404,3.7404,3.7404,3.7404,3.7404,3.7404,3.7404,3.7375,3.6926,3.6731,3.6731,3.6731,3.6492,3.6133,3.6133,3.5714,3.513,0.0,0.0,0.0,3.2355,3.1824,3.1511,3.1511,3.1511,3.1511,3.1511,3.1511,3.1697,3.2176,3.1796,3.1697,3.2203,3.1768,3.1511,3.1511,3.1511,3.1511,3.1511,3.1511,3.1615,3.1824,3.2796,3.3405,3.3619,3.4787,3.5373,3.5373,3.5849,3.5947,3.5705,3.596,3.6073,3.5989,3.4699,3.4089,3.391,3.4122,3.3909,3.3514,0.0,0.0,0.0,0.0,0.0,0.0,0.0,0.0,0.0,0.0,0.0,0.0,0.0,0.0,0.0,0.0,0.0,0.0,0.0,0.0,0.0,0.0,0.0,0.0,0.0,0.0,0.0,0.0,0.0,0.0,0.0,0.0,0.0,0.0,0.0,3.4848,3.4848,3.5235,3.5594,3.5818,3.5833,3.5923,3.6133,3.6148,3.6327,3.6776,3.6791,3.6985,3.7404,3.7629,3.7749,3.7749,3.7973,3.8078,3.8078,3.8078,3.8078,3.8078,3.8078,3.8078,3.8078,3.8078,3.8078,3.8078,3.8078,3.8078,3.8048,3.7584,3.7165,3.6791,3.6791,3.6522,3.6148,0.0,3.3039,3.2355,3.164,3.1511,3.1511,3.1511,3.1511,3.1511,3.1511,3.1511,3.1511,3.1511,3.1511,3.1511,3.1511,3.1511,3.1511,3.1511,3.1511,3.1511,3.1511,3.1525,3.1839,3.2497,3.2557,3.2901,3.356,3.4266,3.4596,3.4628,3.5984,3.6259,3.5587,3.6306,3.6646,3.6584,3.5863,3.5261,3.4814,3.5375,3.4789,3.365,0.0,0.0,0.0,0.0,0.0,0.0,0.0,0.0,0.0,0.0,0.0,0.0,0.0,0.0,0.0,0.0,0.0,0.0,0.0,0.0,0.0,0.0,0.0,0.0,0.0,0.0,0.0,0.0,0.0,0.0,0.0,0.0,0.0,3.5504,3.5519,3.5534,3.5534,3.5549,3.5804,3.6447,3.6507,3.6761,3.736,3.7404,3.7419,3.7434,3.7434,3.7449,3.7464,3.8093,3.8422,3.8422,3.911,3.9454,3.9418,3.9433,3.9448,3.9448,3.9448,3.9448,3.9448,3.9454,3.9454,3.9454,3.9388,3.9388,3.9254,3.7973,3.7464,3.7434,3.7434,3.7419,3.7404,0.0,3.2722,3.2355,3.164,3.1511,3.1511,3.1511,3.1511,3.1511,3.1511,3.1511,3.1511,3.1511,3.1511,3.1511,3.1511,3.1511,3.1511,3.1511,3.1511,3.1511,3.1511,3.1959,3.2303,3.2512,3.3998,3.4847,3.5001,3.628,3.6877,3.6892,3.7273,3.7368,3.7175,3.7368,3.7485,3.7456,3.7265,3.6746,3.6058,3.5688,3.5611,3.5707,0.0,0.0,0.0,0.0,0.0,0.0,0.0,0.0,0.0,0.0,0.0,0.0,0.0,0.0,0.0,0.0,0.0,0.0,0.0,0.0,0.0,0.0,0.0,0.0,0.0,0.0,0.0,0.0,0.0,0.0,0.0,3.6222,3.6058,3.5564,3.5908,3.6222,3.6222,3.6611,3.6956,3.7135,3.715,3.7225,3.7404,3.7404,3.7614,3.8093,3.8123,3.8347,3.882,3.905,3.914,3.914,3.9798,4.0127,4.0127,4.0606,4.0846,4.0846,4.0846,4.0846,4.0816,4.0337,4.0127,4.0098,3.9619,3.9388,3.9343,3.9005,3.8556,3.8123,3.8123,3.7823,3.7404,0.0,3.2355,3.2007,3.1582,3.1511,3.1511,3.1511,3.1511,3.1511,3.1511,3.1511,3.1511,3.1511,3.1511,3.1511,3.1511,3.1511,3.1511,3.1511,3.1511,3.1511,3.1511,3.2123,3.2647,3.2916,3.4395,3.5294,3.5553,3.643,3.6829,3.6829,3.6829,3.6829,3.6829,3.6829,3.6995,3.7279,3.6981,3.6935,3.701,3.5926,3.575,3.6086,3.5668,3.5504,3.5504,3.5504,3.525,3.4906,3.4906,0.0,0.0,0.0,0.0,0.0,0.0,0.0,0.0,0.0,0.0,0.0,0.0,0.0,0.0,0.0,0.0,0.0,0.0,0.0,0.0,0.0,0.0,0.0,0.0,3.6881,3.6746,3.6357,3.6626,3.6881,3.6881,3.7195,3.7524,3.7793,3.7823,3.7943,3.8227,3.8257,3.8422,3.8796,3.908,3.9409,3.9813,4.0098,4.0247,4.0247,4.0621,4.0816,4.0816,4.119,4.1422,4.1422,4.1422,4.1422,0.0,4.098,4.0816,4.0786,4.0397,4.0247,0.0,0.0,0.0,0.0,0.0,3.8571,3.8257,3.2614,3.1951,3.1511,3.1511,3.1511,3.1511,3.1511,3.1511,3.1511,3.1511,3.1511,3.1511,3.1511,3.1511,3.1511,3.1511,3.1511,3.1511,3.1511,3.1511,3.1511,3.1511,3.2198,3.2901,3.3484,3.4249,3.4891,3.5504,3.5504,3.5504,3.5504,3.5504,3.5504,3.5504,3.5504,3.5863,3.6446,3.5782,3.629,3.7413,3.6053,3.5554,3.5619,3.5537,3.5504,3.5504,3.5504,3.5504,3.5504,3.5504,0.0,0.0,0.0,0.0,0.0,0.0,0.0,0.0,0.0,0.0,0.0,0.0,0.0,0.0,0.0,0.0,0.0,0.0,0.0,0.0,0.0,0.0,0.0,0.0,3.7524,3.7539,3.7614,3.7644,3.7614,3.7524,3.7584,3.7868,3.8452,3.8497,3.8751,3.9379,3.9448,3.9493,3.9493,0.0,0.0,0.0,0.0,4.1422,4.1422,4.1444,4.1527,4.1527,4.1564,4.1594,4.1594,4.1594,4.1594,4.1594,4.1519,4.1527,4.1527,4.1452,4.1422,4.125,4.0023,3.9493,3.9514,3.9454,3.9388,3.9388,3.1979,3.1582,3.1511,3.1511,3.1511,3.1511,3.1511,3.1511,3.1511,3.1511,3.1511,3.1511,3.1511,3.1511,3.1511,3.1511,3.1511,3.1511,3.1511,3.1511,3.1511,3.1511,3.2677,3.3365,3.3499,3.4681,3.537,3.5504,3.5504,3.5504,3.5504,3.5504,3.5504,3.5504,3.5504,3.5587,3.5701,3.5554,3.5683,3.591,3.5619,3.5863,3.6337,3.5733,3.5504,3.5504,3.5504,3.5504,3.5504,3.5504,3.5504,3.5504,3.5504,3.5504,0.0,0.0,0.0,0.0,0.0,0.0,0.0,0.0,0.0,0.0,0.0,0.0,0.0,0.0,0.0,0.0,0.0,0.0,0.0,3.8108,3.8197,3.8392,3.8945,3.9,3.8826,3.8257,3.8691,3.908,3.9215,3.923,3.9275,3.9373,3.9903,4.0217,4.0217,4.0831,4.119,4.119,4.1309,4.1422,4.1422,4.1946,4.2216,4.2216,0.0,0.0,4.2916,4.2916,4.2916,4.2925,4.2402,4.2216,4.2171,4.1632,4.1422,4.1309,4.0516,4.0217,4.0142,3.9619,3.9388,3.9388,3.171,3.1511,3.1511,3.1511,3.1511,3.1511,3.1511,3.1511,3.1511,3.1511,3.1511,3.1511,3.1511,3.1511,3.1511,3.1511,3.1511,3.1511,3.1511,3.1511,3.1511,3.1511,3.2796,3.3499,3.3499,3.4816,3.5504,3.5504,3.5504,3.5504,3.5504,3.5504,3.5504,3.5504,3.5504,3.5686,3.6038,3.5651,3.5701,3.6038,3.5636,3.5733,3.6006,3.5636,3.5504,3.5504,3.5504,3.5504,3.5504,3.5504,3.5504,3.5504,3.5504,3.5504,3.5504,0.0,0.0,0.0,0.0,0.0,0.0,0.0,0.0,0.0,0.0,0.0,0.0,0.0,0.0,3.7898,3.7898,0.0,3.8527,3.8856,3.8901,3.9035,3.9328,3.9388,3.929,3.8945,3.9215,3.9508,3.9873,3.9903,4.0053,4.0382,4.0711,4.0891,4.0891,4.1557,4.1916,4.1916,4.2177,4.2357,4.2357,4.2686,4.2851,4.2851,4.314,4.329,4.329,4.329,4.329,4.3275,4.2985,4.2851,4.2821,4.2491,4.2357,4.2297,4.1639,4.119,4.0846,4.0516,4.0187,3.9903,3.164,3.1511,3.1511,3.1511,3.1511,3.1511,3.1511,3.1511,3.1511,3.1511,3.1511,3.1511,3.1511,3.1511,3.1511,3.1511,3.1511,3.1511,3.1511,3.1511,3.1511,3.1511,3.2677,3.3365,3.3499,3.4681,3.537,3.5504,3.5504,3.5504,3.5504,3.5504,3.5504,3.5504,3.5504,3.5831,3.6368,3.575,3.5831,3.6322,3.5718,3.5504,3.5504,3.5504,3.5504,3.5504,3.5504,3.5504,3.5504,3.5504,3.5504,3.5504,3.5504,3.5504,3.5504,3.5504,3.5504,0.0,0.0,0.0,0.0,0.0,0.0,0.0,0.0,3.7599,3.7644,3.7778,3.8212,3.8586,3.8586,3.905,3.9388,3.9388,3.9388,3.9388,3.9388,3.9388,3.9433,3.9589,3.9568,3.9828,4.0352,4.0516,4.0816,4.1339,4.1542,4.1564,4.1564,4.2231,4.259,4.259,4.306,4.329,4.329,4.329,4.329,4.329,4.329,4.329,4.329,4.329,4.329,4.329,4.329,4.329,4.329,4.329,4.329,4.3245,4.2746,4.2222,4.1728,4.1474,4.1055,4.0591,3.164,3.1511,3.1511,3.1511,3.1511,3.1511,3.1511,3.1511,3.1511,3.1511,3.1511,3.1511,3.1511,3.1511,3.1511,3.1511,3.1511,3.1511,3.1511,3.1511,3.1511,3.1511,3.2198,3.2901,3.3484,3.4249,3.4891,3.5504,3.5504,3.5504,3.5504,3.5504,3.5504,3.5504,3.5504,3.5569,3.5619,3.5537,3.5569,3.5619,3.5537,3.5504,3.5504,3.5504,3.5504,3.5504,3.5504,3.5504,3.5504,3.5504,3.5504,3.5504,3.5504,3.5504,3.5504,3.5504,3.5504,3.5624,3.6222,3.6776,3.7225,3.7285,3.73,3.7479,0.0,3.8287,3.8452,3.9065,3.926,3.9305,3.9305,3.9364,3.9388,3.9388,3.9388,3.9388,3.9388,3.9388,3.9634,4.0217,4.0292,4.0322,4.0382,4.0935,4.1309,4.1369,4.1961,4.2291,4.2291,4.288,4.3185,4.3185,4.3245,4.329,4.329,4.329,4.329,4.329,4.329,4.329,4.329,4.329,4.329,4.329,4.329,4.329,4.329,4.329,4.329,4.329,4.3215,4.314,4.2931,4.1803,4.1324,4.1265,3.1553,3.1511,3.1511,3.1511,3.1511,3.1511,3.1511,3.1511,3.1511,3.1511,3.1511,3.1511,3.1511,3.1511,3.1511,3.1511,3.1511,3.1511,3.1511,3.1511,3.1511,3.1511,3.2123,3.2826,3.3484,3.4174,3.4816,3.5504,3.5504,3.5504,3.5504,3.5504,3.5504,3.5504,3.5504,3.5718,3.6102,3.5668,3.5765,3.6117,3.5668,3.5504,3.5504,3.5504,3.5504,3.5504,3.5504,3.5504,0.0,3.5504,3.5504,3.5504,3.5504,3.5504,3.5579,3.5968,3.6073,3.6207,3.6851,3.721,3.7494,3.7883,3.7973,3.8153,3.8841,3.899,3.9065,3.9328,3.9388,3.9388,3.9388,3.9388,3.9388,0.0,3.9388,3.9388,3.9388,3.9753,4.0098,4.0367,4.107,4.1572,4.1572,4.1826,4.2141,4.2491,4.2776,4.2925,4.2925,4.314,4.329,4.329,4.3663,4.3858,4.3858,4.4287,4.4466,4.4466,4.4466,4.4272,4.3858,4.3858,4.3663,4.329,4.329,4.329,4.329,4.329,4.329,4.329,4.329,4.329,4.323,4.2677,4.2282,4.1991,0.0,3.1511,3.1511,3.1511,3.1511,3.1511,3.1511,3.1511,3.1511,3.1511,3.1511,3.1511,3.1511,3.1511,3.1511,3.1511,3.1511,3.1511,3.1511,3.1511,3.1511,3.1511,3.1959,3.2557,3.3215,3.3858,3.4547,3.522,3.5415,3.5504,3.5504,3.5504,3.5504,3.5504,3.5504,3.5814,3.6244,3.5733,3.5814,3.6244,3.5733,3.5504,3.5504,3.5504,3.5504,3.5504,3.5504,3.5504,3.5504,3.5504,3.5504,3.5504,3.5504,3.5624,3.5863,3.6357,3.6731,3.7105,3.7569,3.7823,3.8078,3.8556,3.8676,3.8796,3.9305,3.9388,3.9388,3.9388,3.9388,3.9388,3.9388,3.9388,3.9388,3.9388,3.9388,3.9448,3.9664,4.0098,4.0531,4.0905,4.1826,4.247,4.265,4.2626,4.2821,4.326,4.329,4.3364,4.3559,4.3559,4.3648,4.3828,4.4332,4.4586,4.4586,4.5065,4.5289,4.5289,4.5289,4.505,4.4586,4.4586,4.4227,4.3559,4.3559,4.3469,4.329,4.329,4.329,4.329,4.329,4.329,4.329,4.329,4.303,4.2626,0.0,0.0,3.1511,3.1511,3.1511,3.1511,3.1511,3.1511,3.1511,3.1511,3.1511,3.1511,3.1511,3.1511,3.1511,3.1511,3.1511,3.1511,3.1511,3.1511,3.1511,3.1511,3.1525,3.1839,3.2527,3.3185,3.3844,3.4533,3.5175,3.5504,3.5504,3.5504,3.5504,3.5504,3.5504,3.5504,3.5537,3.5504,3.5504,3.5537,3.5504,3.5504,3.5504,3.5504,3.5504,3.5504,3.5504,3.5504,3.5504,3.5504,3.5504,3.5504,3.5504,3.5953,3.6462,3.6477,3.736,3.8332,3.8347,3.8841,3.9328,3.9343,3.9394,3.9358,3.9388,3.9388,3.9388,3.9388,3.9388,3.9388,3.9388,3.9388,3.9388,3.9388,3.9388,3.9649,4.0277,4.0382,4.0876,4.2186,4.2381,4.265,0.0,4.326,4.3275,4.329,4.329,4.3574,4.4242,4.4287,4.4571,4.5214,4.5259,4.5274,4.5274,4.5289,4.5289,4.5289,4.5289,4.5289,4.5274,4.5274,4.49,4.4287,4.4287,4.3888,4.329,4.329,4.329,4.329,4.329,4.329,4.329,4.329,4.329,4.326,0.0,0.0,0.0,0.0,0.0,3.1511,3.1511,3.1511,3.1511,3.1511,3.1511,0.0,0.0,0.0,0.0,0.0,3.1511,3.1511,3.1511,3.1511,3.1511,3.1511,3.1511,3.1809,3.2497,3.3155,3.3814,3.4503,3.516,3.5504,3.5504,3.5504,3.5504,3.5504,3.5504,3.5504,3.5504,3.5504,3.5504,3.5504,3.5504,3.5504,3.5504,3.5504,3.5504,3.5504,0.0,3.5504,3.5504,3.5504,3.5504,3.5579,3.6013,3.6312,3.6656,3.7494,3.8377,3.9065,3.9065,3.9245,3.9388,3.9388,3.9388,3.9388,3.9388,3.9388,3.9388,3.9388,3.9388,3.9388,3.9388,3.9388,3.9388,3.9388,3.9388,3.9649,4.0307,4.0771,4.1422,4.2291,4.2746,0.0,0.0,0.0,0.0,4.329,4.3693,4.4077,4.4302,4.4721,4.5065,4.5289,4.5738,4.5978,4.5978,4.6411,4.6636,4.6621,4.6187,4.5978,4.5963,4.5499,4.517,4.4945,4.4496,4.4182,4.3943,4.3469,4.329,4.329,4.329,4.329,4.329,4.329,4.329,4.329,0.0,0.0,0.0,0.0,0.0,0.0,0.0,0.0,0.0,0.0,0.0,0.0,0.0,0.0,0.0,0.0,0.0,3.1511,3.1511,3.1511,3.1511,3.1511,3.1511,3.1705,3.2123,3.2811,3.335,3.3784,3.4696,3.513,3.5145,3.5385,3.5504,3.5504,3.5504,3.5504,3.5504,3.5504,3.5504,3.5504,3.5504,3.5504,3.5504,3.5504,3.5504,0.0,3.5504,3.5504,3.5504,3.5504,3.5669,3.5923,3.6357,3.6791,3.7375,3.8452,3.9065,3.9388,3.9388,3.9388,3.9388,3.9388,3.9388,3.9388,3.9388,3.9388,3.9388,3.9388,3.9388,3.9388,3.9388,3.9388,3.9388,3.9388,3.9619,3.9993,4.0651,4.1309,4.2006,4.2626,4.3075,4.329,0.0,0.0,0.0,4.3648,4.4077,4.4526,4.5005,4.5424,4.5768,4.6007,4.6441,4.6681,4.6681,4.71,4.7309,4.7294,4.6875,4.6681,4.6651,4.6217,4.5888,4.5633,4.5214,4.4766,4.4287,4.3828,4.3499,4.329,4.329,4.329,4.329,4.329,4.329,4.329,0.0,0.0,0.0,0.0,0.0,0.0,0.0,0.0,0.0,0.0,0.0,0.0,0.0,0.0,0.0,0.0,0.0,0.0,3.1511,3.1511,3.1511,3.1511,3.1511,3.1511,3.1511,3.2153,3.2512,3.2512,3.3799,3.4459,3.4474,3.513,3.5444,3.5459,3.5489,3.5504,3.5504,3.5504,3.5504,3.5504,3.5504,3.5504,3.5504,3.5504,3.5504,3.5504,3.5504,3.5504,3.5504,3.5504,3.5968,3.6537,3.6567,3.7434,3.8571,3.923,3.9388,3.9388,3.9388,3.9388,3.9388,3.9388,3.9388,3.9388,3.9388,3.9388,3.9388,3.9388,3.9388,3.9388,3.9388,3.9388,3.9388,3.9388,3.9963,4.0621,4.1332,4.1991,4.2635,0.0,0.0,0.0,0.0,0.0,0.0,4.4362,0.0,4.4975,4.6204,4.6309,4.6651,4.7279,4.7309,4.7309,4.7309,4.7309,4.7309,4.7309,4.7309,4.7309,4.7309,4.7309,4.6965,4.6324,4.6294,4.5562,4.4407,4.4347,4.3943,4.3349,4.3305,4.329,4.329,4.329,4.329,4.329,0.0,0.0,0.0,0.0,0.0,0.0,0.0,0.0,0.0,0.0,0.0,0.0,0.0,0.0,0.0,0.0,0.0,0.0,3.1511,3.1511,3.1511,3.1511,3.1511,3.1511,3.1511,3.2153,3.2512,3.2512,3.3335,3.3739,3.3769,3.4427,3.4741,3.4788,3.528,3.5504,3.5504,3.5504,3.5504,3.5504,3.5504,3.5504,3.5504,3.5504,3.5504,3.5504,3.5504,3.5504,3.5504,3.5504,3.6252,3.727,3.7749,3.8482,3.9185,3.9364,3.9388,3.9388,3.9388,3.9388,3.9388,3.9388,3.9388,3.9388,3.9388,3.9388,3.9388,3.9388,3.9388,3.9388,3.9388,3.9388,3.9388,3.9388,3.9963,0.0,4.1332,4.1991,0.0,4.3215,0.0,4.329,4.329,4.3888,0.0,0.0,4.5514,4.5963,4.6264,4.6785,4.713,4.7294,4.7309,4.7309,4.7309,4.7309,4.7309,4.7309,4.7309,4.7309,4.7309,4.7309,4.7219,4.7025,4.6531,4.6085,4.5696,4.4721,4.4212,4.4018,4.3484,4.329,4.329,4.329,4.329,4.329,0.0,0.0,0.0,0.0,0.0,0.0,0.0,0.0,0.0,0.0,0.0,0.0,0.0,0.0,0.0,0.0,0.0,0.0,0.0,3.1511,3.1511,3.1511,3.1511,3.1511,3.1511,3.1869,3.2049,3.2049,3.2736,3.3066,3.308,3.4038,3.4503,3.4533,3.519,3.5504,3.5504,3.5504,3.5504,0.0,0.0,3.5504,3.5504,3.5504,3.5504,3.5504,3.5504,3.5684,3.5983,3.6252,3.7,3.7958,3.8631,3.911,3.9388,3.9388,3.9388,3.9388,3.9388,3.9388,3.9388,3.9388,3.9388,3.9388,3.9388,3.9388,3.9388,3.9388,3.9388,3.9354,3.9113,3.9483,3.975,3.954,4.05,0.0,4.1796,4.2372,4.2925,0.0,4.329,0.0,4.3693,4.4362,4.502,0.0,4.6112,4.6456,4.6741,4.7115,4.7309,4.7309,4.7309,4.7309,4.7309,4.7309,4.7309,4.7309,4.7309,4.7309,4.7309,4.7309,4.7309,4.7279,0.0,4.6591,4.6219,4.5514,4.484,4.4272,4.3873,4.3544,4.329,4.329,4.329,4.329,0.0,0.0,0.0,0.0,0.0,0.0,0.0,0.0,0.0,0.0,3.1511,3.1511,0.0,0.0,0.0,0.0,0.0,0.0,0.0,0.0,3.1511,3.1511,3.1511,3.1511,3.1511,3.1511,3.1511,3.1511,3.2079,3.2377,3.2378,3.3649,3.4294,3.4414,3.507,3.5429,3.5504,3.5504,3.5504,3.5504,3.5504,3.5504,3.5504,0.0,3.5504,3.5519,3.5609,3.6058,3.6701,3.733,3.7913,3.8512,3.92,3.9388,3.9388,3.9388,3.9388,3.9373,3.9228,3.9301,3.9373,3.9228,3.9177,3.9228,3.9373,3.9177,3.9053,3.9337,3.9375,3.9203,3.8794,3.9572,4.0102,3.9455,4.0954,4.2147,4.2147,4.2832,4.329,4.329,4.329,4.3544,4.4242,4.4915,4.5589,4.6277,4.6369,4.6711,4.7279,4.7309,4.7309,4.7309,4.7309,4.7309,4.7309,4.7309,4.7309,4.7309,4.7309,4.7309,4.7309,4.7309,4.7309,4.7309,0.0,0.0,4.6456,4.6324,4.5574,4.4436,4.4347,4.3873,4.329,4.329,4.329,4.329,0.0,0.0,0.0,0.0,0.0,0.0,0.0,0.0,0.0,0.0,3.1511,3.1511,0.0,0.0,0.0,0.0,0.0,0.0,0.0,0.0,0.0,3.1511,3.1511,3.1511,3.1511,3.1511,3.1511,3.1511,3.1615,3.1675,3.169,3.2497,3.314,3.3694,3.4352,3.4966,3.5504,3.5504,3.5504,3.5504,3.5504,3.5504,3.5504,3.5504,0.0,0.0,3.6118,3.6716,3.7345,3.8003,3.8287,3.8512,3.92,3.9388,3.9388,3.9388,3.9388,3.9228,3.8308,3.8708,3.9177,3.8308,3.8069,3.8308,3.9177,3.8055,3.7238,3.9017,3.9135,3.8842,3.8711,3.9275,3.9412,3.8365,3.9733,4.0908,4.0908,4.2271,4.329,0.0,4.329,4.3544,4.4242,4.4915,0.0,0.0,0.0,4.7189,4.7294,4.7309,4.7309,4.7309,4.7309,4.7309,4.7309,4.7309,4.7309,4.7309,4.7309,4.7309,4.7309,4.7309,4.7309,4.7309,4.7309,0.0,4.71,4.6546,4.5858,4.5065,4.4526,4.3873,4.329,4.329,4.329,4.329,0.0,0.0,0.0,0.0,0.0,0.0,3.1511,3.1511,3.1511,3.1511,3.1511,3.1511,3.1511,3.1511,3.1511,0.0,0.0,0.0,0.0,0.0,0.0,3.1511,3.1511,3.1511,3.1511,3.1511,3.1511,3.1511,0.0,3.1511,3.1525,3.2557,3.3185,3.3544,3.4562,3.519,3.5504,3.5504,3.5504,3.5504,3.5504,3.5504,3.5504,3.5504,0.0,0.0,3.6252,3.6881,3.7509,3.8167,3.8282,3.823,3.9109,3.8642,3.7852,3.8383,3.8167,3.761,3.7098,3.7329,3.761,3.7098,3.6982,3.7098,3.761,3.6916,3.657,3.7925,3.8044,3.791,3.7883,3.9111,3.9845,3.9087,4.0651,4.1997,4.1997,4.2748,4.329,4.329,4.329,4.3678,0.0,4.511,0.0,0.0,0.0,4.7309,4.7309,4.7309,4.7309,4.7309,4.7309,4.7309,4.7309,4.7309,4.7309,4.7309,4.7309,4.7309,4.7309,4.7309,4.7309,4.7309,4.7309,0.0,4.7279,4.6965,4.6441,4.5753,4.508,4.4421,4.3768,4.3424,4.329,4.329,0.0,0.0,0.0,0.0,0.0,0.0,3.1511,3.1511,3.1511,3.1511,3.1511,3.1511,3.1511,3.1511,3.1511,0.0,0.0,0.0,0.0,0.0,0.0,0.0,3.1511,3.1511,3.1511,0.0,0.0,3.1511,3.1511,0.0,0.0,0.0,0.0,0.0,3.4756,3.537,3.5504,3.5504,3.5504,0.0,0.0,3.5504,3.5504,0.0,0.0,0.0,0.0,3.6939,3.7376,3.8044,3.776,3.7319,3.8383,3.7572,3.6369,3.7214,3.6852,3.6158,3.5934,3.6053,3.6172,3.5934,3.5894,3.5934,3.6158,3.595,3.5981,3.6933,3.7112,3.7119,3.7136,3.8714,3.9859,3.9247,4.1085,4.2563,4.2563,4.2996,4.329,4.329,4.329,0.0,4.517,0.0,0.0,0.0,0.0,0.0,4.7309,4.7309,4.7309,4.7309,4.7309,4.7309,4.7309,4.7309,4.7309,4.7309,4.7309,4.7309,4.7309,4.7309,4.7309,4.7309,4.7309,0.0,0.0,4.7309,4.692,4.6204,4.5559,4.4885,4.4242,4.3544,4.329,4.329,0.0,0.0,0.0,0.0,0.0,0.0,3.1511,3.1511,3.1511,3.1511,3.1511,3.1511,3.1511,3.1511,3.1511,0.0,0.0,0.0,0.0,0.0,0.0,0.0,0.0,0.0,0.0,0.0,0.0,3.1511,3.1511,0.0,0.0,0.0,0.0,0.0,0.0,3.4921,3.5504,3.5504,0.0,0.0,0.0,0.0,0.0,0.0,0.0,0.0,0.0,3.7131,3.6974,3.7639,3.6565,3.5183,3.6172,3.6369,3.6237,3.633,3.629,3.6013,3.5088,3.5507,3.5974,3.5047,3.4815,3.5088,3.6013,3.513,3.4684,3.6689,3.7196,3.725,3.7103,3.7762,3.7964,3.6883,3.8707,4.0202,4.0202,4.2003,4.329,4.329,0.0,0.0,4.517,0.0,0.0,0.0,0.0,0.0,4.7309,4.7309,4.7309,4.7309,4.7309,4.7309,4.7309,4.7309,4.7309,4.7309,4.7309,4.7309,4.7309,4.7309,4.7309,4.7309,4.7309,0.0,0.0,4.7309,4.692,4.6204,4.5559,4.4885,4.4242,4.3544,4.329,4.329,0.0,0.0,0.0,0.0,0.0,0.0,3.1511,3.1511,3.1511,3.1511,3.1511,3.1511,3.1511,3.1511,3.1511,3.1511,3.1511,0.0,0.0,0.0,0.0,0.0,0.0,0.0,0.0,0.0,3.1511,3.1511,3.1511,0.0,0.0,0.0,0.0,0.0,0.0,0.0,3.5504,3.5504,0.0,0.0,0.0,0.0,0.0,0.0,0.0,0.0,0.0,0.0,3.7673,3.7039,3.6304,3.5547,3.5359,3.4843,3.4444,3.5129,3.4843,3.4262,3.3839,3.4024,3.4262,3.3839,3.3755,3.3917,3.465,3.4349,3.4338,3.5833,3.6173,3.6327,3.6627,3.7475,3.8198,3.8437,3.9285,4.0375,4.174,4.2126,4.2548,4.321,4.329,0.0,0.0,0.0,0.0,0.0,0.0,0.0,4.7309,4.7309,4.7309,4.7309,4.7309,4.7309,4.7309,4.7309,4.7309,4.7309,4.7309,4.7309,4.7309,4.7309,4.7309,4.7309,4.7309,0.0,0.0,4.7309,4.7145,4.686,4.6172,4.5499,4.4825,4.4167,4.3633,4.329,0.0,0.0,0.0,0.0,0.0,3.1511,3.1511,3.1511,3.1511,3.1511,3.1511,3.1511,3.1511,3.1511,3.1511,3.1511,3.1511,0.0,0.0,0.0,0.0,0.0,0.0,0.0,0.0,3.1511,3.16,3.1795,3.1795,3.2123,0.0,0.0,0.0,0.0,0.0,0.0,0.0,0.0,0.0,0.0,0.0,0.0,0.0,0.0,0.0,0.0,0.0,0.0,0.0,0.0,0.0,3.6013,3.502,3.4191,3.367,3.4108,3.367,3.3124,3.3124,3.3124,3.3124,3.3124,3.3206,3.342,3.3809,3.4161,3.4613,3.5345,3.5621,3.5906,3.6329,3.707,3.7984,3.9183,3.9681,4.0589,4.2508,4.2412,4.2412,4.321,0.0,0.0,0.0,0.0,0.0,0.0,0.0,0.0,0.0,4.7309,4.7309,4.7309,4.7309,4.7309,4.7309,4.7309,4.7309,4.7309,4.7309,4.7309,4.7309,4.7309,4.7309,4.7309,0.0,0.0,0.0,4.7309,4.7309,4.7234,4.6576,4.5903,4.5214,4.4556,4.3898,4.329,0.0,0.0,0.0,0.0,0.0,3.1511,3.1511,3.1511,3.1511,3.1511,3.1511,3.1511,3.1511,3.1511,3.1511,3.1511,3.1511,0.0,0.0,0.0,0.0,3.1511,3.1511,3.1511,3.1511,3.1511,3.1824,3.2497,3.2497,3.2841,3.3499,3.4189,3.4503,3.4533,0.0,0.0,0.0,0.0,3.5504,0.0,0.0,0.0,3.5579,0.0,0.0,0.0,0.0,0.0,0.0,0.0,0.0,0.0,0.0,3.4705,3.447,3.3441,3.3124,3.3124,3.3124,3.3124,3.3124,3.3124,3.3483,3.3884,3.3897,3.4705,3.5483,3.5495,3.5968,3.6405,3.6405,3.6405,3.6803,3.7939,3.9139,4.0318,4.1462,4.2589,4.329,0.0,0.0,0.0,0.0,0.0,0.0,0.0,0.0,0.0,0.0,4.7309,4.7309,4.7309,4.7309,4.7309,4.7309,4.7309,4.7309,4.7309,4.7309,4.7309,4.7309,4.7309,4.7309,0.0,0.0,0.0,0.0,4.7309,4.7309,4.7234,4.6576,4.5903,4.5214,4.4556,4.3898,4.329,0.0,0.0,0.0,0.0,0.0,0.0,3.216,3.2244,3.2244,3.2244,3.2244,3.2064,3.1553,3.1511,3.1511,3.1511,3.1511,0.0,0.0,0.0,3.1511,3.1511,3.1511,3.1511,3.1511,3.1944,3.2273,3.2512,3.2961,3.3529,3.4204,3.4414,3.4726,3.519,3.5415,3.5504,0.0,3.5504,3.5504,0.0,0.0,3.5774,3.6207,0.0,0.0,0.0,0.0,0.0,0.0,0.0,0.0,0.0,0.0,0.0,0.0,3.4066,3.367,3.3124,3.3124,3.3124,3.3212,3.3545,3.3771,3.4098,3.4806,3.5257,3.5608,3.6031,3.6292,3.6405,3.6405,3.7023,3.7678,3.8017,3.9094,4.0275,4.142,4.1891,0.0,4.321,4.4317,0.0,0.0,0.0,0.0,0.0,0.0,0.0,0.0,4.7309,4.7309,4.7309,4.7309,4.7309,4.7309,4.7309,4.7309,4.7309,4.7309,4.7309,4.7309,4.7309,0.0,0.0,0.0,0.0,0.0,4.7309,4.7309,4.7279,4.707,4.6292,4.5274,4.5065,4.4287,4.329,0.0,0.0,0.0,0.0,0.0,0.0,3.2922,3.2761,3.2586,3.2586,3.2355,3.2007,3.1553,3.1511,3.1511,3.1511,3.1511,0.0,0.0,3.1511,3.1511,3.1511,3.1735,3.1869,3.1869,3.2512,3.3006,3.3245,3.3664,3.4203,3.4861,3.4861,3.51,3.5504,3.5504,3.5504,0.0,3.5504,3.5504,3.5534,3.5774,3.6118,3.6537,0.0,0.0,0.0,0.0,0.0,0.0,0.0,0.0,0.0,0.0,0.0,0.0,0.0,3.3953,3.3124,3.3124,3.3124,3.3206,3.3759,3.406,3.4449,3.5295,3.5658,3.5956,3.6329,3.6405,3.6405,3.6405,3.6977,3.7586,3.8017,3.8738,3.9784,4.1378,4.1587,0.0,4.3841,0.0,0.0,0.0,0.0,0.0,0.0,0.0,0.0,0.0,4.7309,4.7309,4.7309,4.7309,4.7309,4.7309,4.7309,4.7309,4.7309,4.7309,4.7309,4.7309,4.7309,0.0,0.0,0.0,0.0,0.0,4.7309,4.7309,4.7309,4.7309,4.6486,4.5289,4.5289,4.4466,4.329,0.0,0.0,0.0,0.0,0.0,0.0,0.0,3.3066,3.2641,3.2629,3.2007,3.1553,3.1511,3.1511,3.1511,3.1511,3.1511,0.0,3.157,3.1525,3.1525,3.157,3.2153,3.2512,3.2557,3.323,3.3858,3.4503,3.4563,3.4876,3.5504,3.5504,3.5504,3.5504,3.5504,3.5504,3.5504,3.5504,3.5534,3.5624,3.6237,3.6537,0.0,0.0,0.0,0.0,0.0,0.0,0.0,0.0,0.0,0.0,0.0,0.0,0.0,0.0,0.0,0.0,0.0,3.3217,3.3269,3.3822,3.4374,3.4881,3.5433,3.5994,0.0,3.6405,3.6405,3.6405,3.6405,3.6452,3.6896,3.7939,3.8153,3.9023,4.128,4.167,0.0,0.0,0.0,0.0,0.0,0.0,0.0,0.0,0.0,0.0,0.0,4.7309,4.7309,4.7309,4.7309,4.7309,4.7309,4.7309,4.7309,4.7309,4.7309,4.7309,4.7309,4.7309,0.0,0.0,0.0,0.0,0.0,4.7309,4.7309,4.7309,4.7309,4.6486,4.5289,4.5289,4.4466,4.329,0.0,0.0,0.0,0.0,0.0,0.0,0.0,0.0,0.0,0.0,3.2465,3.212,3.1553,3.1511,3.1511,0.0,0.0,3.172,3.2228,3.178,3.1735,3.2228,3.2437,3.2751,3.3245,3.3903,3.4354,3.4503,3.4996,3.5355,3.5504,3.5504,3.5504,3.5504,3.5504,3.5504,3.5504,3.5504,3.5804,3.6267,3.6432,3.7075,0.0,0.0,0.0,0.0,3.9328,3.9388,0.0,0.0,0.0,0.0,0.0,0.0,0.0,0.0,3.5129,3.4408,3.4796,0.0,3.3847,3.4399,3.4906,3.5458,0.0,3.6317,3.6405,3.6405,3.6405,3.6405,3.6405,3.7103,3.7802,3.8062,3.8872,3.9958,4.142,0.0,0.0,0.0,0.0,0.0,0.0,0.0,0.0,0.0,0.0,0.0,0.0,4.7309,4.7309,4.7309,4.7309,4.7309,4.7309,4.7309,4.7309,4.7309,4.7309,4.7309,4.7309,4.7309,0.0,0.0,0.0,0.0,4.7309,4.7309,4.7309,4.7309,4.7309,4.6486,4.5289,4.5289,4.4466,4.329,0.0,0.0,0.0,0.0,0.0,0.0,0.0,0.0,0.0,0.0,3.2299,3.1923,3.1524,3.1511,3.1511,0.0,0.0,3.2108,3.2497,3.2437,3.2587,3.2946,3.3245,3.3589,3.3933,3.4607,3.4951,3.4951,3.5325,3.5504,3.5504,3.5504,3.5504,3.5504,3.5504,3.5669,3.5953,3.5953,3.6327,3.6941,3.724,0.0,0.0,0.0,0.0,0.0,3.9388,3.9388,0.0,3.9388,3.8708,3.7866,0.0,0.0,0.0,0.0,3.6019,3.5817,3.561,3.4762,3.4085,3.4856,3.5282,3.5646,3.6279,3.6405,3.6405,3.6405,3.6405,3.6405,3.6405,3.7322,3.7939,3.7415,3.8783,4.0275,0.0,0.0,0.0,0.0,0.0,0.0,0.0,0.0,0.0,0.0,0.0,0.0,0.0,4.7309,4.7309,4.7309,4.7309,4.7309,4.7309,4.7309,4.7309,4.7309,4.7309,4.7309,4.7309,4.7309,4.7309,0.0,0.0,0.0,4.7309,4.7309,4.7309,4.7309,4.7309,4.6486,4.5289,4.5289,4.4466,4.329,0.0,0.0,0.0,0.0,0.0,0.0,0.0,0.0,0.0,0.0,0.0,0.0,0.0,0.0,0.0,0.0,3.2258,3.2706,3.2811,3.3335,3.3694,3.3799,3.4233,3.4563,3.4668,3.5205,3.5504,3.5504,3.5504,3.5504,3.5504,3.5504,3.5504,3.5504,3.5609,3.5968,3.6492,3.6596,3.6985,3.7599,3.8167,0.0,0.0,0.0,0.0,0.0,0.0,0.0,0.0,3.9388,3.8782,3.8182,3.8907,0.0,0.0,0.0,0.0,0.0,3.6561,3.5542,3.4882,3.5611,3.5684,3.5793,3.6304,3.6405,3.6405,3.6405,3.6405,3.6405,3.6405,3.7196,3.7586,3.6803,3.8617,0.0,4.1462,0.0,0.0,0.0,0.0,0.0,0.0,0.0,0.0,0.0,0.0,0.0,0.0,4.7309,4.7309,4.7309,4.7309,4.7309,4.7309,4.7309,4.7309,4.7309,4.7309,4.7309,4.7309,4.7309,4.7309,0.0,0.0,0.0,4.7309,4.7309,4.7309,4.7309,4.7309,4.6486,4.5289,4.5289,4.4466,4.329,0.0,0.0,0.0,0.0,0.0,0.0,0.0,0.0,0.0,0.0,0.0,0.0,0.0,0.0,0.0,0.0,3.2961,3.3589,3.4174,3.4294,3.4592,3.5175,3.4741,3.4788,3.5325,3.5444,3.5504,3.5504,3.5504,3.5504,3.5504,3.5504,3.5504,3.5534,3.6088,3.6387,3.6522,3.7045,3.7644,3.8242,3.8347,0.0,0.0,0.0,0.0,0.0,0.0,0.0,0.0,3.9388,3.9301,3.9017,3.8271,0.0,0.0,0.0,0.0,0.0,3.9603,3.9048,3.8043,3.7197,3.6629,3.6304,3.6392,3.6405,3.6405,3.6405,3.6405,3.6405,3.6405,3.6534,3.693,3.7723,0.0,4.142,0.0,0.0,0.0,0.0,0.0,0.0,0.0,0.0,0.0,0.0,0.0,0.0,0.0,4.7309,4.7309,4.7309,4.7309,4.7309,4.7309,4.7309,4.7309,4.7309,4.7309,4.7309,4.7309,4.7309,4.7309,4.7309,0.0,4.7309,4.7309,4.7309,4.7309,4.7309,4.7309,4.6486,4.5289,4.5289,4.4466,4.329,0.0,0.0,0.0,0.0,0.0,0.0,0.0,0.0,0.0,0.0,0.0,0.0,0.0,0.0,0.0,0.0,3.3649,3.4189,3.4488,3.4831,3.5175,3.5489,3.519,3.5175,3.5489,3.5504,3.5504,3.5504,3.5504,3.5504,3.5519,3.5863,3.6028,3.6073,3.6701,3.718,3.7524,3.7823,3.8332,3.8945,0.0,0.0,0.0,0.0,0.0,0.0,0.0,0.0,0.0,0.0,3.9388,3.9301,3.8819,0.0,0.0,0.0,0.0,0.0,4.0694,4.0553,4.0294,3.9729,3.8966,3.7965,3.6675,3.6883,3.715,3.6534,3.6405,3.6581,3.7196,3.7861,3.8872,4.0632,0.0,0.0,0.0,0.0,0.0,0.0,0.0,0.0,0.0,0.0,0.0,0.0,0.0,0.0,0.0,0.0,4.7309,4.7309,4.7309,4.7309,4.7309,4.7309,4.7309,4.7309,4.7309,4.7309,4.7309,4.7309,4.7309,4.7309,0.0,4.7309,4.7309,4.7309,4.7309,4.7309,4.7309,4.6486,4.5214,4.4496,4.3813,4.329,0.0,0.0,0.0,0.0,0.0,0.0,0.0,0.0,0.0,0.0,0.0,0.0,0.0,0.0,0.0,0.0,3.4369,3.4711,3.4711,3.5205,3.5504,3.5504,3.5504,3.5504,3.5504,3.5504,3.5504,3.5504,3.5504,3.5579,3.5744,3.6402,3.6701,3.6731,3.736,3.7913,3.8407,3.8556,3.8931,3.9388,0.0,0.0,0.0,0.0,0.0,0.0,0.0,0.0,0.0,0.0,0.0,0.0,0.0,0.0,0.0,3.9832,4.0943,4.2255,4.1554,4.1692,4.1932,4.167,4.0518,3.9064,3.7553,3.7678,3.7939,3.7335,3.7196,3.7381,3.7984,3.8872,0.0,4.2508,4.2152,0.0,0.0,0.0,0.0,0.0,0.0,0.0,0.0,0.0,0.0,0.0,0.0,0.0,0.0,0.0,4.7309,4.7309,4.7309,4.7309,4.7309,4.7309,4.7309,4.7309,4.7309,4.7309,4.7309,4.7309,4.7309,4.7309,4.7309,4.7309,4.7309,4.7309,4.7309,4.7309,4.7309,4.6486,4.514,4.3783,4.329,4.329,0.0,0.0,0.0,0.0,0.0,0.0,0.0,0.0,0.0,0.0,0.0,0.0,0.0,0.0,3.5186,3.4491,3.504,3.5429,3.5429,3.5474,3.5504,3.5504,3.5504,3.5504,3.5504,3.5504,3.5504,3.5504,3.5504,3.5818,3.6432,3.7045,3.7345,3.7375,3.8018,3.8347,3.8437,3.9065,3.9379,3.9388,3.9388,0.0,0.0,0.0,0.0,0.0,0.0,0.0,0.0,0.0,0.0,0.0,0.0,0.0,4.1429,4.1989,4.2243,4.2491,4.2971,4.3126,4.29,4.185,3.9887,3.8469,3.9417,3.8827,3.8379,3.9417,3.9637,3.9316,3.8289,3.8153,3.8979,4.1322,4.1629,0.0,0.0,0.0,0.0,0.0,0.0,0.0,0.0,0.0,0.0,0.0,0.0,0.0,0.0,0.0,0.0,4.7309,4.7309,4.7309,4.7309,4.7309,4.7309,4.7309,4.7309,4.7309,4.7309,4.7309,4.7309,4.7309,4.7309,4.7309,4.7309,4.7309,4.7309,4.7309,4.7309,4.6486,4.514,4.3783,4.329,4.329,0.0,0.0,0.0,0.0,0.0,0.0,0.0,0.0,0.0,0.0,0.0,3.6907,3.5716,0.0,3.5907,3.5164,3.5355,3.5504,3.5504,3.5504,3.5504,3.5504,3.5504,3.5504,3.5504,3.5504,3.5699,3.6118,3.6507,3.6821,3.7075,3.7719,3.8018,3.8048,3.8721,3.9035,3.905,3.9305,3.9388,3.9388,3.9388,3.9388,0.0,0.0,0.0,0.0,0.0,0.0,0.0,0.0,4.0187,4.0472,4.0876,4.1459,4.2081,4.2336,4.2656,4.3015,4.323,4.329,4.321,4.2765,4.1462,4.0204,3.9942,4.0088,4.0204,3.9929,3.9899,3.9768,3.9316,4.039,4.1378,4.1587,0.0,0.0,0.0,0.0,0.0,0.0,0.0,0.0,0.0,0.0,0.0,0.0,0.0,0.0,0.0,0.0,0.0,4.7309,4.7309,4.7309,4.7309,4.7309,4.7309,4.7309,4.7309,4.7309,4.7309,4.7309,4.7309,4.7309,4.7309,4.7309,4.7309,4.7309,4.7309,4.7219,4.6381,4.5499,4.4571,4.3618,4.329,4.329,0.0,0.0,0.0,0.0,0.0,0.0,0.0,0.0,3.7424,0.0,0.0,0.0,0.0,3.6091,3.6054,0.0,3.5504,3.5504,3.5504,3.5504,3.5504,3.5504,3.5699,3.5818,3.5818,3.6013,3.6222,3.6492,3.7315,3.7719,3.7734,3.8392,3.8721,3.8736,3.9215,3.9388,3.9388,3.9388,3.9388,3.9388,3.9388,3.9388,0.0,0.0,0.0,0.0,0.0,0.0,0.0,0.0,4.0846,4.11,4.1587,4.2147,4.2671,4.2671,4.2985,4.329,4.329,4.329,4.329,4.329,4.2725,4.1947,4.1141,4.1295,4.1462,4.1057,4.0675,4.0532,4.093,4.1947,0.0,0.0,0.0,0.0,0.0,0.0,0.0,0.0,0.0,0.0,0.0,0.0,0.0,0.0,0.0,0.0,0.0,0.0,0.0,0.0,4.7309,4.7309,4.7309,4.7309,4.7309,4.7309,4.7309,4.7309,4.7309,4.7309,4.7309,4.7309,4.7309,4.7309,4.7309,4.7309,4.7189,4.686,4.5514,4.4706,4.4242,4.3544,4.329,4.329,0.0,0.0,0.0,0.0,0.0,0.0,0.0,0.0,3.6977,3.7697,3.7084,0.0,0.0,0.0,0.0,0.0,3.5504,3.5504,3.5504,3.5504,3.5504,3.5519,3.6148,3.6492,3.6492,3.7105,3.712,3.6507,3.7778,3.8407,3.8407,3.9095,3.9388,3.9388,3.9388,3.9388,3.9388,3.9388,3.9388,3.9388,3.9388,3.9388,3.9388,0.0,0.0,0.0,0.0,0.0,0.0,0.0,4.1856,4.2396,4.241,4.2821,4.329,4.329,4.329,4.329,4.329,4.329,4.329,4.329,4.329,4.329,4.329,4.2412,4.1932,4.3076,4.2412,4.1932,4.3076,4.2386,0.0,0.0,0.0,0.0,0.0,0.0,0.0,0.0,0.0,0.0,0.0,0.0,0.0,0.0,0.0,0.0,0.0,0.0,0.0,0.0,4.7309,4.7309,4.7309,4.7309,4.7309,4.7309,4.7309,4.7309,4.7309,4.7309,4.7309,4.7309,4.7309,4.7309,4.7309,4.7294,4.6905,4.613,4.484,4.4317,4.4227,4.3529,4.329,4.329,0.0,0.0,0.0,0.0,0.0,0.0,0.0,0.0,3.7537,3.7761,3.7084,0.0,0.0,0.0,0.0,0.0,0.0,3.5504,3.5504,3.5504,3.5714,3.6178,3.6387,3.6686,3.712,3.7764,3.8003,3.7823,3.8691,3.911,3.9125,3.9334,3.9388,3.9388,3.9388,3.9388,3.9388,3.9388,3.9388,3.9388,3.9388,3.9388,3.9433,0.0,0.0,0.0,0.0,0.0,0.0,0.0,0.0,0.0,4.2895,4.314,4.329,4.329,4.329,4.329,4.329,4.329,4.329,4.329,4.329,4.329,4.329,4.3036,4.29,4.325,4.3036,4.2644,4.2193,4.2875,0.0,0.0,0.0,0.0,0.0,0.0,0.0,0.0,0.0,0.0,0.0,0.0,0.0,0.0,0.0,0.0,0.0,4.7309,4.7309,4.7309,4.7309,4.7309,4.7309,4.7309,4.7309,4.7309,4.7309,4.7309,4.7309,4.7309,4.7309,4.7309,4.7309,4.7309,4.7264,4.68,4.5933,4.487,4.4466,4.3992,4.3559,4.3364,4.329,4.329,0.0,0.0,0.0,0.0,0.0,0.0,3.7901,3.7352,3.689,3.689,3.6461,3.6006,0.0,0.0,0.0,3.5504,3.5504,3.5609,3.5878,3.5893,3.6178,3.6821,3.7105,3.7539,3.8197,3.8601,3.8796,3.8796,3.9215,3.9388,3.9388,3.9388,3.9388,3.9388,3.9388,3.9388,3.9388,3.9388,3.9388,3.9403,3.9709,3.9813,3.9888,0.0,0.0,0.0,0.0,0.0,0.0,0.0,0.0,0.0,4.317,4.329,4.329,4.329,4.329,4.329,4.329,4.329,4.329,4.329,4.329,4.329,4.329,4.329,4.329,4.329,4.329,4.315,4.2749,4.3556,0.0,0.0,0.0,0.0,0.0,0.0,0.0,0.0,0.0,0.0,0.0,0.0,0.0,0.0,0.0,0.0,0.0,4.7309,4.7309,4.7309,4.7309,4.7309,4.7309,4.7309,4.7309,4.7309,4.7309,4.7309,4.7309,4.7309,4.7309,4.7294,4.7025,4.692,4.6845,4.5903,4.505,4.4287,4.3992,4.3648,4.329,4.329,4.329,4.329,0.0,0.0,3.8497,3.7806,0.0,0.0,3.6584,3.6023,3.5587,3.5587,3.5587,3.5587,0.0,0.0,0.0,3.5594,3.5654,3.5923,3.6537,3.6567,3.6851,3.7464,3.8123,3.8781,3.9373,3.9388,3.9388,3.9388,3.9388,3.9388,3.9388,3.9388,3.9388,3.9388,3.9388,3.9388,3.9388,3.9388,3.9454,3.9523,4.0157,4.0442,4.0561,4.122,0.0,0.0,0.0,0.0,0.0,0.0,0.0,0.0,4.329,4.329,4.329,4.329,4.329,4.329,4.329,4.329,4.329,4.329,4.329,4.3305,4.3364,4.3379,4.3379,4.3379,4.3379,4.3589,4.4287,4.4451,0.0,0.0,0.0,0.0,0.0,0.0,0.0,0.0,0.0,0.0,0.0,0.0,0.0,0.0,0.0,0.0,0.0,4.7309,4.7309,4.7309,4.7309,4.7309,4.7309,4.7309,4.7309,4.7309,4.7309,4.7309,4.7309,4.7309,4.7279,4.7174,4.6576,4.6204,4.5995,4.4825,4.4272,4.4167,4.3529,4.329,4.329,4.329,4.329,4.329,0.0,0.0,3.7038,3.6873,0.0,0.0,3.6492,3.6477,3.6353,3.6353,3.6353,3.6134,3.5554,3.5968,0.0,3.6267,3.6716,3.706,3.721,3.721,3.7509,3.8153,3.8841,3.9275,3.9388,3.9388,3.9388,3.9388,3.9388,3.9388,3.9388,3.9388,3.9388,3.9388,3.9388,3.9388,3.9388,3.9388,3.9709,4.0202,4.0337,4.0711,4.125,4.1931,4.2186,0.0,0.0,0.0,0.0,0.0,0.0,0.0,4.329,4.329,4.329,4.329,4.329,4.329,4.329,4.329,4.329,4.329,4.329,4.3424,4.3947,4.4067,4.4067,4.4067,4.4067,4.4302,4.496,0.0,0.0,0.0,0.0,0.0,0.0,0.0,0.0,0.0,0.0,0.0,0.0,0.0,0.0,0.0,0.0,0.0,4.7309,4.7309,4.7309,4.7309,4.7309,4.7309,4.7309,4.7309,4.7309,0.0,4.7309,4.7309,4.7309,4.7309,4.7025,4.6488,4.6339,4.5681,4.4721,4.4436,4.4003,4.3484,4.3349,4.329,4.329,4.329,4.329,4.329,0.0,0.0,0.0,0.0,0.0,0.0,0.0,0.0,3.6477,3.6117,3.636,3.6396,3.6034,3.6552,0.0,0.0,3.7225,3.7539,3.7853,3.7883,3.8182,3.8856,3.923,3.9388,3.9388,3.9388,3.9388,3.9388,3.9388,3.9388,3.9388,3.9388,3.9388,3.9388,3.9388,3.9589,3.9888,3.9888,4.0277,4.0905,4.1205,4.1587,4.1961,4.2581,4.2821,4.2865,4.317,0.0,0.0,0.0,0.0,0.0,0.0,0.0,4.329,4.329,4.329,4.329,4.329,4.329,4.3364,4.3678,4.4007,4.4362,4.4706,4.4781,4.487,4.52,4.5005,4.499,0.0,0.0,0.0,0.0,0.0,0.0,0.0,0.0,0.0,0.0,0.0,0.0,0.0,0.0,0.0,0.0,0.0,4.7309,4.7309,4.7309,4.7309,4.7309,4.7309,4.7309,4.7309,4.7309,4.7309,4.7309,4.7309,4.7145,4.683,4.683,4.6651,4.6249,4.5633,4.496,4.4287,4.3932,4.3604,4.329,4.329,4.329,4.329,4.329,4.329,4.329,0.0,0.0,0.0,0.0,0.0,0.0,0.0,0.0,0.0,3.5902,3.643,3.6809,3.6675,3.721,3.7584,0.0,0.0,0.0,3.8542,3.8571,3.8826,3.9394,3.9388,3.9388,3.9388,3.9388,3.9388,3.9388,3.9388,3.9388,3.9388,3.9388,3.9388,3.9424,3.9508,3.9888,4.0412,4.0516,4.095,4.1632,4.2186,4.247,4.262,4.3135,4.329,4.329,4.329,4.329,4.329,4.329,0.0,0.0,0.0,0.0,4.3469,4.3469,4.3544,4.3633,4.3633,4.3633,4.3768,4.4347,4.4885,4.5334,4.5454,4.5469,4.5663,4.6309,4.5948,0.0,0.0,0.0,0.0,0.0,0.0,0.0,0.0,0.0,0.0,0.0,0.0,0.0,0.0,0.0,0.0,0.0,0.0,4.7309,4.7309,4.7309,4.7309,4.7309,4.7309,4.7309,4.7309,4.7309,4.7309,4.7309,4.7189,4.686,4.6264,4.604,4.5935,4.5876,4.4796,4.4242,4.4067,4.3514,4.329,4.329,4.329,4.329,4.329,4.329,4.329,4.329,0.0,0.0,0.0,0.0,0.0,0.0,0.0,0.0,0.0,0.0,3.7834,3.8045,3.7353,3.7868,3.8257,3.8257,3.8811,3.9185,3.9239,0.0,0.0,3.9388,3.9388,3.9388,3.9388,3.9388,3.9388,3.9388,3.9388,3.9388,3.9388,3.9388,3.9388,3.9454,4.0023,4.0322,4.0442,4.101,4.1662,4.2276,4.2366,4.2701,4.317,4.326,4.329,4.329,4.329,4.329,4.329,4.329,4.329,0.0,0.0,0.0,4.4182,4.4182,4.4586,4.5035,4.5035,4.5035,4.505,4.514,4.5229,4.5454,4.6052,4.6187,4.6381,0.0,4.6651,0.0,0.0,0.0,0.0,0.0,0.0,0.0,0.0,0.0,0.0,0.0,0.0,0.0,0.0,0.0,0.0,0.0,4.7309,4.7309,4.7309,4.7309,4.7309,4.7309,4.7309,4.7309,4.7309,4.7309,4.7309,4.7294,4.6726,4.6369,4.6249,4.5125,4.4586,4.4571,4.4392,4.3947,4.3424,4.3334,4.329,4.329,4.329,4.329,4.329,4.329,4.329,4.329,0.0,0.0,0.0,0.0,0.0,0.0,0.0,0.0,0.0,0.0,0.0,3.8341,3.7993,3.8556,3.896,3.896,3.9245,3.9388,3.9388,3.9388,3.9388,3.9388,3.9388,3.9388,3.9388,3.9388,3.9388,3.9388,3.9388,3.9388,3.9388,3.9798,3.9963,3.9978,4.0277,4.0816,4.1557,4.1856,4.2312,4.2895,4.2895,4.3075,4.329,4.329,4.329,4.3349,4.3708,4.3843,4.3943,4.4302,4.4436,4.4436,4.4436,0.0,0.0,0.0,4.5065,4.5289,4.5289,4.5574,4.5873,4.5873,4.6142,4.6501,4.68,4.6875,4.695,4.7249,0.0,0.0,0.0,0.0,0.0,0.0,0.0,0.0,0.0,0.0,0.0,0.0,0.0,0.0,0.0,0.0,0.0,0.0,4.7309,4.7309,4.7309,4.7309,4.7309,4.7309,4.7309,4.7309,4.7309,4.7309,4.7115,4.6741,4.6067,4.5559,4.5185,4.4586,4.4317,4.4287,4.3888,4.3559,4.329,4.329,4.329,4.329,4.329,4.329,4.329,4.329,4.329,4.329,0.0,0.0,0.0,0.0,0.0,0.0,0.0,0.0,0.0,0.0,0.0,3.8646,3.8646,0.0,0.0,0.0,3.9388,3.9388,3.9388,3.9388,3.9388,3.9388,3.9388,3.9388,3.9388,3.9388,3.9388,3.9388,3.9553,3.9664,3.9694,4.0337,4.0741,4.0905,4.0905,4.1482,4.241,4.2575,4.2895,4.329,4.329,4.329,4.329,4.329,4.3394,4.3604,4.4137,4.4421,4.4631,4.5125,4.5289,4.5289,4.5289,4.5424,0.0,0.0,0.0,4.5798,4.5798,4.6172,4.6576,4.6576,4.6935,4.7309,4.7309,0.0,4.7309,0.0,0.0,0.0,0.0,0.0,0.0,0.0,0.0,0.0,0.0,0.0,0.0,0.0,0.0,0.0,0.0,0.0,0.0,0.0,4.7309,4.7309,4.7309,4.7309,4.7309,4.7309,4.7309,4.7219,4.7055,4.6875,4.6546,4.6052,4.5379,4.4781,4.4302,4.4137,4.4062,4.4032,4.3499,4.329,4.329,4.329,4.329,4.329,4.329,4.329,4.329,4.329,4.329,4.329,0.0,0.0,0.0,0.0,0.0,0.0,0.0,0.0,0.0,0.0,0.0,3.9364,3.9364,3.9394,3.9388,3.9388,3.9388,3.9388,3.9388,3.9388,3.9388,3.9388,3.9388,0.0,3.9388,3.9388,3.9388,3.9388,4.0053,4.0352,4.0367,4.1025,4.1707,4.2306,4.2306,4.2336,4.244,4.3015,4.326,4.329,4.329,4.329,4.329,4.329,4.3678,4.4272,4.4302,4.4721,4.5244,4.5289,4.5289,4.5289,4.5289,4.5738,4.6277,0.0,0.0,0.0,4.7204,4.7219,4.7249,4.7249,4.7279,4.7309,4.7309,0.0,0.0,0.0,0.0,0.0,0.0,0.0,0.0,0.0,0.0,0.0,0.0,0.0,0.0,0.0,0.0,0.0,0.0,0.0,0.0,0.0,4.7309,4.7309,4.7309,4.7309,4.7309,4.7309,4.7309,4.701,4.6339,4.5723,4.5379,4.5334,4.4676,4.4347,4.4287,4.3618,4.3349,4.3349,4.3305,4.329,4.329,4.329,4.329,4.329,4.329,4.329,4.329,4.329,4.329,4.329,0.0,0.0,0.0,0.0,0.0,0.0,0.0,0.0,0.0,0.0,0.0,0.0,0.0,3.9388,3.9388,3.9388,3.9388,3.9388,3.9388,3.9388,3.9388,3.9388,3.9388,3.9388,3.9388,3.9388,3.9634,4.0053,4.0292,4.0621,4.1055,4.1737,4.2171,4.2396,4.2396,4.2635,4.3,4.32,4.329,4.329,4.329,4.3544,4.3958,4.3958,4.4377,4.5005,4.5439,4.5753,4.6022,4.6441,4.6576,4.6576,4.6576,4.6756,4.695,4.695,4.7115,4.7309,4.7309,4.7309,4.7309,4.7309,4.7309,4.7309,4.7309,4.7309,4.7309,0.0,0.0,0.0,0.0,0.0,0.0,0.0,0.0,0.0,0.0,0.0,0.0,0.0,0.0,0.0,0.0,0.0,0.0,0.0,0.0,4.7309,4.7309,4.7309,4.7309,4.7309,4.689,4.6352,4.5663,4.5005,4.4661,4.4661,4.4003,4.3648,4.3633,4.3409,4.329,4.329,4.329,4.329,4.329,4.329,4.329,4.329,4.329,4.329,4.329,4.329,4.329,4.329,0.0,0.0,0.0,3.8736,0.0,3.9388,3.9388,3.9388,3.9388,3.9388,0.0,0.0,0.0,0.0,3.9388,3.9388,3.9388,3.9388,3.9388,3.9388,3.9388,3.9388,3.9388,3.9529,3.9738,3.9753,4.0068,4.0726,4.095,4.128,4.1767,4.2387,4.2686,4.2686,4.2686,4.2925,4.3305,4.3529,4.3618,4.3648,4.3898,4.4257,4.4646,4.4646,4.5065,4.5693,4.6115,0.0,4.6711,4.716,4.7309,4.7309,4.7309,4.7309,4.7309,4.7309,4.7309,4.7309,4.7309,4.7309,4.7309,4.7309,4.7309,4.7309,4.7309,0.0,0.0,0.0,0.0,0.0,0.0,0.0,0.0,0.0,0.0,0.0,0.0,0.0,0.0,0.0,0.0,0.0,0.0,0.0,0.0,0.0,0.0,0.0,4.7309,4.7309,4.7204,4.698,4.6112,4.5424,4.4975,4.4317,4.3947,4.3947,4.3499,4.329,4.329,4.329,4.329,4.329,4.329,4.329,4.329,4.329,4.329,4.329,4.329,4.329,4.329,4.329,4.329,4.329,3.9388,3.9388,3.9388,3.9388,3.9388,3.9388,3.9388,3.9388,3.9388,3.9388,0.0,0.0,0.0,0.0,0.0,3.9388,3.9439,3.9454,3.9454,3.9433,3.9448,3.9448,3.9448,3.9768,4.0412,4.0427,4.0756,4.1452,4.2081,4.241,4.244,4.3045,4.3305,4.3319,4.3319,4.3334,4.3394,4.4007,4.4332,4.4407,4.5035,4.5304,4.5334,4.5334,4.5753,4.6309,4.6309,4.677,0.0,4.7309,0.0,0.0,4.7309,4.7309,4.7309,4.7309,4.7309,4.7309,0.0,0.0,0.0,4.7309,4.7309,4.7309,4.7309,0.0,0.0,0.0,0.0,0.0,0.0,0.0,0.0,0.0,0.0,0.0,0.0,0.0,0.0,0.0,0.0,0.0,0.0,0.0,0.0,0.0,4.7309,4.7309,4.7309,4.7279,4.698,4.6264,4.5005,4.4302,4.4287,4.3618,4.329,4.329,4.329,4.329,4.329,4.329,4.329,4.329,4.329,4.329,4.329,4.329,4.329,4.329,4.329,4.329,4.329,4.329,4.329,4.329,3.9388,3.9388,3.9388,3.9388,3.9388,3.9388,3.9388,3.9388,3.9388,0.0,0.0,0.0,3.9388,3.9388,3.9388,3.9388,3.9843,4.0127,4.0127,4.0576,4.0846,4.0846,4.0846,4.092,4.1115,4.1115,4.1467,4.2126,4.2306,4.2635,4.306,4.32,4.3544,4.4007,4.4007,4.4302,4.4736,4.4436,4.4586,4.5035,4.5229,4.5589,4.6037,4.6037,4.6456,4.704,0.0,4.7145,4.7309,0.0,4.7309,4.7309,4.7309,4.7309,4.7309,4.7309,4.7309,4.7309,4.7309,0.0,0.0,0.0,0.0,0.0,4.7309,4.7309,4.7309,0.0,0.0,0.0,0.0,0.0,0.0,0.0,0.0,0.0,0.0,0.0,0.0,0.0,0.0,0.0,0.0,0.0,0.0,0.0,4.7309,4.7309,4.7309,4.686,4.6277,4.5603,4.4766,4.4092,4.3574,4.3379,4.329,4.329,4.329,4.329,4.329,4.329,4.329,4.329,4.329,4.329,4.329,4.329,4.329,4.329,4.329,4.329,4.329,4.329,4.329,4.329,3.9388,3.9388,3.9388,3.9388,3.9388,3.9388,3.9388,3.9388,3.9388,0.0,0.0,0.0,3.9798,3.9828,3.9933,4.0217,4.0591,4.0816,4.0816,4.1175,4.1422,4.1422,4.1422,4.1542,4.1826,4.1826,4.2141,4.2776,4.2776,4.297,4.3305,4.3574,4.3943,4.4332,4.4601,4.5095,4.5693,4.5319,4.5379,4.5753,4.6022,4.6381,4.6741,4.6741,4.698,4.7309,0.0,0.0,4.7309,4.7309,4.7309,4.7309,4.7309,4.7309,4.7309,4.7309,4.7309,4.7309,4.7309,4.7309,4.7309,4.7309,0.0,0.0,4.7309,4.7309,4.7309,0.0,0.0,0.0,0.0,0.0,0.0,0.0,0.0,0.0,0.0,0.0,0.0,0.0,0.0,0.0,0.0,4.7309,4.7309,4.7309,4.7309,4.7309,4.7309,4.6411,4.5708,4.5304,4.4392,4.3678,4.329,4.329,4.329,4.329,4.329,4.329,4.329,4.329,4.329,4.329,4.329,4.329,4.329,4.329,4.329,4.329,4.329,4.329,4.329,4.329,4.329,4.329,0.0,3.9388,3.9388,3.9388,3.9388,3.9388,3.9388,3.9388,3.9388,0.0,3.9448,3.9783,4.0442,4.0502,4.0741,4.1324,4.1482,4.1527,4.1527,4.1549,4.1594,4.1594,4.1594,4.1901,4.25,4.2515,4.2746,4.329,4.329,4.3334,4.3409,4.4007,4.4392,4.4571,4.5155,4.5783,4.6384,4.6384,4.6384,4.6444,4.707,4.7309,4.7309,4.7309,4.7309,4.7309,4.7309,4.7309,4.7309,4.7309,4.7309,4.7309,4.7309,4.7309,4.7309,0.0,4.7309,4.7309,4.7309,4.7309,4.7309,4.7309,4.7309,0.0,4.7309,4.7309,4.7309,0.0,0.0,0.0,0.0,0.0,0.0,0.0,0.0,0.0,0.0,0.0,0.0,0.0,0.0,0.0,4.7309,4.7309,4.7309,4.7309,4.7309,4.7309,4.7309,4.6022,4.5289,4.5289,4.4018,4.329,4.329,4.329,4.329,4.329,4.329,4.329,4.329,4.329,4.329,4.329,4.329,4.329,4.329,4.329,4.329,4.329,4.329,4.329,4.329,4.329,4.329,4.329,3.9388,3.9388,3.9388,3.9388,3.9388,3.9388,3.9388,3.9388,3.9388,3.9388,3.9888,4.0457,4.1115,4.119,4.125,4.1407,4.1901,4.2201,4.2201,4.2656,4.2916,4.2916,4.2916,4.2976,4.3135,4.3135,4.317,4.329,4.329,4.3559,4.4122,4.4257,4.49,4.5933,4.6067,4.6501,4.7115,4.7115,4.7115,4.713,4.7249,4.7309,4.7309,4.7309,4.7309,4.7309,4.7309,4.7309,4.7309,4.7309,4.7309,4.7309,4.7309,0.0,0.0,4.7309,0.0,0.0,0.0,0.0,0.0,0.0,0.0,0.0,4.7309,4.7309,4.7309,0.0,0.0,0.0,0.0,0.0,0.0,0.0,0.0,0.0,0.0,0.0,0.0,0.0,0.0,0.0,4.7309,4.7309,4.7309,4.7309,4.7309,4.7309,4.7309,4.6022,4.5289,4.5289,4.4018,4.329,4.329,4.329,4.329,4.329,4.329,4.329,4.329,4.329,4.329,4.329,4.329,4.329,4.329,4.329,4.329,4.329,4.329,4.329,4.329,4.329,4.329,4.329,3.9388,3.9388,3.9388,3.9388,3.9388,3.9493,3.9858,3.9903,4.0023,4.0352,4.0681,4.113,4.1841,4.1916,4.1998,4.2327,4.2656,4.2851,4.2851,4.315,4.329,4.329,4.329,4.329,4.329,4.3618,4.3783,4.3783,4.4152,4.4481,4.4811,4.5155,4.5678,4.6294,4.6666,4.6995,4.7309,4.7309,4.7309,4.7309,4.7309,4.7309,4.7309,4.7309,4.7309,4.7309,4.7309,4.7309,4.7309,4.7309,4.7309,0.0,0.0,4.7309,4.7309,0.0,4.7309,4.7309,0.0,0.0,0.0,4.7309,0.0,0.0,0.0,4.7309,4.7309,0.0,0.0,0.0,0.0,0.0,0.0,0.0,0.0,0.0,0.0,0.0,0.0,0.0,0.0,0.0,4.7309,4.7309,4.7309,4.7309,4.7309,4.7309,4.7309,4.6022,4.5289,4.5289,4.4018,4.329,4.329,4.329,4.329,4.329,4.329,4.329,4.329,4.329,4.329,4.329,4.329,4.329,4.329,4.329,4.329,4.329,4.329,4.329,4.329,4.329,4.329,4.329,3.9433,3.9514,3.9604,3.9604,3.9709,3.9978,4.0502,4.0591,4.0831,4.1512,4.1602,4.1856,4.2515,4.259,4.2761,4.3245,4.329,4.3349,4.3469,4.3484,4.3544,4.3663,4.3678,4.3678,4.3678,4.4227,4.4496,4.4496,4.5035,4.5364,4.5499,4.6067,4.6354,4.6531,4.707,4.7309,4.7309,4.7309,4.7309,4.7309,4.7309,4.7309,4.7309,4.7309,4.7309,4.7309,4.7309,4.7309,4.7309,4.7309,4.7309,4.7309,4.7309,4.7309,0.0,0.0,0.0,0.0,0.0,0.0,0.0,0.0,0.0,4.7309,0.0,0.0,0.0,0.0,0.0,0.0,0.0,0.0,0.0,0.0,0.0,0.0,0.0,0.0,0.0,0.0,0.0,0.0,0.0,4.7309,4.7309,4.7309,4.7309,4.7309,4.7309,4.6022,4.5289,4.5289,4.4018,4.329,4.329,4.329,4.329,4.329,4.329,4.329,4.329,4.329,4.329,4.329,4.329,4.329,4.329,4.329,4.329,4.329,4.329,4.329,4.329,4.329,4.329,4.329,3.9649,3.9888,4.0292,4.0292,4.0771,4.119,4.125,4.1265,4.1542,4.2201,4.2291,4.2506,4.315,4.3185,4.3215,4.329,4.329,4.3544,4.4167,4.4212,4.4466,4.505,4.5065,4.5065,4.5065,4.5155,4.5185,4.5185,4.5259,4.5603,4.6217,4.6249,4.6636,4.7189,4.7279,4.7309,4.7309,4.7309,4.7309,4.7309,4.7309,4.7309,0.0,4.7309,4.7309,4.7309,4.7309,4.7309,4.7309,0.0,4.7309,4.7309,0.0,4.7309,4.7309,0.0,0.0,0.0,0.0,0.0,0.0,0.0,4.7309,0.0,0.0,0.0,0.0,0.0,0.0,0.0,0.0,0.0,0.0,0.0,0.0,0.0,0.0,0.0,0.0,0.0,0.0,0.0,0.0,4.7309,4.7309,4.7309,4.7309,4.7309,4.7309,4.6022,4.5289,4.5289,4.4018,4.329,4.329,4.329,4.329,4.329,4.329,4.329,4.329,4.329,4.329,4.329,4.329,4.329,4.329,4.329,4.329,4.329,4.329,4.329,4.329,4.329,4.329,4.329,4.0666,4.0786,4.0965,4.0965,4.119,4.1542,4.1931,4.2267,4.2611,4.2895,4.2925,4.303,4.326,4.3633,4.3708,4.3319,0.0,4.4421,0.0,0.0,4.5005,4.5289,4.5289,4.5289,4.5289,4.5678,4.5888,4.5888,4.6277,4.6606,4.689,4.689,4.704,4.7309,4.7309,4.7309,4.7309,4.7309,4.7309,4.7309,0.0,4.7309,0.0,4.7309,4.7309,4.7309,4.7309,4.7309,4.7309,0.0,4.7309,0.0,0.0,0.0,0.0,0.0,0.0,0.0,0.0,0.0,0.0,0.0,0.0,0.0,0.0,0.0,4.7309,0.0,0.0,0.0,0.0,0.0,0.0,0.0,4.713,0.0,0.0,0.0,0.0,0.0,0.0,0.0,0.0,0.0,0.0,0.0,4.7309,4.7309,4.7309,4.6411,4.5708,4.5304,4.4392,4.3678,4.329,4.329,4.329,4.329,4.329,4.329,4.329,4.329,4.329,4.329,4.329,4.329,4.329,4.329,4.329,4.329,4.329,4.329,4.329,4.329,4.329,4.329,4.1923,4.1773,4.1692,4.1692,4.1803,4.2073,4.2551,4.303,4.329,4.329,4.3454,4.3559,4.3559,4.4182,4.4392,4.3873,4.4751,4.517,0.0,0.0,4.5663,4.5843,4.5843,0.0,4.5843,4.6337,4.6591,4.6591,4.707,4.7309,4.7309,4.7309,4.7309,4.7309,4.7309,4.7309,4.7309,4.7309,4.7309,4.7309,4.7309,4.7309,4.7309,4.7309,4.7309,4.7309,4.7309,4.7309,4.7309,4.7309,4.7309,0.0,4.7309,0.0,0.0,0.0,0.0,0.0,4.7309,0.0,0.0,0.0,0.0,0.0,0.0,0.0,0.0,0.0,0.0,0.0,0.0,0.0,0.0,4.707,0.0,4.7249,0.0,0.0,0.0,0.0,0.0,0.0,0.0,0.0,0.0,0.0,0.0,4.7309,4.7309,4.6681,4.6007,4.5319,4.4661,4.4003,4.3305,4.329,4.329,4.329,4.329,4.329,4.329,4.329,4.329,4.329,4.329,4.329,4.329,4.329,4.329,4.329,4.329,4.329,4.329,4.329,4.329,4.329,4.323,4.2761,4.2366,4.2366,4.2851,4.3245,4.326,4.329,4.329,4.329,4.3883,4.4287,0.0,0.0,0.0,0.0,0.0,4.5574,4.6175,0.0,4.6576,0.0,0.0,4.7249,0.0,4.7264,4.7279,4.7279,4.7294,4.7309,4.7309,4.7309,4.7309,4.7309,4.7309,4.7309,4.7309,4.7309,4.7309,4.7309,4.7309,4.7309,4.7309,0.0,4.7309,4.7309,4.7309,0.0,0.0,4.7309,4.7309,0.0,0.0,0.0,0.0,0.0,0.0,0.0,0.0,0.0,0.0,4.7309,0.0,0.0,0.0,0.0,4.7309,0.0,0.0,0.0,0.0,0.0,4.71,4.6456,4.689,0.0,0.0,0.0,0.0,0.0,0.0,0.0,0.0,0.0,0.0,0.0,0.0,0.0,4.7309,4.6681,4.6007,4.5319,4.4661,4.4003,4.3305,4.329,4.329,4.329,4.329,4.329,4.329,4.329,4.329,4.329,4.329,4.329,4.329,4.329,4.329,4.329,4.329,4.329,4.329,4.329,4.329,4.329,4.329,4.3125,4.3015,4.3015,4.314,4.329,4.329,4.3663,4.3947,0.0,4.4556,0.0,0.0,4.5574,4.5783,0.0,0.0,4.6531,4.6294,4.6741,0.0,0.0,0.0,4.7309,0.0,0.0,4.7309,4.7309,4.7309,4.7309,4.7309,4.7309,4.7309,4.7309,4.7309,4.7309,4.7309,4.7309,0.0,0.0,0.0,4.7563,4.7908,0.0,0.0,4.7309,4.7309,4.7309,0.0,4.7309,4.7309,4.7309,4.7309,4.7309,4.7309,4.7309,4.7309,0.0,0.0,0.0,4.7309,4.7309,0.0,0.0,0.0,0.0,0.0,0.0,0.0,0.0,0.0,0.0,4.7234,4.701,4.716,4.7234,0.0,0.0,0.0,0.0,0.0,0.0,0.0,0.0,0.0,0.0,4.7309,0.0,0.0,4.71,4.6666,4.5992,4.5319,4.4646,4.3988,4.3514,4.329,4.329,4.329,4.329,4.329,4.329,4.329,4.329,4.329,4.329,4.329,4.329,4.329,4.329,4.329,4.329,4.329,4.329,4.329,4.329,4.329,4.3484,4.3559,4.3334,4.3484,4.3648,4.3648,4.4242,4.4661,0.0,4.5244,0.0,4.5663,0.0,4.6501,0.0,4.68,4.713,4.6696,4.707,0.0,4.7309,4.7309,0.0,0.0,0.0,0.0,0.0,4.7309,4.7309,4.7309,4.7309,4.7429,4.7653,4.7653,4.7653,4.7668,4.7908,4.7863,0.0,0.0,4.8252,0.0,0.0,4.7997,4.7967,0.0,4.7653,4.7623,4.7384,4.7309,4.7309,4.7309,4.7309,4.7309,4.7309,4.7309,4.7309,4.7309,4.7309,0.0,4.7309,4.7309,0.0,4.7309,0.0,0.0,0.0,0.0,0.0,0.0,0.0,4.7309,4.7309,4.7309,4.7309,0.0,4.7309,0.0,0.0,0.0,0.0,0.0,0.0,0.0,4.7309,4.7309,0.0,0.0,0.0,4.6995,4.6309,4.5888,4.5229,4.4332,4.3858,4.3529,4.329,4.329,4.329,4.329,4.329,4.329,4.329,4.329,4.329,4.329,4.329,4.329,4.329,4.329,4.329,4.329,4.329,4.329,4.329,4.3394,4.3888,4.4167,4.3499,4.3943,4.4362,4.4362,0.0,4.5349,0.0,4.5948,4.6324,4.6324,4.6935,4.7309,4.7309,4.7309,4.7309,4.7309,4.7309,0.0,0.0,4.7309,4.7309,4.7309,0.0,0.0,0.0,0.0,4.7309,4.7309,4.7339,4.7683,4.8282,4.8312,4.8341,4.8371,4.9045,4.8955,4.8386,4.906,4.9329,4.9359,4.9359,4.9389,4.9314,4.8581,4.8341,4.8237,4.7608,4.7399,4.7399,4.7369,4.7354,4.7339,4.7309,4.7309,4.7309,4.7309,4.7309,4.7309,4.7309,0.0,0.0,0.0,0.0,4.7309,0.0,0.0,0.0,0.0,0.0,0.0,4.7309,4.7309,4.7309,4.7309,0.0,0.0,0.0,0.0,0.0,0.0,0.0,4.7309,4.7309,4.7309,4.7309,0.0,0.0,4.7025,4.6354,4.6337,4.5708,4.4421,4.4347,4.4003,4.3349,4.3305,4.329,4.329,4.329,4.329,4.329,4.329,4.329,4.329,4.329,4.329,4.329,4.329,4.329,4.329,4.329,4.329,4.329,4.4796,4.493,4.499,4.4825,4.493,4.5035,4.5035,0.0,0.0,0.0,4.6636,4.7055,4.7055,4.7204,4.7309,4.7309,4.7309,0.0,0.0,0.0,0.0,4.7309,4.7309,4.7309,4.7309,4.7309,0.0,4.7309,0.0,4.7309,4.7309,4.7803,4.8132,4.8312,4.879,4.906,4.906,4.9239,4.9209,4.9075,4.9239,4.9553,0.0,0.0,5.0301,5.0571,4.9419,4.906,4.903,4.882,4.8805,4.8686,4.8192,4.8027,4.7938,4.7459,4.7309,4.7309,4.7309,4.7309,4.7309,4.7309,4.7309,4.7309,0.0,0.0,0.0,0.0,0.0,0.0,0.0,0.0,0.0,4.7309,4.7309,4.7309,0.0,0.0,0.0,4.7309,0.0,0.0,0.0,0.0,4.7309,4.7309,4.7309,4.7309,4.7309,0.0,0.0,4.7055,4.6576,4.6115,4.5771,4.4811,4.4227,4.4062,4.3529,4.329,4.329,4.329,4.329,4.329,4.329,4.329,4.329,4.329,4.329,4.329,4.329,4.329,4.329,4.329,4.329,4.329,4.5289,4.5544,4.5843,4.6127,4.6172,4.6082,4.5783,4.6322,0.0,4.6756,4.707,0.0,4.7309,4.7309,4.7309,4.7309,4.7309,0.0,4.7309,0.0,0.0,4.7309,4.7309,4.7309,4.7309,4.7309,0.0,4.7309,0.0,4.7743,4.7743,4.8401,4.8865,4.9164,4.9523,4.9688,4.9688,4.9688,4.9853,5.0122,5.0122,5.0331,0.0,5.0629,5.0853,5.1124,5.0391,4.9927,4.9643,4.9404,4.9314,4.9239,4.888,4.8521,4.8222,4.7848,4.7534,4.7309,4.7309,4.7309,4.7309,4.7309,4.7309,4.7309,4.7309,4.7309,4.7309,0.0,0.0,0.0,0.0,0.0,0.0,0.0,0.0,0.0,0.0,0.0,0.0,0.0,0.0,0.0,0.0,4.7309,4.7309,4.7309,4.7309,4.7309,0.0,0.0,0.0,4.7309,4.695,4.6621,4.6279,4.5574,4.5035,4.4736,4.4077,4.3723,4.3708,4.3424,4.3454,4.3723,4.3723,4.3888,4.4182,4.4182,4.4182,4.4182,4.4182,4.4018,4.3723,4.3723,4.3544,4.329,4.5559,4.6037,4.6636,4.7204,4.7309,0.0,0.0,4.6935,0.0,4.7309,0.0,4.7309,4.7309,4.7309,4.7309,4.7309,0.0,4.7309,4.7309,4.7309,4.7309,4.7309,4.7309,4.7309,4.7309,4.7309,0.0,0.0,0.0,4.8327,4.8431,4.9134,4.9703,5.0196,5.0285,5.0315,5.0315,5.0315,5.0644,5.1214,5.1214,5.1214,5.1214,5.1214,5.1214,5.1214,5.1214,5.0808,5.0226,4.9718,4.9569,4.9554,4.9464,4.9,4.8521,4.8431,4.7952,4.7429,4.7429,4.7369,4.7309,4.7309,4.7309,4.7309,4.7309,4.7309,4.7309,4.7309,4.7309,4.7309,0.0,0.0,0.0,0.0,0.0,0.0,0.0,0.0,0.0,0.0,0.0,0.0,0.0,0.0,4.7309,4.7309,4.7309,4.7309,0.0,0.0,0.0,4.7309,4.7309,4.704,4.6456,0.0,4.6022,4.5424,4.4766,4.4392,4.4302,4.3768,4.3813,4.4317,4.4407,4.4766,4.5289,4.5289,4.5289,4.5289,4.5289,4.4945,4.4436,4.4436,4.3992,4.3409,4.695,4.7055,0.0,0.0,0.0,4.7264,4.7145,4.7234,4.7309,4.7309,4.7309,4.7309,4.7309,4.7309,4.7309,4.7309,4.7309,0.0,0.0,0.0,0.0,4.7309,4.7309,4.7309,4.7309,4.7309,4.7578,0.0,0.0,4.8566,4.9149,4.9763,5.0091,5.0211,5.0764,5.1003,5.1003,5.1003,0.0,5.1214,5.1214,5.1214,5.1214,5.1214,5.1214,5.1214,5.1214,5.1139,5.1035,5.0915,5.087,5.078,5.0242,4.9941,4.9793,4.9254,4.8626,4.8117,4.8117,4.7713,4.7309,4.7309,4.7309,4.7309,4.7309,4.7309,4.7309,4.7309,4.7309,4.7309,4.7309,0.0,0.0,0.0,0.0,0.0,0.0,0.0,0.0,0.0,0.0,0.0,0.0,0.0,0.0,0.0,0.0,0.0,0.0,0.0,0.0,0.0,4.7309,0.0,0.0,0.0,4.6219,4.6142,4.5454,4.484,4.4332,4.4751,4.4721,4.4347,4.4885,4.5185,4.5289,4.5289,4.5289,4.5289,4.5289,4.5229,4.5125,4.5125,4.4706,4.4062,4.7309,4.7309,0.0,0.0,0.0,0.0,0.0,4.7309,0.0,4.7309,4.7309,4.7309,4.7309,4.7309,4.7309,4.7309,4.7309,4.7309,4.7309,4.7309,4.7309,4.7309,4.7309,0.0,4.7309,4.7638,4.7967,4.8282,0.0,4.9464,4.9778,5.0436,5.0704,5.0719,5.1079,5.1214,5.1214,0.0,0.0,5.1214,5.1214,5.1214,5.1214,5.1214,5.1214,5.1214,5.1214,5.1214,5.1214,5.1214,5.1214,5.1154,5.0808,5.0465,5.0121,4.9868,4.9314,4.876,4.8371,4.8057,4.7743,4.7399,4.7309,4.7309,4.7309,4.7309,4.7309,4.7309,4.7309,4.7309,4.7309,4.7309,0.0,0.0,0.0,0.0,0.0,0.0,0.0,0.0,0.0,0.0,0.0,0.0,0.0,0.0,0.0,0.0,0.0,0.0,0.0,0.0,0.0,0.0,0.0,0.0,0.0,4.683,4.6157,4.5663,4.5364,4.5304,4.5319,4.5379,4.5693,4.6022,4.6337,4.6337,4.6337,4.6337,4.6337,4.6127,4.5828,4.5828,4.5394,4.4721,4.7309,4.7309,0.0,0.0,4.7309,0.0,4.7309,4.7429,4.7459,4.7324,4.7429,4.7519,4.7519,4.7638,4.7728,4.7728,4.7728,4.7728,4.7728,4.7728,4.7653,4.7519,4.7653,4.7653,4.7519,4.8162,4.8566,0.0,0.0,0.0,5.0196,5.0868,5.1214,5.1214,5.1214,0.0,0.0,0.0,5.1214,5.1214,5.1214,5.1214,5.1214,5.1214,5.1214,5.1214,5.1214,5.1214,5.1214,5.1214,5.1214,5.1214,5.1214,5.0823,5.0405,5.0405,4.9987,4.9359,4.885,4.8491,4.8162,4.7638,4.7414,4.7309,4.7309,4.7309,4.7309,4.7309,4.7309,4.7309,4.7309,4.7309,0.0,0.0,0.0,0.0,0.0,0.0,0.0,0.0,0.0,0.0,0.0,0.0,0.0,0.0,0.0,4.7309,4.7309,4.7309,4.7309,0.0,0.0,4.7309,4.7309,0.0,4.7309,4.7294,4.677,4.6456,4.6264,4.5903,4.5948,4.6294,4.6429,4.683,4.7309,4.7309,4.7309,4.7309,4.7309,4.6995,4.6488,4.6488,4.6097,4.5439,0.0,0.0,0.0,0.0,0.0,0.0,4.7309,4.7818,4.7982,4.7384,4.7818,4.8192,4.8192,4.8775,4.912,4.912,4.912,4.912,4.912,4.912,4.8865,4.8222,4.8805,4.885,4.8207,4.888,4.9464,0.0,0.0,0.0,0.0,5.0868,5.1214,0.0,0.0,0.0,0.0,5.1214,5.1214,5.1214,5.1214,5.1214,5.1214,5.1214,5.1214,5.1214,5.1214,5.1214,5.1214,5.1214,5.1214,5.1214,5.1214,5.1184,5.1124,5.1124,5.0614,5.0091,5.0031,4.9194,4.8267,4.8207,4.7743,4.7309,4.7309,4.7309,4.7309,4.7309,4.7309,4.7309,4.7309,4.7309,4.7309,0.0,0.0,0.0,0.0,0.0,0.0,0.0,0.0,0.0,0.0,0.0,0.0,0.0,0.0,4.7309,4.7309,4.7309,4.7309,4.7309,0.0,4.7309,4.7309,4.7309,4.7309,4.7309,4.7249,4.6905,4.6337,4.6875,4.683,4.6309,4.695,4.7249,4.7309,4.7309,4.7309,4.7309,4.7309,4.7264,4.7219,4.7219,4.68,4.6175,0.0,0.0,0.0,0.0,0.0,0.0,0.0,4.8745,4.882,4.8521,4.8716,4.8925,4.8925,4.9149,4.9314,4.9314,4.9314,4.9314,4.9314,4.9314,4.9194,4.8925,4.9179,4.9179,4.8925,4.9523,4.9972,0.0,0.0,0.0,0.0,0.0,0.0,0.0,0.0,5.1214,5.1214,5.1214,5.1214,5.1214,5.1214,5.1214,5.1214,5.1214,5.1214,5.1214,5.1214,5.1214,5.1214,5.1214,5.1214,5.1214,5.1214,5.1214,5.1214,5.1214,5.0988,5.0689,5.03,4.9807,4.9269,4.8476,4.8087,4.7788,4.7399,4.7309,4.7309,4.7309,4.7309,4.7309,4.7309,4.7309,4.7309,0.0,0.0,0.0,0.0,0.0,0.0,0.0,0.0,0.0,0.0,0.0,0.0,0.0,0.0,0.0,4.7309,4.7309,4.7309,4.7309,0.0,4.7309,4.7309,4.7309,4.7309,4.7309,4.7309,4.7174,4.692,4.7189,4.716,4.6935,4.7189,4.7309,4.7309,4.7309,4.7309,4.7309,4.7309,4.7309,4.7309,4.7309,4.713,4.692,4.7563,0.0,4.7803,0.0,4.8581,4.8775,4.9239,4.9434,4.9553,4.9553,4.9718,4.9763,4.9568,4.9733,4.9838,4.9838,4.9838,4.9838,4.9838,4.9838,4.9748,4.9553,4.9733,0.0,4.9553,5.0197,5.048,5.048,5.099,0.0,0.0,0.0,0.0,0.0,5.1214,5.1214,5.1214,5.1214,5.1214,5.1214,5.1214,5.1214,5.1214,5.1214,5.1214,5.1214,5.1214,5.1214,5.1214,5.1214,5.1214,5.1214,5.1214,5.1214,5.1214,5.1214,5.1214,5.1124,5.0599,5.0345,4.9971,4.909,4.8566,4.8162,4.7698,4.7444,4.7309,4.7309,4.7309,4.7309,4.7309,4.7309,4.7309,4.7309,0.0,0.0,0.0,0.0,0.0,0.0,0.0,4.7309,4.7309,0.0,0.0,0.0,0.0,0.0,4.7309,4.7309,0.0,0.0,0.0,0.0,0.0,4.7309,4.7309,4.7309,4.7309,4.7309,4.7309,4.7309,4.7309,4.7309,4.7309,4.7309,4.7309,4.7309,4.7309,4.7309,4.7309,4.7309,4.7309,4.7309,4.7309,4.7309,4.8147,4.8282,4.8476,4.9179,4.9299,4.9299,4.9314,4.9823,5.0181,5.0181,5.0749,5.0898,5.0255,5.0764,5.1199,5.1199,5.1199,5.1199,5.1199,5.1199,5.09,0.0,0.0,5.0885,5.0196,5.0823,5.1214,5.1214,0.0,0.0,5.0196,0.0,5.0554,5.1214,5.1214,5.1214,5.1214,5.1214,5.1214,5.1214,5.1214,5.1214,5.1214,5.1214,5.1214,5.1214,5.1214,5.1214,5.1214,5.1214,5.1214,5.1214,5.1214,5.1214,5.1214,5.1214,5.1214,5.1214,5.1214,5.0689,5.0196,5.0166,4.9239,4.8282,4.8282,4.7773,4.7309,4.7309,4.7309,4.7309,4.7309,4.7309,4.7309,4.7309,0.0,0.0,0.0,0.0,0.0,0.0,4.7309,4.7309,4.7309,0.0,0.0,0.0,0.0,0.0,0.0,0.0,0.0,4.7309,4.7309,0.0,4.7309,4.7309,4.7309,4.7309,4.7309,4.7309,4.7309,4.7309,4.7309,4.7309,4.7309,4.7309,4.7309,4.7309,4.7309,4.7309,4.7309,4.7309,4.7309,4.7309,4.7309,4.7309,4.8955,4.9,4.9164,4.9808,4.9927,5.0077,5.0526,5.078,5.0868,5.0868,5.1483,5.1813,5.1603,5.1364,5.1214,0.0,5.1214,5.1214,0.0,5.1214,5.1124,5.0868,5.1109,5.1124,5.0868,5.1109,5.1214,5.1214,0.0,0.0,0.0,5.0868,5.102,5.1214,5.1214,5.1214,5.1214,5.1214,5.1214,5.1214,5.1214,5.1214,5.1214,5.1214,5.1214,5.1214,5.1214,5.1214,5.1214,5.1214,5.1214,5.1214,5.1214,5.1214,5.1214,5.1214,5.1214,5.1214,5.1214,5.1018,5.0749,5.03,4.9598,4.888,4.8386,4.7773,4.7309,4.7309,4.7309,4.7309,4.7309,4.7309,4.7309,4.7309,4.7309,0.0,0.0,0.0,0.0,0.0,4.7309,4.7309,0.0,4.7309,0.0,0.0,0.0,0.0,0.0,0.0,0.0,0.0,4.7309,0.0,4.7309,4.7309,4.7309,4.7309,4.7309,4.7309,4.7309,4.7309,4.7309,4.7309,4.7309,4.7309,4.7309,4.7309,4.7309,4.7309,4.7309,4.7309,4.7309,4.7309,4.7309,4.7309,4.9583,4.9628,4.9838,5.045,5.0569,5.0779,5.1483,5.1588,5.1678,5.1917,5.2321,5.2576,5.2576,5.2202,0.0,5.1947,5.1738,5.1588,5.1588,5.1349,5.1214,5.1214,5.1214,5.1214,5.1214,5.1214,0.0,5.1214,5.1214,5.1214,5.1214,5.1214,5.1214,5.1214,5.1214,5.1214,5.1214,5.1214,5.1214,5.1214,5.1214,5.1214,5.1214,5.1214,5.1214,5.1214,5.1214,5.1214,5.1214,5.1214,5.1214,5.1214,5.1214,5.1214,5.1214,5.1214,5.1214,5.1214,5.1214,5.1214,5.1124,5.0659,5.0122,4.9389,4.8491,4.7773,4.7309,4.7309,4.7309,4.7309,4.7309,4.7309,4.7309,4.7309,4.7309,4.7309,4.7309,0.0,0.0,0.0,0.0,0.0,0.0,4.7309,4.7309,0.0,0.0,0.0,0.0,0.0,0.0,4.7309,4.7309,0.0,4.7309,4.7309,4.7309,4.7309,4.7309,4.7309,4.7309,4.7309,4.7309,4.7309,4.7309,4.7309,4.7309,4.7309,4.7309,4.7309,4.7309,4.7309,4.7309,4.7309,4.7309,4.7309,5.0151,5.0255,5.0465,0.0,5.1289,0.0,5.2172,5.2276,5.2486,5.3099,5.3219,5.3249,5.3249,5.3294,5.3324,5.3324,0.0,0.0,0.0,5.1648,5.1289,5.1289,5.1244,5.1214,5.1214,5.1214,5.1214,5.1214,5.1214,5.1214,5.1214,5.1214,5.1214,5.1214,5.1214,5.1214,5.1214,5.1214,5.1214,5.1214,5.1214,5.1214,5.1214,5.1214,5.1214,5.1214,5.1214,5.1214,5.1214,5.1214,5.1214,5.1214,5.1214,5.1214,5.1214,5.1214,5.1214,5.1214,5.1214,5.1214,5.1214,5.1214,5.0689,4.9852,4.8581,4.7818,4.7354,4.7309,4.7309,4.7309,4.7309,4.7309,4.7309,4.7309,4.7309,4.7309,4.7309,0.0,0.0,0.0,0.0,0.0,0.0,4.7309,4.7309,0.0,0.0,0.0,0.0,0.0,4.7309,4.7309,4.7309,4.7309,4.7309,4.7309,4.7309,4.7309,4.7309,4.7309,4.7309,4.7309,4.7309,4.7309,4.7309,4.7309,4.7309,4.7309,4.7309,4.7309,4.7309,4.7309,4.7309,4.7309,4.7309,4.7309,0.0,0.0,5.1184,5.1858,5.1962,5.2187,5.2845,5.295,5.301,5.3159,5.3638,5.3967,5.3967,5.4416,5.4715,5.4715,5.3638,5.295,5.295,5.2336,5.1962,5.1962,5.1483,5.1214,5.1214,5.1214,5.1214,5.1214,5.1214,5.1214,5.1214,5.1214,5.1214,5.1214,5.1214,5.1214,5.1214,5.1214,5.1214,5.1214,5.1214,5.1214,5.1214,5.1214,5.1214,5.1214,5.1214,5.1214,5.1214,5.1214,5.1214,5.1214,5.1214,5.1214,5.1214,5.1214,5.1214,5.1214,5.1214,5.1214,5.1214,5.1214,5.0689,4.9852,4.8581,4.8162,4.7908,4.7414,4.7309,4.7309,4.7309,4.7309,4.7309,4.7309,4.7309,4.7309,4.7309,4.7309,0.0,0.0,4.7309,4.7309,4.7309,4.7309,4.7309,0.0,0.0,0.0,0.0,4.7309,4.7309,4.7309,4.7309,4.7309,4.7309,4.7309,4.7309,4.7309,4.7309,4.7309,4.7309,4.7309,4.7309,4.7309,4.7309,4.7309,4.7309,4.7309,4.7309,4.7309,4.7309,4.7309,4.7309,4.7309,4.7309,4.7309,5.1678,5.1902,5.2232,5.2576,5.265,5.2875,5.3548,5.3653,5.3758,5.4057,5.4431,5.4655,5.4655,5.4985,5.5194,5.5194,5.4251,5.3653,5.3653,5.3025,5.265,5.265,5.2007,5.1678,5.1678,5.1379,5.1214,5.1214,5.1214,5.1214,5.1214,5.1214,5.1214,5.1214,5.1214,5.1214,5.1214,5.1214,5.1214,5.1214,5.1214,5.1214,5.1214,5.1214,5.1214,5.1214,5.1214,5.1214,5.1214,5.1214,5.1214,5.1214,5.1214,5.1214,5.1214,5.1214,5.1214,5.1214,5.1214,5.1214,5.1214,5.1214,5.0689,5.0001,4.9344,4.8716,4.8192,4.7833,4.7519,4.7309,4.7309,4.7309,4.7309,4.7309,4.7309,4.7309,4.7309,4.7309,0.0,4.7309,4.7309,4.7309,4.7309,4.7309,4.7309,4.7309,0.0,0.0,4.7309,4.7309,4.7309,4.7309,4.7309,4.7309,4.7309,4.7309,4.7309,4.7309,4.7309,4.7309,4.7309,4.7309,4.7309,4.7309,4.7309,4.7309,4.7309,4.7309,4.7309,4.7309,4.7309,4.7309,4.7309,4.7309,4.7309,4.7309,5.2351,5.28,5.3219,5.3309,5.3339,5.3563,5.4251,5.4356,5.4566,5.5119,5.5194,5.5194,5.5194,5.5194,5.5194,5.5194,5.4685,5.4356,5.4356,5.3713,5.3339,5.3339,5.2695,5.2351,5.2351,5.1798,5.1468,5.1364,5.1364,5.1319,5.1214,5.1214,5.1214,5.1214,5.1214,5.1214,5.1214,5.1214,5.1214,5.1214,5.1214,5.1214,5.1214,5.1214,5.1214,5.1214,5.1214,5.1214,5.1214,5.1214,5.1214,5.1214,5.1214,5.1214,5.1214,5.1214,5.1214,5.1214,5.1214,5.1214,5.1214,5.1214,5.0749,5.0315,5.0211,4.9374,4.8521,4.8327,4.7848,4.7429,4.7324,4.7309,4.7309,4.7309,4.7309,4.7309,4.7309,0.0,4.7309,4.7309,4.7309,4.7309,4.7309,4.7309,4.7309,4.7309,4.7309,4.7309,4.7309,4.7309,4.7309,4.7309,4.7309,4.7309,4.7309,4.7309,4.7309,4.7309,4.7309,4.7309,4.7309,4.7309,4.7309,4.7309,4.7309,4.7309,4.7309,4.7309,4.7309,4.7309,4.7309,4.7309,4.7309,4.7309,4.7309,4.7309,5.3025,5.3114,5.3369,5.3952,5.4042,5.4266,5.494,5.5044,5.5074,5.5179,5.5194,5.5194,5.5194,5.5194,5.5194,5.5194,5.5089,5.5044,5.5044,5.4416,5.4042,5.4042,5.3384,5.3025,5.3025,5.292,5.2606,5.2052,5.2052,5.1753,5.1214,5.1214,5.1214,5.1214,5.1214,5.1214,5.1214,5.1214,5.1214,5.1214,5.1214,5.1214,5.1214,5.1214,5.1214,5.1214,5.1214,5.1214,5.1214,5.1214,5.1214,5.1214,5.1214,5.1214,5.1214,5.1214,5.1214,5.1214,5.1214,5.1214,5.1214,5.1214,5.1139,5.0883,5.0315,5.0031,4.9613,4.8506,4.8207,4.7967,4.7399,4.7309,4.7309,4.7309,4.7309,4.7309,4.7309,0.0,4.7309,4.7309,4.7309,4.7309,4.7309,4.7309,4.7309,4.7309,4.7309,4.7309,4.7309,4.7309,4.7309,4.7309,4.7309,4.7309,4.7309,4.7309,4.7309,4.7309,4.7309,4.7309,4.7309,4.7309,4.7309,4.7309,4.7309,4.7309,4.7309,4.7309,4.7309,4.7309,4.7309,4.7309,4.7309,4.7309,4.7309,4.7309,5.3728,5.4027,5.4356,5.4685,5.4745,5.4835,5.5149,5.5194,5.5194,5.5194,5.5194,5.5194,5.5194,5.5194,5.5194,5.5194,5.5194,5.5194,5.5194,5.491,5.4745,5.4745,5.4102,5.3563,5.3189,5.3174,5.3039,5.2725,5.2725,5.2576,5.2276,5.2276,5.2276,5.2276,5.2276,5.2276,5.2247,5.1887,5.1753,5.1723,5.1364,5.1214,5.1214,5.1214,5.1214,5.1214,5.1214,5.1214,5.1214,5.1214,5.1214,5.1214,5.1214,5.1214,5.1214,5.1214,5.1214,5.1214,5.1214,5.1214,5.1214,5.1214,5.1214,5.1139,5.0794,5.045,5.0016,4.9464,4.8775,4.8192,4.7893,4.8006,4.7919,4.7381,4.7764,0.0,0.0,4.7309,4.7309,4.7309,4.7309,4.7309,4.7309,4.7309,4.7309,4.7309,4.7309,4.7309,4.7309,4.7309,4.7309,4.7309,4.7309,4.7309,4.7309,4.7309,4.7309,4.7309,4.7309,4.7309,4.7309,4.7309,4.7309,4.7309,4.7309,4.7309,4.7309,4.7309,4.7309,4.7309,4.7309,4.7309,4.7309,4.7309,4.7309,4.7309,5.4446,5.485,5.5194,5.5194,5.5194,5.5194,5.5194,5.5194,5.5194,5.5194,5.5194,5.5194,5.5194,5.5194,5.5194,5.5194,5.5194,5.5194,5.5194,5.5194,5.5194,5.5194,5.4715,5.4192,5.3668,5.3653,5.3578,5.3414,5.3414,5.3339,5.3174,5.3174,5.3174,5.3174,5.3174,5.3174,5.3144,5.2636,5.2426,5.2381,5.1872,5.1678,5.1678,5.1678,5.1573,5.1454,5.1454,5.1349,5.1214,5.1214,5.1214,5.1214,5.1214,5.1214,5.1214,5.1214,5.1214,5.1214,5.1214,5.1214,5.1214,5.1214,5.1214,5.1214,5.1214,5.0779,5.0375,5.0226,4.9434,4.8641,4.8341,4.8496,4.8366,4.7439,0.0,0.0,0.0,4.7309,4.7309,4.7309,4.7309,4.7309,4.7309,4.7309,4.7309,4.7309,4.7309,4.7309,4.7309,4.7309,4.7309,4.7309,4.7309,4.7309,4.7309,4.7309,4.7309,4.7309,4.7309,4.7309,4.7309,4.7309,4.7309,4.7309,4.7309,4.7309,4.7309,4.7309,4.7309,4.7309,4.7309,4.7309,4.7309,4.7309,4.7309,4.7309,5.5119,5.5164,5.5194,5.5194,5.5194,5.5194,5.5194,5.5194,5.5194,5.5194,5.5194,5.5194,5.5194,5.5194,5.5194,5.5194,5.5194,5.5194,5.5194,5.5194,5.5194,5.5194,5.5149,5.5089,5.5044,5.5044,5.4745,5.4132,5.4132,5.3803,5.3174,5.3174,5.3174,5.3174,5.3174,5.3174,5.3174,5.3129,5.3114,5.3099,5.3054,5.3039,5.3039,5.3039,5.265,5.2127,5.2127,5.1738,5.1214,5.1214,5.1214,5.1214,5.1214,5.1214,5.1214,5.1214,5.1214,5.1214,5.1214,5.1214,5.1214,5.1214,5.1214,5.1214,5.1214,5.1184,5.0928,5.0315,5.0121,4.9672,4.8506,4.8325,4.8085,4.7399,0.0,0.0,4.7294,4.7309,4.7309,4.7309,4.7309,4.7309,4.7309,4.7309,4.7309,4.7309,4.7309,4.7309,4.7309,4.7309,4.7309,4.7309,4.7309,4.7309,4.7309,4.7309,4.7309,4.7309,4.7309,4.7309,4.7309,4.7309,4.7309,4.7309,4.7309,4.7309,4.7309,4.7309,4.7309,4.7309,4.7309,4.7309,4.7309,4.7309,4.7309,4.7309,5.5194,5.5194,5.5194,5.5194,5.5194,5.5194,5.5194,5.5194,5.5194,5.5194,5.5194,5.5194,5.5194,5.5194,5.5194,5.5194,5.5194,5.5194,5.5194,5.5194,5.5194,5.5194,5.5194,5.5194,5.5194,5.5194,5.5074,5.482,5.482,5.4685,5.4431,5.4431,5.4431,5.4431,5.4431,5.4431,5.4401,5.3997,5.3817,5.3788,5.3354,5.3174,5.3174,5.3174,5.3025,5.2815,5.2815,5.265,5.2381,5.1962,5.1828,5.1753,5.1349,5.1214,5.1214,5.1214,5.1214,5.1214,5.1214,5.1214,5.1214,5.1214,5.1214,5.1214,5.1214,5.1773,5.2199,5.1954,5.1556,5.1112,5.0608,5.0164,4.943,4.8129,0.0,4.8502,4.7441,4.7834,4.7988,4.7381,4.7834,4.7988,4.7337,4.7309,4.7309,4.7309,4.7309,4.7309,4.7309,4.7309,4.7309,4.7309,4.7309,4.7309,4.7309,4.7309,4.7309,4.7309,4.7309,4.7309,4.7309,4.7309,4.7309,4.7309,4.7309,4.7309,4.7309,4.7309,4.7309,4.7309,4.7309,4.7309,4.7309,4.7309,4.7309,4.7309,5.5194,5.5194,5.5194,5.5194,5.5194,5.5194,5.5194,5.5194,5.5194,5.5194,5.5194,5.5194,5.5194,5.5194,5.5194,5.5194,5.5194,5.5194,5.5194,5.5194,5.5194,5.5194,5.5194,5.5194,5.5194,5.5194,5.5194,5.5194,5.5194,5.5194,5.5194,5.5194,5.5194,5.5194,5.5194,5.5194,5.5164,5.4715,5.4521,5.4476,5.3997,5.3817,5.3817,5.3817,5.3683,5.3503,5.3503,5.3369,5.3114,5.2665,5.2501,5.2396,5.1738,5.1394,5.1214,5.1214,5.1214,5.1214,5.1214,5.1214,5.1214,5.1214,5.1214,5.1214,5.1214,5.1804,5.2485,5.2827,5.2529,5.2141,5.1924,5.1506,5.0593,4.8908,4.9014,4.8953,4.7799,4.8013,4.8072,4.7381,4.7919,4.8072,4.7381,4.7309,4.7309,4.7309,4.7309,4.7309,4.7309,4.7309,4.7309,4.7309,4.7309,4.7309,4.7309,4.7309,4.7309,4.7309,4.7309,4.7309,4.7294,4.7609,4.7609,4.7309,4.7651,4.7609,4.7309,4.7309,4.7309,4.7309,4.7309,4.7309,4.7309,4.7309,4.7309,4.7309,5.5194,5.5194,5.5194,5.5194,5.5194,5.5194,5.5194,5.5194,5.5194,5.5194,5.5194,5.5194,5.5194,5.5194,5.5194,5.5194,5.5194,5.5194,5.5194,5.5194,5.5194,5.5194,5.5194,5.5194,5.5194,5.5194,5.5194,5.5194,5.5194,5.5194,5.5194,5.5194,5.5194,5.5194,5.5194,5.5194,5.5194,5.5194,5.5194,5.5194,5.5194,5.5194,5.5194,5.5194,5.479,5.4221,5.4221,5.3773,5.3189,5.3189,5.3189,5.3069,5.2411,5.1753,5.1229,5.1229,5.1214,5.1214,5.1214,5.1214,5.1214,5.1214,5.1214,5.1214,5.1214,5.1214,5.1511,5.2649,5.29,5.2699,5.2017,5.1893,5.1344,4.9629,4.8775,4.8341,4.8326,4.7728,4.7309,4.7309,4.7309,4.7309,4.7309,4.7309,4.7309,4.7309,4.7309,4.7309,4.7309,4.7309,4.7309,4.7309,4.7309,4.7294,4.7294,4.7294,4.7309,4.7309,4.7309,4.7309,4.7337,4.832,4.8252,4.7381,4.8377,4.8225,4.7294,4.7309,4.7309,4.7309,4.7309,4.7309,4.7309,4.7309,4.7309,4.7309,5.5194,5.5194,5.5194,5.5194,5.5194,5.5194,5.5194,5.5194,5.5194,5.5194,5.5194,5.5194,5.5194,5.5194,5.5194,5.5194,5.5194,5.5194,5.5194,5.5194,5.5194,5.5194,5.5194,5.5194,5.5194,5.5194,5.5194,5.5194,5.5194,5.5194,5.5194,5.5194,5.5194,5.5194,5.5194,5.5194,5.5194,5.5194,5.5194,5.5194,5.5194,5.5194,5.5194,5.5194,5.5074,5.4895,5.4895,5.476,5.4521,5.4057,5.3907,5.3788,5.3099,5.2441,5.1902,5.1902,5.1573,5.1214,5.1214,5.1214,5.1214,5.1214,5.1214,5.1214,5.1214,5.1804,5.2485,5.2827,5.29,5.3087,5.3671,5.3142,5.2548,5.236,5.1471,5.0506,4.9581,4.919,4.8633,4.7441,4.7919,4.8072,4.7381,4.7309,4.7309,4.7309,4.7309,4.7309,4.7309,4.7309,4.7309,4.7309,4.7988,4.8335,4.8335,4.7651,4.7309,4.7309,4.7309,4.7309,4.7309,4.7609,4.7946,4.8335,4.7919,4.7988,4.8293,4.7609,4.7309,4.7309,4.7309,4.7309,4.7309,4.7309,4.7309,4.7309,5.5194,5.5194,5.5194,5.5194,5.5194,5.5194,5.5194,5.5194,5.5194,5.5194,5.5194,5.5194,5.5194,5.5194,5.5194,5.5194,5.5194,5.5194,5.5194,5.5194,5.5194,5.5194,5.5194,5.5194,5.5194,5.5194,5.5194,5.5194,5.5194,5.5194,5.5194,5.5194,5.5194,5.5194,5.5194,5.5194,5.5194,5.5194,5.5194,5.5194,5.5194,5.5194,5.5194,5.5194,5.5194,5.5194,5.5194,5.5194,5.5134,5.473,5.4431,5.4147,5.3713,5.3129,5.2591,5.2591,5.2127,5.1618,5.1618,5.1409,5.1214,5.1214,5.1214,5.1214,5.1214,5.1727,5.2365,5.2827,5.29,5.3105,5.3785,5.3368,5.2981,5.3276,5.2524,5.1642,5.0789,5.0809,5.0237,4.8502,4.8844,4.8887,4.7976,4.7538,4.7309,4.7309,4.7309,4.7309,4.7309,4.7309,4.7309,4.7309,4.8293,4.8784,4.8784,4.8225,4.7876,4.7876,4.7495,4.7309,4.7294,4.7722,4.821,4.8784,4.8625,4.8882,4.9376,4.8774,4.8517,4.846,4.8072,4.7876,4.7834,4.7452,4.7309,4.7309,5.5194,5.5194,5.5194,5.5194,5.5194,5.5194,5.5194,5.5194,5.5194,5.5194,5.5194,5.5194,5.5194,5.5194,5.5194,5.5194,5.5194,5.5194,5.5194,5.5194,5.5194,5.5194,5.5194,5.5194,5.5194,5.5194,5.5194,5.5194,5.5194,5.5194,5.5194,5.5194,5.5194,5.5194,5.5194,5.5194,5.5194,5.5194,5.5194,5.5194,5.5194,5.5194,5.5194,5.5194,5.5194,5.5194,5.5194,5.5194,5.5194,5.5194,5.479,5.4296,5.4296,5.3832,5.3279,5.3279,5.28,5.2291,5.2291,5.1843,5.1379,5.1319,5.1304,5.1289,5.1229,5.1214,5.1511,5.253,5.2738,5.2783,5.2856,5.29,5.2945,5.3033,5.2461,5.1955,5.1893,5.2167,5.171,4.9976,4.9868,4.9703,4.8908,4.8086,4.7632,4.7632,4.7658,4.7628,4.7542,4.7482,4.7381,4.7309,4.8293,4.8866,4.8948,4.8948,4.8907,4.8784,4.7876,4.7381,4.7337,4.8335,4.8866,4.8988,4.9891,5.0358,5.0512,5.0451,5.0397,5.0281,4.9336,4.8907,4.8677,4.7764,4.7381,4.7309,5.5194,5.5194,5.5194,5.5194,5.5194,5.5194,5.5194,5.5194,5.5194,5.5194,5.5194,5.5194,5.5194,5.5194,5.5194,5.5194,5.5194,5.5194,5.5194,5.5194,5.5194,5.5194,5.5194,5.5194,5.5194,5.5194,5.5194,5.5194,5.5194,5.5194,5.5194,5.5194,5.5194,5.5194,5.5194,5.5194,5.5194,5.5194,5.5194,5.5194,5.5194,5.5194,5.5194,5.5194,5.5194,5.5194,5.5194,5.5194,5.5194,5.5194,5.5089,5.4985,5.4985,5.4521,5.3982,5.3982,5.3503,5.2965,5.2965,5.286,5.2636,5.2112,5.1992,5.1858,5.1334,5.1214,5.1261,5.1511,5.1557,5.185,5.2738,5.29,5.3193,5.4084,5.3373,5.2498,5.1955,5.1231,5.0394,4.9492,5.0141,5.0278,4.9293,4.9741,5.0124,5.0124,5.0391,5.0216,4.9365,4.8804,4.8099,4.7337,4.8293,4.9175,5.0048,5.0048,4.9615,4.8784,4.8594,4.8057,4.7337,4.8335,4.9256,5.0009,4.9416,5.0071,5.1504,5.0703,5.0397,5.0374,5.0126,4.9536,4.8784,4.8569,4.7988,4.7309,5.5194,5.5194,5.5194,5.5194,5.5194,5.5194,5.5194,5.5194,5.5194,5.5194,5.5194,5.5194,5.5194,5.5194,5.5194,5.5194,5.5194,5.5194,5.5194,5.5194,5.5194,5.5194,5.5194,5.5194,5.5194,5.5194,5.5194,5.5194,5.5194,5.5194,5.5194,5.5194,5.5194,5.5194,5.5194,5.5194,5.5194,5.5194,5.5194,5.5194,5.5194,5.5194,5.5194,5.5194,5.5194,5.5194,5.5194,5.5194,5.5194,5.5194,5.5194,5.5194,5.5194,5.4955,5.4685,5.4685,5.4206,5.3668,5.3668,5.3428,5.3099,5.2755,5.2665,5.2411,5.1439,5.1214,5.1214,5.1214,5.1214,5.1386,5.1972,5.2109,5.244,5.3613,5.3281,5.2776,5.242,5.233,5.1834,5.0647,5.1036,5.081,4.9419,4.9819,5.0125,5.0125,5.0333,5.0412,5.0381,5.0014,4.9786,4.9817,5.0323,5.0818,5.1389,5.0873,5.0592,5.0576,4.9874,4.9271,4.8774,4.88,4.9639,5.1043,5.0009,5.0741,5.2627,5.2098,5.1882,5.1829,5.132,5.0763,5.0227,4.9718,4.8922,4.7946,5.5194,5.5194,5.5194,5.5194,5.5194,5.5194,5.5194,5.5194,5.5194,5.5194,5.5194,5.5194,5.5194,5.5194,5.5194,5.5194,5.5194,5.5194,5.5194,5.5194,5.5194,5.5194,5.5194,5.5194,5.5194,5.5194,5.5194,5.5194,5.5194,5.5194,5.5194,5.5194,5.5194,5.5194,5.5194,5.5194,5.5194,5.5194,5.5194,5.5194,5.5194,5.5194,5.5194,5.5194,5.5194,5.5194,5.5194,5.5194,5.5194,5.5194,5.5194,5.5194,5.5194,5.5194,5.5194,5.5194,5.4805,5.4386,5.4386,5.3967,5.3488,5.3384,5.3354,5.3039,5.1828,5.1468,5.1394,5.1394,5.1289,5.1214,5.1214,5.1214,5.1511,5.244,5.2604,5.2604,5.2604,5.3412,5.3451,5.1894,5.1744,5.1308,5.002,4.9929,4.9929,4.9929,4.9988,5.0323,5.1053,5.1141,5.1523,5.2292,5.2437,5.2597,5.2795,5.1663,5.1663,5.2724,5.1582,5.0855,5.0573,4.9702,5.0249,5.1832,5.1005,5.1756,5.3501,5.3501,5.3501,5.3416,5.2522,5.2082,5.176,5.055,4.9575,4.8677,5.5194,5.5194,5.5194,5.5194,5.5194,5.5194,5.5194,5.5194,5.5194,5.5194,5.5194,5.5194,5.5194,5.5194,5.5194,5.5194,5.5194,5.5194,5.5194,5.5194,5.5194,5.5194,5.5194,5.5194,5.5194,5.5194,5.5194,5.5194,5.5194,5.5194,5.5194,5.5194,5.5194,5.5194,5.5194,5.5194,5.5194,5.5194,5.5194,5.5194,5.5194,5.5194,5.5194,5.5194,5.5194,5.5194,5.5194,5.5194,5.5194,5.5194,5.5194,5.5194,5.5194,5.5194,5.5194,5.5194,5.5134,5.5059,5.5059,5.4985,5.479,5.4206,5.4072,5.3862,5.3099,5.2471,5.2067,5.2067,5.1618,5.1214,5.1214,5.1214,5.1261,5.1386,5.1433,5.1433,5.1433,5.1557,5.1573,5.1312,5.1297,5.1591,5.2342,5.2416,5.2416,5.2416,5.2726,5.2592,5.1825,5.2102,5.1935,5.1162,5.2073,5.2993,5.3874,5.2835,5.2779,5.3803,5.3606,5.2764,5.1339,5.1431,5.1651,5.1885,5.176,5.24,5.3501,5.3501,5.3501,5.3501,5.3348,5.2714,5.1687,4.9718,4.8907,4.8677,5.5194,5.5194,5.5194,5.5194,5.5194,5.5194,5.5194,5.5194,5.5194,5.5194,5.5194,5.5194,5.5194,5.5194,5.5194,5.5194,5.5194,5.5194,5.5194,5.5194,5.5194,5.5194,5.5194,5.5194,5.5194,5.5194,5.5194,5.5194,5.5194,5.5194,5.5194,5.5194,5.5194,5.5194,5.5194,5.5194,5.5194,5.5194,5.5194,5.5194,5.5194,5.5194,5.5194,5.5194,5.5194,5.5194,5.5194,5.5194,5.5194,5.5194,5.5194,5.5194,5.5194,5.5194,5.5194,5.5194,5.5194,5.5194,5.5194,5.5194,5.5119,5.4835,5.476,5.4685,5.4371,5.3788,5.3204,5.283,5.2516,5.253,5.319,5.3009,5.2704,5.278,5.2429,5.1941,5.1308,5.1214,5.1214,5.1214,5.1214,5.1386,5.1896,5.1926,5.1926,5.1926,5.2134,5.2306,5.2451,5.2617,5.3049,5.3857,5.3767,5.4228,5.5265,5.4212,5.4212,5.521,5.4219,5.3415,5.2894,5.307,5.345,5.4004,5.3397,5.3737,5.4735,5.4735,5.4499,5.411,5.411,5.3583,5.2592,5.108,5.0518,5.0381]}]]